[[{"header":{"parameterUnit":"m.s-1","parameterCategory":1,"la1":31.0,"la2":29.5877,"lo1":-88.7671,"lo2":-86.6584,"dy":0.0162,"dx":0.0185,"nx":115,"ny":88,"refTime":"2024-05-02T06:00:00:Z","depth":0,"parameterNumber":2,"parameterNumberName":"U-component_of_WINDS"},"data":[0.0,0.0,0.0,0.0,0.0,0.0,0.0,0.0,0.0,0.0,0.0,0.0,0.0,0.0,0.0,0.0,0.0,0.0,0.0,0.0,0.0,0.0,0.0,0.0,0.0,0.0,0.0,0.0,0.0,0.0,0.0,0.0,0.0,0.0,0.0,0.0,0.0,0.0,0.0,0.0,0.0,0.0,0.0,0.0,0.0,0.0,0.0,0.0,0.0,0.0,0.0,0.0,0.0,0.0,0.0,0.0,0.0,0.0,0.0,0.0,0.0,0.0,0.0,0.0,0.0,0.0,0.0,0.0,0.0,0.0,0.0,0.0,0.0,0.0,0.0,0.0,0.0,0.0,0.0,0.0,0.0,0.0,0.0,0.0,0.0,0.0,0.0,0.0,0.0,0.0,0.0,0.0,0.0,0.0,0.0,0.0,0.0,0.0,0.0,0.0,0.0,0.0,0.0,0.0,0.0,0.0,0.0,0.0,0.0,0.0,0.0,0.0,0.0,0.0,0.0,0.0,0.0,0.0,0.0,0.0,0.0,0.0,0.0,0.0,0.0,0.0,0.0,0.0,0.0,0.0,0.0,0.0,0.0,0.0,0.0,0.0,0.0,0.0,0.0,0.0,0.0,0.0,0.0,0.0,0.0,0.0,0.0,0.0,0.0,0.0,0.0,0.0,0.0,0.0,0.0,0.0,0.0,0.0,0.0,0.0,0.0,0.0,0.0,0.0,0.0,0.0,0.0,0.0,0.0,0.0,0.0,0.0,0.0,0.0,0.0,0.0,0.0,0.0,0.0,0.0,0.0,0.0,0.0,0.0,0.0,0.0,0.0,0.0,0.0,0.0,0.0,0.0,0.0,0.0,0.0,0.0,0.0,0.0,0.0,0.0,0.0,0.0,0.0,0.0,0.0,0.0,0.0,0.0,0.0,0.0,0.0,0.0,0.0,0.0,0.0,0.0,0.0,0.0,0.0,0.0,0.0,0.0,0.0,0.0,0.0,0.0,0.0,0.0,0.0,0.0,0.0,0.0,0.0,0.0,0.0,0.0,0.0,0.0,0.0,0.0,0.0,0.0,0.0,0.0,0.0,0.0,0.0,0.0,0.0,0.0,0.0,0.0,0.0,0.0,0.0,0.0,0.0,0.0,0.0,0.0,0.0,0.0,0.0,0.0,0.0,0.0,0.0,0.0,0.0,0.0,0.0,0.0,0.0,0.0,0.0,0.0,0.0,0.0,0.0,0.0,0.0,0.0,0.0,0.0,0.0,0.0,0.0,0.0,0.0,0.0,0.0,0.0,0.0,0.0,0.0,0.0,0.0,0.0,0.0,0.0,0.0,0.0,0.0,0.0,0.0,0.0,0.0,0.0,0.0,0.0,0.0,0.0,0.0,0.0,0.0,0.0,0.0,0.0,0.0,0.0,0.0,0.0,0.0,0.0,0.0,0.0,0.0,0.0,0.0,0.0,0.0,0.0,0.0,0.0,0.0,0.0,0.0,0.0,0.0,0.0,0.0,0.0,0.0,0.0,0.0,0.0,0.0,0.0,0.0,0.0,0.0,0.0,0.0,0.0,0.0,0.0,0.0,0.0,0.0,0.0,0.0,0.0,0.0,0.0,0.0,0.0,0.0,0.0,0.0,0.0,0.0,0.0,0.0,0.0,0.0,0.0,0.0,0.0,0.0,0.0,0.0,0.0,0.0,0.0,0.0,0.0,0.0,0.0,0.0,0.0,0.0,0.0,0.0,0.0,0.0,0.0,0.0,0.0,0.0,0.0,0.0,0.0,0.0,0.0,0.0,0.0,0.0,0.0,0.0,0.0,0.0,0.0,0.0,0.0,0.0,0.0,0.0,0.0,0.0,0.0,0.0,0.0,0.0,0.0,0.0,0.0,0.0,0.0,0.0,0.0,0.0,0.0,0.0,0.0,0.0,0.0,0.0,0.0,0.0,0.0,0.0,0.0,0.0,0.0,0.0,0.0,0.0,0.0,0.0,0.0,0.0,0.0,0.0,0.0,0.0,0.0,0.0,0.0,0.0,0.0,0.0,0.0,0.0,0.0,0.0,0.0,0.0,0.0,0.0,0.0,0.0,0.0,0.0,0.0,0.0,0.0,0.0,0.0,0.0,0.0,0.0,0.0,0.0,0.0,0.0,0.0,0.0,0.0,0.0,0.0,0.0,0.0,0.0,0.0,0.0,0.0,0.0,0.0,0.0,0.0,0.0,0.0,0.0,0.0,0.0,0.0,0.0,0.0,0.0,0.0,0.0,0.0,0.0,0.0,0.0,0.0,0.0,0.0,0.0,0.0,0.0,0.0,0.0,0.0,0.0,0.0,0.0,0.0,0.0,0.0,0.0,0.0,0.0,0.0,0.0,0.0,0.0,0.0,0.0,0.0,0.0,0.0,0.0,0.0,0.0,0.0,0.0,0.0,0.0,0.0,0.0,0.0,0.0,0.0,0.0,0.0,0.0,0.0,0.0,0.0,0.0,0.0,0.0,0.0,0.0,0.0,0.0,0.0,0.0,0.0,0.0,0.0,0.0,0.0,0.0,0.0,0.0,0.0,0.0,0.0,0.0,0.0,0.0,0.0,0.0,0.0,0.0,0.0,0.0,0.0,0.0,0.0,0.0,0.0,0.0,0.0,0.0,0.0,0.0,0.0,0.0,0.0,0.0,0.0,0.0,0.0,0.0,0.0,0.0,0.0,0.0,0.0,0.0,0.0,0.0,0.0,0.0,0.0,0.0,0.0,0.0,0.0,0.0,0.0,0.0,0.0,0.0,0.0,0.0,0.0,0.0,0.0,0.0,0.0,0.0,0.0,0.0,0.0,0.0,0.0,0.0,0.0,0.0,0.0,0.0,0.0,0.0,0.0,0.0,0.0,0.0,0.0,0.0,0.0,0.0,0.0,0.0,0.0,0.0,0.0,0.0,0.0,0.0,0.0,0.0,0.0,0.0,0.0,0.0,0.0,0.0,0.0,0.0,0.0,0.0,0.0,0.0,0.0,0.0,0.0,0.0,0.0,0.0,0.0,0.0,0.0,0.0,0.0,0.0,0.0,0.0,0.0,0.0,0.0,0.0,0.0,0.0,0.0,0.0,0.0,0.0,0.0,0.0,0.0,0.0,0.0,0.0,0.0,0.0,0.0,0.0,0.0,0.0,0.0,0.0,0.0,0.0,0.0,0.0,0.0,0.0,0.0,0.0,0.0,0.0,0.0,0.0,0.0,0.0,0.0,0.0,0.0,0.0,0.0,0.0,0.0,0.0,0.0,0.0,0.0,0.0,0.0,0.0,0.0,0.0,0.0,0.0,0.0,0.0,0.0,0.0,0.0,0.0,0.0,0.0,0.0,0.0,0.0,0.0,0.0,0.0,0.0,0.0,0.0,0.0,0.0,0.0,0.0,0.0,0.0,0.0,0.0,0.0,0.0,0.0,0.0,0.0,0.0,0.0,0.0,0.0,0.0,0.0,0.0,0.0,0.0,0.0,0.0,0.0,0.0,0.0,0.0,0.0,0.0,0.0,0.0,0.0,0.0,0.0,0.0,0.0,0.0,0.0,0.0,0.0,0.0,0.0,0.0,0.0,0.0,0.0,0.0,0.0,0.0,0.0,0.0,0.0,0.0,0.0,0.0,0.0,0.0,0.0,0.0,0.0,0.0,0.0,0.0,0.0,0.0,0.0,0.0,0.0,0.0,0.0,0.0,0.0,0.0,0.0,0.0,0.0,0.0,0.0,0.0,0.0,0.0,0.0,0.0,0.0,0.0,0.0,0.0,0.0,0.0,0.0,0.0,0.0,0.0,0.0,0.0,0.0,0.0,0.0,0.0,0.0,0.0,0.0,0.0,0.0,0.0,0.0,0.0,0.0,0.0,0.0,0.0,0.0,0.0,0.0,0.0,0.0,0.0,0.0,0.0,0.0,0.0,0.0,0.0,0.0,0.0,0.0,0.0,0.0,0.0,0.0,0.0,0.0,0.0,0.0,0.0,0.0,0.0,0.0,0.0,0.0,0.0,0.0,0.0,0.0,0.0,0.0,0.0,0.0,0.0,0.0,0.0,0.0,0.0,0.0,0.0,0.0,0.0,0.0,0.0,0.0,0.0,0.0,0.0,0.0,0.0,0.0,0.0,0.0,0.0,0.0,0.0,0.0,0.0,0.0,0.0,0.0,0.0,0.0,0.0,0.0,0.0,0.0,0.0,0.0,0.0,0.0,0.0,0.0,0.0,0.0,0.0,0.0,0.0,0.0,0.0,0.0,0.0,0.0,0.0,0.0,0.0,-0.672,0.0,0.0,0.0,0.0,0.0,0.0,0.0,0.0,0.0,0.0,0.0,0.0,0.0,0.0,0.0,0.0,0.0,0.0,0.0,0.0,0.0,0.0,0.0,0.0,0.0,0.0,0.0,0.0,0.0,0.0,0.0,0.0,0.0,0.0,0.0,0.0,0.0,0.0,0.0,0.0,0.0,0.0,0.0,0.0,0.0,0.0,0.0,0.0,0.0,0.0,0.0,0.0,0.0,0.0,0.0,0.0,0.0,0.0,0.0,0.0,0.0,0.0,0.0,0.0,0.0,0.0,0.0,0.0,0.0,0.0,0.0,0.0,0.0,0.0,0.0,0.0,0.0,0.0,0.0,0.0,0.0,0.0,0.0,0.0,0.0,0.0,0.0,0.0,0.0,0.0,0.0,0.0,0.0,0.0,0.0,0.0,0.0,0.0,0.0,0.0,0.0,0.0,0.0,0.0,0.0,0.0,0.0,0.0,0.0,0.0,-0.6034,-0.6388,-0.6385,-0.6491,-0.6729,0.0,0.0,0.0,0.0,0.0,0.0,0.0,0.0,0.0,0.0,0.0,0.0,0.0,0.0,0.0,0.0,0.0,0.0,0.0,0.0,0.0,0.0,0.0,0.0,0.0,0.0,0.0,0.0,0.0,0.0,0.0,0.0,0.0,0.0,0.0,0.0,0.0,0.0,0.0,0.0,0.0,0.0,0.0,0.0,0.0,0.0,0.0,0.0,0.0,0.0,0.0,0.0,0.0,0.0,0.0,0.0,0.0,0.0,0.0,0.0,0.0,0.0,0.0,0.0,0.0,0.0,0.0,0.0,0.0,0.0,0.0,0.0,0.0,0.0,0.0,0.0,0.0,0.0,0.0,0.0,0.0,0.0,0.0,0.0,0.0,0.0,0.0,0.0,0.0,0.0,0.0,0.0,0.0,0.0,0.0,0.0,0.0,0.0,0.0,0.0,0.0,0.0,0.0,0.0,0.0,0.0,0.0,0.0,0.0,0.0,0.0,0.0,-0.655,-0.661,-0.6748,0.0,0.0,0.0,0.0,0.0,0.0,0.0,0.0,0.0,0.0,0.0,0.0,0.0,0.0,0.0,0.0,0.0,0.0,0.0,0.0,0.0,0.0,0.0,0.0,0.0,0.0,0.0,0.0,0.0,0.0,0.0,0.0,0.0,0.0,0.0,0.0,0.0,0.0,0.0,0.0,0.0,0.0,0.0,0.0,0.0,0.0,0.0,0.0,0.0,0.0,0.0,0.0,0.0,0.0,0.0,0.0,0.0,0.0,0.0,0.0,0.0,0.0,0.0,0.0,0.0,0.0,0.0,0.0,0.0,0.0,0.0,0.0,0.0,0.0,0.0,0.0,0.0,0.0,0.0,0.0,0.0,0.0,0.0,0.0,0.0,0.0,0.0,0.0,0.0,0.0,0.0,0.0,0.0,0.0,0.0,0.0,0.0,0.0,0.0,0.0,0.0,0.0,0.0,0.0,0.0,0.0,0.0,0.0,0.0,0.0,-0.652,-0.6863,-0.674,0.0,-0.6857,0.0,0.0,0.0,0.0,0.0,0.0,0.0,0.0,0.0,0.0,0.0,0.0,0.0,0.0,0.0,0.0,0.0,0.0,0.0,0.0,0.0,0.0,0.0,0.0,0.0,0.0,0.0,0.0,0.0,0.0,0.0,0.0,0.0,0.0,0.0,0.0,0.0,0.0,0.0,0.0,0.0,0.0,0.0,0.0,0.0,0.0,0.0,0.0,0.0,0.0,0.0,0.0,0.0,0.0,0.0,0.0,0.0,0.0,0.0,0.0,0.0,0.0,0.0,0.0,0.0,0.0,0.0,0.0,0.0,0.0,0.0,0.0,0.0,0.0,0.0,0.0,0.0,0.0,0.0,0.0,0.0,0.0,0.0,0.0,0.0,0.0,0.0,0.0,0.0,0.0,0.0,0.0,0.0,0.0,0.0,0.0,0.0,0.0,0.0,0.0,0.0,0.0,0.0,0.0,0.0,0.0,0.0,0.0,0.0,0.0,-0.6808,-0.7196,-0.7025,-0.691,0.0,0.0,0.0,0.0,0.0,0.0,0.0,0.0,0.0,0.0,0.0,0.0,0.0,0.0,0.0,0.0,0.0,0.0,0.0,0.0,0.0,0.0,0.0,0.0,0.0,0.0,0.0,0.0,0.0,0.0,0.0,0.0,0.0,0.0,0.0,0.0,0.0,0.0,0.0,0.0,0.0,0.0,0.0,0.0,0.0,0.0,0.0,0.0,0.0,0.0,0.0,0.0,0.0,0.0,0.0,0.0,0.0,0.0,0.0,0.0,0.0,0.0,0.0,0.0,0.0,0.0,0.0,0.0,0.0,0.0,0.0,0.0,0.0,0.0,0.0,0.0,0.0,0.0,0.0,0.0,0.0,0.0,0.0,0.0,0.0,0.0,0.0,0.0,0.0,0.0,0.0,0.0,0.0,0.0,0.0,0.0,0.0,0.0,0.0,0.0,0.0,0.0,0.0,0.0,0.0,0.0,0.0,0.0,0.0,0.0,-0.69,-0.7073,-0.7264,-0.7125,-0.6954,-0.6712,0.0,0.0,0.0,0.0,0.0,0.0,0.0,0.0,0.0,0.0,0.0,0.0,0.0,0.0,0.0,0.0,0.0,0.0,0.0,0.0,0.0,0.0,0.0,0.0,0.0,0.0,0.0,0.0,0.0,0.0,0.0,0.0,0.0,0.0,0.0,0.0,0.0,0.0,0.0,0.0,0.0,0.0,0.0,0.0,0.0,0.0,0.0,0.0,0.0,0.0,0.0,0.0,0.0,0.0,0.0,0.0,0.0,0.0,0.0,0.0,0.0,0.0,0.0,0.0,0.0,0.0,0.0,0.0,0.0,0.0,0.0,0.0,0.0,0.0,0.0,0.0,0.0,0.0,0.0,0.0,0.0,0.0,0.0,0.0,0.0,0.0,0.0,0.0,0.0,0.0,0.0,0.0,0.0,0.0,0.0,0.0,0.0,0.0,0.0,0.0,0.0,0.0,0.0,0.0,0.0,0.0,0.0,0.0,-0.6724,-0.7139,-0.7249,-0.7017,-0.696,-0.6779,0.0,0.0,0.0,0.0,0.0,0.0,0.0,0.0,0.0,0.0,0.0,0.0,0.0,0.0,0.0,0.0,0.0,0.0,0.0,0.0,0.0,0.0,0.0,0.0,0.0,0.0,0.0,0.0,0.0,0.0,0.0,0.0,0.0,0.0,0.0,0.0,0.0,0.0,0.0,0.0,0.0,0.0,0.0,0.0,0.0,0.0,0.0,0.0,0.0,0.0,0.0,0.0,0.0,0.0,0.0,0.0,0.0,0.0,0.0,0.0,0.0,0.0,0.0,0.0,0.0,0.0,0.0,0.0,0.0,0.0,0.0,0.0,0.0,0.0,0.0,0.0,0.0,0.0,0.0,0.0,0.0,0.0,0.0,0.0,0.0,0.0,0.0,0.0,0.0,0.0,0.0,0.0,0.0,0.0,0.0,0.0,0.0,0.0,0.0,0.0,0.0,0.0,0.0,0.0,0.0,0.0,0.0,0.0,0.0,-0.7011,-0.7156,-0.7125,-0.6936,-0.69,-0.6779,0.0,0.0,0.0,0.0,0.0,0.0,0.0,0.0,0.0,0.0,0.0,0.0,0.0,0.0,0.0,0.0,0.0,0.0,0.0,0.0,0.0,0.0,0.0,0.0,0.0,0.0,0.0,0.0,0.0,0.0,0.0,0.0,0.0,0.0,0.0,0.0,0.0,0.0,0.0,0.0,0.0,0.0,0.0,0.0,0.0,0.0,0.0,0.0,0.0,0.0,0.0,0.0,0.0,0.0,0.0,0.0,0.0,0.0,0.0,0.0,0.0,0.0,0.0,0.0,0.0,0.0,0.0,0.0,0.0,0.0,0.0,0.0,0.0,0.0,0.0,0.0,0.0,0.0,0.0,0.0,0.0,0.0,0.0,0.0,0.0,0.0,0.0,0.0,0.0,0.0,0.0,0.0,0.0,0.0,0.0,0.0,0.0,0.0,0.0,0.0,0.0,0.0,0.0,0.0,0.0,0.0,0.0,0.0,0.0,-0.7127,0.0,-0.699,-0.6878,-0.6816,-0.6703,0.0,0.0,0.0,0.0,0.0,0.0,0.0,0.0,0.0,0.0,0.0,0.0,0.0,0.0,0.0,0.0,0.0,0.0,0.0,0.0,0.0,0.0,0.0,0.0,0.0,0.0,0.0,0.0,0.0,0.0,0.0,0.0,0.0,0.0,0.0,0.0,0.0,0.0,0.0,0.0,0.0,0.0,0.0,0.0,0.0,0.0,0.0,0.0,0.0,0.0,0.0,0.0,0.0,0.0,0.0,0.0,0.0,0.0,0.0,0.0,0.0,0.0,0.0,0.0,0.0,0.0,0.0,0.0,0.0,0.0,0.0,0.0,0.0,0.0,0.0,0.0,0.0,0.0,0.0,0.0,0.0,0.0,0.0,0.0,0.0,0.0,0.0,0.0,0.0,0.0,0.0,0.0,0.0,0.0,0.0,0.0,0.0,0.0,0.0,0.0,0.0,0.0,0.0,0.0,0.0,0.0,0.0,0.0,-0.708,-0.7011,-0.696,-0.6878,-0.682,-0.6688,-0.655,0.0,0.0,0.0,0.0,0.0,0.0,0.0,0.0,0.0,0.0,0.0,0.0,0.0,0.0,0.0,0.0,0.0,0.0,0.0,0.0,0.0,0.0,0.0,0.0,0.0,0.0,0.0,0.0,0.0,0.0,0.0,0.0,0.0,0.0,0.0,0.0,0.0,0.0,0.0,0.0,0.0,0.0,0.0,0.0,0.0,0.0,0.0,0.0,0.0,0.0,0.0,0.0,0.0,0.0,0.0,0.0,0.0,0.0,0.0,0.0,0.0,0.0,0.0,0.0,0.0,0.0,0.0,0.0,0.0,0.0,0.0,0.0,0.0,0.0,0.0,0.0,0.0,0.0,0.0,0.0,0.0,0.0,0.0,0.0,0.0,0.0,0.0,0.0,0.0,0.0,0.0,0.0,0.0,0.0,0.0,0.0,0.0,0.0,0.0,0.0,0.0,0.0,0.0,0.0,0.0,0.0,0.0,0.0,0.0,-0.7481,-0.716,-0.7074,-0.7251,-0.6838,-0.6558,0.0,0.0,0.0,0.0,0.0,0.0,0.0,0.0,0.0,0.0,0.0,0.0,0.0,0.0,0.0,0.0,0.0,0.0,0.0,0.0,0.0,0.0,0.0,0.0,0.0,0.0,0.0,0.0,0.0,0.0,0.0,0.0,0.0,0.0,0.0,0.0,0.0,0.0,0.0,0.0,0.0,0.0,0.0,0.0,0.0,0.0,0.0,0.0,0.0,0.0,0.0,0.0,0.0,0.0,0.0,0.0,0.0,0.0,0.0,0.0,0.0,0.0,0.0,0.0,0.0,0.0,0.0,0.0,0.0,0.0,0.0,0.0,0.0,0.0,0.0,0.0,0.0,0.0,0.0,0.0,0.0,0.0,0.0,0.0,0.0,0.0,0.0,0.0,0.0,0.0,0.0,0.0,0.0,0.0,0.0,0.0,0.0,0.0,0.0,0.0,0.0,0.0,0.0,0.0,0.0,0.0,0.0,0.0,0.0,-0.8764,-0.7975,-0.7553,-0.7601,-0.7126,-0.6789,-0.6609,0.0,0.0,0.0,0.0,0.0,0.0,0.0,0.0,0.0,0.0,0.0,0.0,0.0,0.0,0.0,0.0,0.0,0.0,0.0,0.0,0.0,0.0,0.0,0.0,0.0,0.0,0.0,0.0,0.0,0.0,0.0,0.0,0.0,0.0,0.0,0.0,0.0,0.0,0.0,0.0,0.0,0.0,0.0,0.0,0.0,0.0,0.0,0.0,0.0,0.0,0.0,0.0,0.0,0.0,0.0,0.0,0.0,0.0,0.0,0.0,0.0,0.0,0.0,0.0,0.0,0.0,0.0,0.0,0.0,0.0,0.0,0.0,0.0,0.0,0.0,0.0,0.0,0.0,0.0,0.0,0.0,0.0,0.0,0.0,0.0,0.0,0.0,0.0,0.0,0.0,0.0,0.0,0.0,0.0,0.0,0.0,0.0,0.0,0.0,0.0,0.0,0.0,0.0,0.0,0.0,0.0,0.0,0.0,-1.0696,-0.9329,-0.8388,-0.7944,-0.7526,-0.714,0.0,0.0,0.0,0.0,0.0,0.0,0.0,0.0,0.0,0.0,0.0,0.0,0.0,0.0,0.0,0.0,0.0,0.0,0.0,0.0,0.0,0.0,0.0,0.0,0.0,0.0,0.0,0.0,0.0,0.0,0.0,0.0,0.0,0.0,0.0,0.0,0.0,0.0,0.0,0.0,0.0,0.0,0.0,0.0,0.0,0.0,0.0,0.0,0.0,0.0,0.0,0.0,0.0,0.0,0.0,0.0,0.0,0.0,0.0,0.0,0.0,0.0,0.0,0.0,0.0,0.0,0.0,0.0,0.0,0.0,0.0,0.0,0.0,0.0,0.0,0.0,0.0,0.0,0.0,0.0,0.0,0.0,0.0,0.0,0.0,0.0,0.0,0.0,0.0,0.0,0.0,0.0,0.0,0.0,0.0,0.0,0.0,0.0,0.0,0.0,0.0,0.0,0.0,0.0,0.0,0.0,0.0,0.0,0.0,-1.0947,-1.0932,-1.041,-0.9368,-0.8017,-0.7098,0.0,0.0,0.0,0.0,0.0,0.0,0.0,0.0,0.0,0.0,0.0,0.0,0.0,0.0,0.0,0.0,0.0,0.0,0.0,0.0,0.0,0.0,0.0,0.0,0.0,0.0,0.0,0.0,0.0,0.0,0.0,0.0,0.0,0.0,0.0,0.0,0.0,0.0,0.0,0.0,0.0,0.0,0.0,0.0,0.0,0.0,0.0,0.0,0.0,0.0,0.0,0.0,0.0,0.0,0.0,0.0,0.0,0.0,0.0,0.0,0.0,0.0,0.0,0.0,0.0,0.0,0.0,0.0,0.0,0.0,0.0,0.0,0.0,0.0,0.0,0.0,0.0,0.0,0.0,0.0,0.0,0.0,0.0,0.0,0.0,0.0,0.0,0.0,0.0,0.0,0.0,0.0,0.0,0.0,0.0,0.0,0.0,0.0,0.0,0.0,0.0,0.0,0.0,0.0,0.0,0.0,0.0,0.0,-1.0813,-1.1838,-1.1964,-1.1676,-1.093,-0.9235,-0.7856,0.0,0.0,0.0,0.0,0.0,0.0,0.0,0.0,0.0,0.0,0.0,0.0,0.0,0.0,0.0,0.0,0.0,0.0,0.0,0.0,0.0,0.0,0.0,0.0,0.0,0.0,0.0,0.0,0.0,0.0,0.0,0.0,0.0,0.0,0.0,0.0,0.0,0.0,0.0,0.0,0.0,0.0,0.0,0.0,0.0,0.0,0.0,0.0,0.0,0.0,0.0,0.0,0.0,0.0,0.0,0.0,0.0,0.0,0.0,0.0,0.0,0.0,0.0,0.0,0.0,0.0,0.0,0.0,0.0,0.0,0.0,0.0,0.0,0.0,0.0,0.0,0.0,0.0,0.0,0.0,0.0,0.0,0.0,0.0,0.0,0.0,0.0,0.0,0.0,0.0,0.0,0.0,0.0,0.0,0.0,0.0,0.0,0.0,0.0,0.0,0.0,0.0,0.0,0.0,0.0,0.0,0.0,0.0,-1.1446,-1.2783,-1.2573,-1.2362,-1.2182,-1.0579,-0.8908,0.0,0.0,0.0,0.0,0.0,0.0,0.0,0.0,0.0,0.0,0.0,0.0,0.0,0.0,0.0,0.0,0.0,0.0,0.0,0.0,0.0,0.0,0.0,0.0,0.0,0.0,0.0,0.0,0.0,0.0,0.0,0.0,0.0,0.0,0.0,0.0,0.0,0.0,0.0,0.0,0.0,0.0,0.0,0.0,0.0,0.0,0.0,0.0,0.0,0.0,0.0,0.0,0.0,0.0,0.0,0.0,0.0,0.0,0.0,0.0,0.0,0.0,0.0,0.0,0.0,0.0,0.0,0.0,0.0,0.0,0.0,0.0,0.0,0.0,0.0,0.0,0.0,0.0,0.0,0.0,0.0,0.0,0.0,0.0,0.0,0.0,0.0,0.0,0.0,0.0,0.0,0.0,0.0,0.0,0.0,0.0,0.0,0.0,0.0,0.0,0.0,0.0,0.0,0.0,0.0,0.0,0.0,0.0,-1.1344,-1.232,-1.2845,-1.2653,-1.1775,-1.0266,-0.8799,0.0,0.0,0.0,0.0,0.0,0.0,0.0,0.0,0.0,0.0,0.0,0.0,0.0,0.0,0.0,0.0,0.0,0.0,0.0,0.0,0.0,0.0,0.0,0.0,0.0,0.0,0.0,0.0,0.0,0.0,0.0,0.0,0.0,0.0,0.0,0.0,0.0,0.0,0.0,0.0,0.0,0.0,0.0,0.0,0.0,0.0,0.0,0.0,0.3079,0.0,0.0,0.0,0.0,0.0,0.0,0.0,0.0,0.0,0.0,0.0,0.0,0.0,0.0,0.0,0.0,0.0,0.0,0.0,0.0,0.0,0.0,0.0,0.0,0.0,0.0,0.0,0.0,0.0,0.0,0.0,0.0,0.0,0.0,0.0,0.0,0.0,0.0,0.0,0.0,0.0,0.0,0.0,0.0,0.0,0.0,0.0,0.0,0.0,0.0,0.0,0.0,0.0,0.0,0.0,0.0,0.0,0.0,0.0,-1.1316,-1.2161,-1.257,-1.2514,-1.1888,-1.0259,-0.8749,0.0,0.0,0.0,0.0,0.0,0.0,0.0,0.0,0.0,0.0,0.0,0.0,0.0,0.0,0.0,0.0,0.0,0.0,0.0,0.0,0.0,0.0,0.0,0.0,0.0,0.0,0.0,0.0,0.0,0.0,0.0,0.0,0.0,0.0,0.0,0.0,0.0,0.0,0.0,0.0,0.0,0.0,0.0,0.0,0.0,0.0,0.0,0.0,0.0,0.0,0.0,0.0,0.0,0.0,0.0,0.0,0.0,0.0,0.0,0.0,0.0,0.0,0.0,0.0,0.0,0.0,0.0,0.0,0.0,0.0,0.0,0.0,0.0,0.0,0.0,0.0,0.0,0.0,0.0,0.0,0.0,0.0,0.0,0.0,0.0,0.0,0.0,0.0,0.0,0.0,0.0,0.0,0.0,0.0,0.0,0.0,0.0,0.0,0.0,0.0,0.0,0.0,0.0,0.0,0.0,0.0,0.0,-1.0098,-1.1121,-1.196,-1.2067,-1.2071,-1.1953,-1.0233,-0.8709,-0.747,0.0,0.0,0.0,0.0,0.0,0.0,0.0,0.0,0.0,0.0,0.0,0.0,0.0,0.0,0.0,0.0,0.0,0.0,0.0,0.0,0.0,0.0,0.0,0.0,0.0,0.0,0.0,0.0,0.0,0.0,0.0,0.0,0.0,0.0,0.0,0.0,0.0,0.0,0.1832,0.225,0.0,0.0,0.0,0.0,0.0,0.0,0.0,0.0,0.3832,0.0,0.0,0.0,0.0,0.0,0.0,0.0,0.0,0.0,0.0,0.0,0.0,0.0,0.0,0.0,0.0,0.0,0.0,0.0,0.0,0.0,0.0,0.0,0.0,0.0,0.0,0.0,0.0,0.0,0.0,0.0,0.0,0.0,0.0,0.0,0.0,0.0,0.0,0.0,0.0,0.0,0.0,0.0,0.0,0.0,0.0,0.0,0.0,0.0,0.0,0.0,0.0,0.0,0.0,0.0,0.0,-0.897,-0.9542,-1.0235,-1.1103,-1.1484,-1.1299,-1.0475,-0.9753,-0.8777,-0.7474,0.0,0.0,0.0,0.0,0.0,0.0,0.0,0.0,0.0,0.0,0.0,0.0,0.0,0.0,0.0,0.0,0.0,0.0,0.0,0.0,0.0,0.0,0.0,0.0,0.0,0.0,0.0,0.0,0.0,0.0,0.0,0.0,0.0,0.0,0.0,0.0,0.0,0.0,0.0,0.2033,0.2359,0.0,0.0,0.0,0.0,0.0,0.0,0.0,0.0,0.3881,0.0,0.0,0.0,0.0,0.0,0.0,0.0,0.0,0.0,0.0,0.0,0.0,0.0,0.0,0.0,0.0,0.0,0.0,0.0,0.0,0.0,0.0,0.0,0.0,0.0,0.0,0.0,0.0,0.0,0.0,0.0,0.0,0.0,0.0,0.0,0.0,0.0,0.0,0.0,0.0,0.0,0.0,0.0,0.0,0.0,0.0,0.0,0.0,0.0,0.0,0.0,0.0,0.0,0.0,0.0,-0.8727,-0.9377,-0.9998,-1.0586,-1.1006,-1.0903,-1.0215,-0.9347,-0.8447,0.0,0.0,0.0,0.0,0.0,0.0,0.0,0.0,0.0,0.0,0.0,0.0,0.0,0.0,0.0,0.0,0.0,0.0,0.0,0.0,0.0,0.0,0.0,0.0,0.0,0.0,0.0,0.0,0.0,0.0,0.0,0.0,0.0,0.0,0.0,0.0,0.0,0.0,0.0,0.0,0.204,0.2307,0.2578,0.0,0.0,0.0,0.0,0.0,0.0,0.3804,0.3953,0.0,0.0,0.0,0.0,0.0,0.0,0.0,0.0,0.0,0.0,0.0,0.0,0.0,0.0,0.0,0.0,0.0,0.0,0.0,0.0,0.0,0.0,0.0,0.0,0.0,0.0,0.0,0.0,0.0,0.0,0.0,0.0,0.0,0.0,0.0,0.0,0.0,0.0,0.0,0.0,0.0,0.0,0.0,0.0,0.0,0.0,0.0,0.0,0.0,0.0,0.0,0.0,0.0,0.0,0.0,-0.8511,-0.9266,-0.9845,-1.0185,-1.0498,-1.0458,-1.0031,-0.8909,-0.8077,0.0,0.0,0.0,0.0,0.0,0.0,0.0,0.0,0.0,0.0,0.0,0.0,0.0,0.0,0.0,0.0,0.0,0.0,0.0,0.0,0.0,0.0,0.0,0.0,0.0,0.0,0.0,0.0,0.0,0.0,0.0,0.0,0.0,0.0,0.0,0.0,0.0,0.0,0.0,0.0,0.0,0.2244,0.2542,0.278,0.0,0.0,0.0,0.0,0.3787,0.3894,0.0,0.0,0.0,0.0,0.0,0.0,0.0,0.0,0.0,0.0,0.0,0.0,0.0,0.0,0.0,0.0,0.0,0.0,0.0,0.0,0.0,0.0,0.0,0.0,0.0,0.0,0.0,0.0,0.0,0.0,0.0,0.0,0.0,0.0,0.0,0.0,0.0,0.0,0.0,0.0,0.0,0.0,0.0,0.0,0.0,0.0,0.0,0.0,0.0,0.0,0.0,0.0,0.0,0.0,0.0,0.0,-0.8575,-0.8984,-0.9382,-0.9843,-0.9783,-0.9561,-0.9171,-0.842,-0.7788,0.0,0.0,0.0,0.0,0.0,0.0,0.0,0.0,0.0,0.0,0.0,0.0,0.0,0.0,0.0,0.0,0.0,0.0,0.0,0.0,0.0,0.0,0.0,0.0,0.0,0.0,0.0,0.0,0.0,0.0,0.0,0.0,0.0,0.0,0.0,0.0,0.0,0.0,0.0,0.0,0.0,0.1982,0.2142,0.2475,0.2792,0.0,0.0,0.3505,0.3551,0.3894,0.0,0.0,0.0,0.0,0.0,0.0,0.0,0.0,0.0,0.0,0.0,0.0,0.0,0.0,0.0,0.0,0.0,0.0,0.0,0.0,0.0,0.0,0.0,0.0,0.0,0.0,0.0,0.0,0.0,0.0,0.0,0.0,0.0,0.0,0.0,0.0,0.0,0.0,0.0,0.0,0.0,0.0,0.0,0.0,0.0,0.0,0.0,0.0,0.0,0.0,0.0,0.0,0.0,0.0,0.0,-0.8212,-0.8471,-0.874,-0.8967,-0.9224,-0.9278,-0.9098,-0.8679,-0.8262,-0.7818,0.0,0.0,0.0,0.0,0.0,0.0,0.0,0.0,0.0,0.0,0.0,0.0,0.0,0.0,0.0,0.0,0.0,0.0,0.0,0.0,0.0,0.0,0.0,0.0,0.0,0.0,0.0,0.0,0.0,0.0,0.0,0.0,0.0,0.0,0.0,0.0,0.0,0.0,0.0,0.0,0.0,0.0,0.2023,0.2367,0.0,0.0,0.0,0.3227,0.3309,0.0,0.0,0.0,0.0,0.0,0.0,0.0,0.0,0.0,0.0,0.0,0.0,0.0,0.0,0.0,0.0,0.0,0.0,0.0,0.0,0.0,0.0,0.0,0.0,0.0,0.0,0.0,0.0,0.0,0.0,0.0,0.0,0.0,0.0,0.0,0.0,0.0,0.0,0.0,0.0,0.0,0.0,0.0,0.0,0.0,0.0,0.0,0.0,0.0,0.0,0.0,0.0,0.0,0.0,0.0,0.0,0.0,-0.8365,-0.8587,-0.873,-0.8751,-0.889,-0.8773,-0.8404,-0.8207,0.0,0.0,0.0,0.0,0.0,0.0,0.0,0.0,0.0,0.0,0.0,0.0,0.0,0.0,0.0,0.0,0.0,0.0,0.0,0.0,0.0,0.0,0.0,0.0,0.0,0.0,0.0,-0.1074,0.0,0.0,0.0,0.0,0.0,0.0,0.0,0.0,0.0,0.0,0.0,0.0,0.0,0.0,0.172,0.1882,0.2188,0.2452,0.0,0.0,0.2978,0.3104,0.3216,0.3402,0.0,0.0,0.0,0.0,0.0,0.0,0.0,0.0,0.0,0.0,0.0,0.0,0.0,0.0,0.0,0.0,0.0,0.0,0.0,0.0,0.0,0.0,0.0,0.0,0.0,0.0,0.0,0.0,0.0,0.0,0.0,0.0,0.0,0.0,0.0,0.0,0.0,0.0,0.0,0.0,0.0,0.0,0.0,0.0,0.0,0.0,0.0,0.0,0.0,0.0,0.0,0.0,0.0,0.0,0.0,-0.8301,-0.8572,-0.8663,-0.8606,-0.8568,-0.8493,-0.8395,-0.8271,-0.7996,0.0,0.0,0.0,0.0,0.0,0.0,0.0,0.0,0.0,0.0,0.0,0.0,0.0,0.0,0.0,0.0,0.0,0.0,0.0,0.0,0.0,0.0,0.0,0.0,0.0,0.0,0.0,0.0,0.0,0.0,0.0,0.0,0.0,0.0,0.0,0.0,0.0,0.0,0.0,0.0,0.0,0.1408,0.1582,0.192,0.2226,0.0,0.0,0.2768,0.2886,0.3047,0.3168,0.3326,0.0,0.0,0.0,0.0,0.0,0.0,0.0,0.0,0.0,0.0,0.0,0.0,0.0,0.0,0.0,0.0,0.0,0.0,0.0,0.0,0.0,0.0,0.0,0.0,0.0,0.0,0.0,0.0,0.0,0.0,0.0,0.0,0.0,0.0,0.0,0.0,0.0,0.0,0.0,0.0,0.0,0.0,0.0,0.0,0.0,0.0,0.0,0.0,0.0,0.0,0.0,0.0,0.0,-0.8673,-0.8792,-0.8642,-0.8597,-0.867,-0.8648,-0.8424,-0.8044,-0.8461,-0.8354,0.0,0.0,0.0,0.0,0.0,0.0,0.0,0.0,0.0,0.0,0.0,0.0,0.0,0.0,0.0,0.0,0.0,0.0,0.0,0.0,0.0,0.0,0.0,0.0,0.0,0.0,0.0,0.0,-0.0872,-0.0746,-0.0872,0.0,0.0,0.0,0.0,0.0,0.0,0.0,0.0,0.0,0.0,0.0984,0.1147,0.1711,0.0,0.0,0.2539,0.2868,0.2673,0.2879,0.3087,0.3219,0.3328,0.0,0.0,0.0,0.0,0.0,0.0,0.0,0.0,0.0,0.0,0.0,0.0,0.0,0.0,0.0,0.0,0.0,0.0,0.0,0.0,0.0,0.0,0.0,0.0,0.0,0.0,0.0,0.0,0.0,0.0,0.0,0.0,0.0,0.0,0.0,0.0,0.0,0.0,0.0,0.0,0.0,0.0,0.0,0.0,0.0,0.0,0.0,0.0,0.0,0.0,0.0,0.0,-0.9136,-0.9282,-0.8904,-0.8713,-0.869,-0.8831,-0.8674,-0.8208,-0.8905,-0.8931,0.0,0.0,0.0,0.0,0.0,0.0,0.0,0.0,0.0,0.0,0.0,0.0,0.0,0.0,0.0,0.0,0.0,0.0,0.0,0.0,0.0,0.0,0.0,0.0,0.0,0.0,0.0,0.0,-0.0972,-0.0895,-0.1093,0.0,0.0,0.0,0.0,0.0,0.0,0.0,0.0,0.0,0.0,0.0528,0.0637,0.1169,0.1582,0.1539,0.2087,0.2452,0.2384,0.2536,0.2751,0.3015,0.0,0.0,0.0,0.0,0.0,0.0,0.0,0.0,0.0,0.0,0.0,0.0,0.0,0.0,0.0,0.0,0.0,0.0,0.0,0.0,0.0,0.0,0.0,0.0,0.0,0.0,0.0,0.0,0.0,0.0,-1.3018,0.0,0.0,0.0,0.0,0.0,0.0,0.0,0.0,0.0,0.0,0.0,0.0,0.0,0.0,0.0,0.0,0.0,0.0,0.0,0.0,0.0,0.0,-0.9701,-0.9697,-0.9369,-0.9032,-0.8742,-0.9146,-0.9235,-0.8994,-0.9637,-0.975,-0.9241,0.0,0.0,0.0,0.0,0.0,0.0,0.0,0.0,0.0,0.0,0.0,0.0,0.0,0.0,0.0,0.0,0.0,0.0,0.0,0.0,0.0,0.0,0.0,0.0,0.0,0.0,-0.133,-0.1182,-0.1171,0.0,0.0,0.0,0.0,0.0,0.0,0.0,0.0,0.0,0.0,-0.0282,0.0018,0.0018,0.0267,0.069,0.1304,0.1262,0.1341,0.1913,0.1952,0.2106,0.0,0.0,0.0,0.0,0.0,0.0,0.0,0.0,0.0,0.0,0.0,0.0,0.0,0.0,0.0,0.0,0.0,0.0,0.0,0.0,0.0,0.0,0.0,0.0,0.0,0.0,0.0,-1.493,-1.5049,0.0,0.0,0.0,0.0,0.0,0.0,0.0,0.0,0.0,0.0,0.0,-1.5276,-1.5691,0.0,0.0,0.0,0.0,0.0,0.0,0.0,0.0,0.0,0.0,0.0,0.0,-1.0719,-1.0628,-1.0081,-0.9836,-0.989,-0.9788,-0.9581,-0.9288,-1.0088,-1.0128,-0.9308,0.0,0.0,0.0,0.0,0.0,0.0,0.0,0.0,0.0,0.0,0.0,0.0,0.0,0.0,0.0,0.0,0.0,0.0,0.0,0.0,0.0,0.0,0.0,0.0,0.0,-0.1693,0.0,0.0,0.0,0.0,0.0,0.0,0.0,0.0,0.0,0.0,0.0,-0.1107,-0.1043,-0.0794,-0.0565,-0.0473,-0.0235,0.006,0.0,0.0,0.0,0.0,0.0,0.0,0.0,0.0,0.0,0.0,0.0,0.0,0.0,0.0,0.5189,0.5671,0.5896,0.6148,0.6667,0.0,0.0,0.0,0.0,0.0,0.0,0.0,0.0,0.0,0.0,0.0,0.0,0.0,0.0,-1.6363,0.0,-1.6446,0.0,0.0,0.0,0.0,0.0,0.0,0.0,0.0,-1.6519,-1.6825,-1.6863,-1.7255,-1.722,0.0,-1.6549,-1.5827,0.0,0.0,0.0,0.0,0.0,0.0,0.0,0.0,-1.1568,-1.1462,-1.0937,-1.0676,-1.0731,-1.0643,-1.0395,-0.9991,-1.0513,-1.0293,-0.9172,-0.839,-0.789,0.0,0.0,0.0,0.0,0.0,0.0,0.0,0.0,0.0,0.0,0.0,0.0,0.0,0.0,0.0,0.0,0.0,0.0,0.0,0.0,0.0,0.0,0.0,-0.1684,0.0,0.0,0.0,0.0,0.0,0.0,0.0,0.0,0.0,-0.1885,-0.1676,-0.1509,-0.1444,-0.1213,-0.1034,-0.1035,0.0,0.0,0.0,0.0,0.0,0.0,0.0,0.0993,0.1223,0.1533,0.1926,0.2451,0.2998,0.35,0.39,0.0,0.0,0.5535,0.5694,0.587,0.6474,0.6598,0.6695,0.6853,0.6916,0.6981,0.0,0.0,0.0,0.0,0.0,0.0,0.0,0.0,-1.8308,-1.8052,0.0,-1.8288,0.0,0.0,0.0,0.0,0.0,-1.6999,0.0,0.0,-1.8724,-1.8881,-1.8802,-1.8828,-1.8828,-1.8789,-1.8042,-1.7434,-1.6888,-1.5585,0.0,0.0,0.0,0.0,0.0,0.0,-1.2263,-1.23,-1.195,-1.1587,-1.1309,-1.167,-1.1595,-1.105,-1.0949,-1.0291,-0.8994,-0.9282,-0.9007,-0.8003,-0.7622,0.0,0.0,0.0,0.0,0.0,0.0,0.0,0.0,0.0,0.0,0.0,0.0,0.0,0.0,0.0,0.0,0.0,0.0,0.0,0.0,-0.1995,0.0,0.0,0.0,0.0,0.0,0.0,0.0,0.0,0.0,0.0,-0.2119,-0.182,-0.1713,-0.1909,0.0,0.0,0.0,0.0,-0.0684,-0.1061,-0.1259,-0.1104,-0.0451,-0.0059,0.0294,0.0683,0.0,0.0,0.208,0.2319,0.2584,0.3024,0.3308,0.3874,0.5354,0.5417,0.5417,0.5879,0.5809,0.5673,0.5865,0.6019,0.6046,-2.2257,0.0,0.0,0.0,0.0,-1.9306,-1.9551,-2.0072,-1.9925,-1.9844,-1.9821,-1.9718,0.0,0.0,0.0,0.0,0.0,0.0,-1.8468,-1.8709,-1.9298,-1.9527,-1.9506,-1.9945,-1.9932,-1.9517,-1.9264,-1.8887,-1.8338,-1.7871,-1.6683,-1.4853,0.0,0.0,0.0,0.0,-1.3754,-1.3927,-1.3131,-1.2692,-1.2705,-1.2088,-1.1728,-1.164,-1.1347,-1.0988,-1.0602,-0.988,-0.933,-0.8915,-0.7759,0.0,0.0,0.0,0.0,0.0,0.0,0.0,0.0,0.0,0.0,0.0,0.0,0.0,0.0,0.0,0.0,0.0,0.0,0.0,-0.3246,-0.2437,-0.2087,0.0,0.0,0.0,0.0,0.0,0.0,0.0,0.0,0.0,-0.3099,-0.2627,-0.2359,0.0,0.0,-0.2203,-0.214,-0.1645,-0.1405,-0.1697,-0.197,0.0,-0.1384,-0.0881,-0.0469,-0.0117,0.0562,0.1267,0.1825,0.207,0.239,0.3052,0.3293,0.3691,0.4522,0.4704,0.4857,0.5343,0.5444,0.5514,0.5872,0.5967,0.6091,-2.5748,-2.3525,-2.1753,-2.1351,-2.1874,-2.1592,-2.1859,-2.2456,-2.2456,-2.2196,-2.1773,-2.1783,-2.1234,-2.0265,-1.9741,0.0,0.0,0.0,-1.9913,-2.0248,-2.0637,-2.0832,-2.0845,-2.0975,-2.0819,-2.0479,-2.0195,-1.9697,-1.8898,-1.9056,-1.8183,-1.6384,0.0,0.0,-1.5018,-1.4732,-1.4657,-1.4782,-1.4199,-1.3877,-1.3835,-1.2824,-1.2224,-1.2006,-1.1689,-1.1518,-1.1559,-1.0888,-1.0394,-1.0203,-0.8734,-0.7309,0.0,0.0,0.0,0.0,0.0,0.0,0.0,0.0,0.0,0.0,0.0,-0.6123,-0.5971,0.0,0.0,0.0,-0.4064,-0.3635,-0.3249,-0.277,0.0,0.0,0.0,0.0,0.0,0.0,0.0,-0.4383,-0.4215,-0.4004,-0.3873,-0.3637,-0.333,-0.2956,-0.2872,-0.2754,-0.2566,0.0,-0.2023,-0.2181,-0.2447,-0.2483,-0.1959,-0.1529,-0.1096,-0.0661,-0.0106,0.0521,0.1068,0.1386,0.1786,0.2455,0.2857,0.3217,0.3744,0.3839,0.4095,0.4847,0.507,0.521,0.5474,0.5647,0.5841,-2.93,-2.8184,-2.4457,-2.3709,-2.4887,-2.4395,-2.4603,-2.537,-2.5384,-2.4736,-2.3747,-2.4135,-2.3346,-2.1686,-2.1152,0.0,-2.1352,-2.1392,-2.1766,-2.2442,-2.2415,-2.2414,-2.2387,-2.1865,-2.1577,-2.1472,-2.0925,-2.0079,-1.9097,-1.946,-1.9175,-1.8257,-1.7489,-1.6566,-1.5486,-1.5364,-1.528,-1.5139,-1.5152,-1.5037,-1.4704,-1.3746,-1.2925,-1.2346,-1.2025,-1.1911,-1.2018,-1.2034,-1.1874,-1.157,-1.0182,-0.8059,-0.5365,0.0,0.0,0.0,0.0,0.0,0.0,0.0,0.0,0.0,0.0,0.0,0.0,0.0,0.0,0.0,-0.4106,0.0,-0.3148,-0.3211,0.0,0.0,0.0,-0.3823,-0.3374,-0.4017,-0.4804,-0.561,0.0,0.0,-0.4516,-0.4728,-0.4521,-0.3528,-0.3369,-0.3266,-0.3052,-0.2803,-0.2608,-0.2682,-0.2833,-0.279,-0.2373,-0.2024,-0.1638,-0.1119,-0.0855,-0.0471,0.0067,0.0492,0.0961,0.1674,0.2146,0.2591,0.2901,0.3028,0.3322,0.4282,0.4574,0.4714,0.4823,0.5079,0.5334,-3.1782,-3.097,-2.9347,-2.7815,-2.6387,-2.624,-2.6172,-2.6138,-2.6152,-2.5833,-2.5337,-2.5232,-2.4572,-2.3551,-2.3624,-2.3339,-2.2821,-2.3071,-2.3018,-2.2711,-2.2496,-2.2401,-2.2415,-2.2565,-2.2233,-2.1538,-2.1689,-2.1276,-2.0319,-2.0388,-2.01,-1.9433,-1.9217,-1.8484,-1.7282,-1.6809,-1.6478,-1.6304,-1.5906,-1.5436,-1.4845,-1.3968,-1.3489,-1.3417,-1.2708,-1.2343,-1.2377,-1.2274,-1.2017,-1.1601,-1.046,-0.9508,-0.8849,-0.7416,0.0,0.0,0.0,0.0,0.0,0.0,0.0,0.0,0.0,-0.7593,-0.7434,0.0,-0.6946,0.0,-0.5098,-0.446,-0.5135,-0.4806,0.0,0.0,-0.5035,-0.4923,-0.4402,-0.4873,-0.5355,-0.5663,-0.5672,-0.5632,-0.5558,-0.5616,-0.5491,-0.5144,-0.4739,-0.4381,-0.4016,-0.3735,-0.3599,-0.3688,-0.3673,-0.3602,-0.3296,-0.2647,-0.2059,-0.1779,-0.1325,-0.0851,-0.0425,0.0112,0.0671,0.1319,0.1854,0.2279,0.2549,0.2812,0.3031,0.3296,0.3649,0.4114,0.4535,0.4797,0.4992,-3.4482,-3.3381,-3.2749,-3.1457,-2.9773,-2.8905,-2.8448,-2.8266,-2.8266,-2.8009,-2.7498,-2.6706,-2.62,-2.5888,-2.5673,-2.5256,-2.4764,-2.5216,-2.5094,-2.4491,-2.4498,-2.4182,-2.3604,-2.3632,-2.3151,-2.2246,-2.2272,-2.1935,-2.1258,-2.1099,-2.0723,-2.0075,-2.0158,-1.9734,-1.8741,-1.7913,-1.726,-1.6846,-1.6685,-1.6161,-1.5226,-1.4992,-1.4602,-1.409,-1.3541,-1.324,-1.3204,-1.3106,-1.2808,-1.2278,-1.1313,-1.019,-0.8872,-0.8285,-0.7848,0.0,0.0,0.0,0.0,0.0,0.0,0.0,0.0,0.0,0.0,0.0,-0.7799,-0.7253,-0.6029,-0.5479,-0.6017,-0.5782,-0.5593,-0.5615,-0.5736,-0.5726,-0.5465,-0.5719,-0.6026,-0.6283,-0.6248,-0.6203,-0.6142,-0.6208,-0.6167,-0.5987,-0.5812,-0.5472,-0.4861,-0.4542,-0.438,-0.4296,-0.4234,-0.4032,-0.3755,-0.3018,-0.2448,-0.2322,-0.1886,-0.1435,-0.112,-0.0626,-0.0089,0.0447,0.0983,0.1497,0.1901,0.2146,0.2366,0.2702,0.2993,0.3435,0.4023,0.4316,0.4561,-3.6832,-3.5477,-3.497,-3.4345,-3.3529,-3.1838,-3.0994,-3.0774,-3.0657,-3.0308,-2.9653,-2.8364,-2.7926,-2.8142,-2.7467,-2.7014,-2.6811,-2.7403,-2.737,-2.6805,-2.7029,-2.6466,-2.5282,-2.5008,-2.4306,-2.3296,-2.3018,-2.26,-2.2045,-2.18,-2.1356,-2.0732,-2.0808,-2.0533,-1.9917,-1.892,-1.8,-1.7235,-1.7511,-1.708,-1.5923,-1.6257,-1.5844,-1.4646,-1.4361,-1.4231,-1.4165,-1.4081,-1.3806,-1.3238,-1.2425,-1.0795,-0.8322,-0.9283,-0.9027,0.0,-0.8887,0.0,0.0,0.0,0.0,0.0,0.0,0.0,0.0,-0.9065,-0.8689,-0.7947,-0.7052,-0.6566,-0.6579,-0.6544,-0.641,-0.6198,-0.6299,-0.6427,-0.6482,-0.6556,-0.6714,-0.7063,-0.6806,-0.658,-0.6503,-0.6659,-0.6649,-0.6478,-0.658,-0.6401,-0.5698,-0.5331,-0.5054,-0.4742,-0.4634,-0.4458,-0.3926,-0.3301,-0.2877,-0.2804,-0.2442,-0.2123,-0.1861,-0.1432,-0.0962,-0.0514,0.0045,0.0582,0.1165,0.1344,0.1634,0.2192,0.2529,0.2904,0.3476,0.3854,0.4082,-3.6971,-3.6937,-3.563,-3.488,-3.442,-3.4086,-3.3092,-3.169,-3.1161,-3.0733,-3.0351,-2.9566,-2.9261,-2.9289,-2.9159,-2.8781,-2.8303,-2.8598,-2.8367,-2.7725,-2.7417,-2.6877,-2.624,-2.6986,-2.6062,-2.3933,-2.494,-2.4539,-2.2796,-2.2635,-2.2487,-2.2327,-2.1856,-2.1301,-2.0699,0.0,0.0,0.0,-1.8418,-1.8045,-1.7339,-1.6926,-1.6325,-1.5499,-1.4957,0.0,-1.4425,-1.4362,-1.4231,-1.3979,-1.3261,0.0,0.0,0.0,0.0,0.0,0.0,0.0,0.0,0.0,0.0,0.0,-1.1637,-1.1184,-1.0388,-1.0178,-0.9909,-0.9395,-0.8716,-0.827,-0.8162,-0.7808,-0.7578,-0.7526,-0.7437,-0.7287,-0.7035,-0.7334,-0.7486,-0.7144,-0.7418,-0.7439,-0.7039,-0.6993,-0.7015,-0.6956,-0.6972,-0.6967,-0.677,-0.626,-0.5958,-0.586,-0.5422,-0.4961,-0.4433,-0.3924,-0.3527,-0.345,-0.2992,-0.2514,-0.2213,-0.1722,-0.1254,-0.0851,-0.0313,0.0179,0.0537,0.1007,0.1389,0.1521,0.2081,0.2726,0.3306,0.3612,0.3836,-3.8183,0.0,-3.6569,-3.5815,0.0,-3.5093,-3.4347,-3.3257,-3.2213,-3.1457,-3.1014,-3.0336,-3.0218,-3.0527,-3.0188,-2.9864,-2.9612,-3.0046,-2.9842,-2.9145,-2.8999,-2.8378,-2.7428,-2.799,-2.7157,-2.5229,-2.591,-2.552,-2.4072,-2.3572,-2.3147,-2.2746,-2.2205,-2.1739,-2.1361,-2.0999,-2.012,-1.8802,-1.899,-1.8778,-1.817,-1.8109,-1.7715,-1.6958,-1.65,0.0,0.0,0.0,0.0,0.0,0.0,0.0,0.0,0.0,0.0,-1.4045,-1.343,-1.3006,-1.2896,-1.2803,-1.2699,-1.26,-1.2477,-1.2036,-1.101,-1.0652,-1.0385,-1.0106,-0.9732,-0.9329,-0.8989,-0.873,-0.8448,-0.8094,-0.7996,-0.7783,-0.7434,-0.775,-0.8123,-0.8296,-0.8217,-0.7963,-0.7456,-0.7375,-0.7295,-0.7133,-0.7106,-0.7112,-0.7085,-0.6729,-0.6399,-0.6209,-0.5691,-0.5222,-0.4909,-0.4411,-0.3958,-0.376,-0.3379,-0.2937,-0.2477,-0.2039,-0.1633,-0.1231,-0.0806,-0.0447,-0.0179,0.0313,0.0784,0.1141,0.1611,0.2123,0.2657,0.3167,0.3593,-3.9524,-3.8662,-3.7523,-3.6799,-3.6337,-3.5753,-3.5232,-3.4711,0.0,0.0,0.0,-3.1285,-3.1345,-3.1795,-3.1285,-3.1031,-3.1061,-3.1452,-3.1275,-3.0655,-3.069,-3.0002,-2.8826,-2.8877,-2.8122,-2.6753,-2.6779,-2.6343,-2.5434,-2.4637,-2.3873,-2.3144,-2.2579,-2.2092,-2.1691,-2.1361,-2.0518,-1.9235,-1.9577,-1.9453,-1.8864,-1.9252,-1.9094,-1.832,-1.8059,-1.7541,-1.6763,-1.6797,-1.6415,-1.5479,-1.5596,-1.5579,-1.5285,-1.5058,-1.494,-1.4868,-1.461,-1.4292,-1.4022,-1.3833,-1.3615,-1.3378,-1.3083,-1.2525,-1.16,-1.1103,-1.0821,-1.0654,-1.0458,-1.0114,-0.9624,-0.9493,-0.9205,-0.86,-0.8527,-0.8359,-0.7997,-0.8201,-0.8751,-0.9336,-0.9064,-0.8458,-0.7836,-0.7857,-0.7737,-0.7386,-0.73,-0.7139,-0.7112,-0.6923,-0.6642,-0.6344,-0.5932,-0.5578,-0.5389,-0.4892,-0.4367,-0.4098,-0.3765,-0.3325,-0.2742,-0.24,-0.2085,-0.1569,-0.1366,-0.1121,-0.0764,-0.0314,0.0134,0.0784,0.1097,0.1387,0.1811,0.2524,0.317,-4.0071,-3.965,-3.8193,-3.7371,-3.7058,-3.6782,-3.6075,-3.5049,-3.3894,-3.3305,-3.3215,-3.3125,-3.3125,-3.3215,-3.3125,-3.308,-3.3036,-3.2452,-3.2109,-3.1961,-3.1324,-3.0616,-2.9925,-3.0294,-2.9594,-2.8068,-2.8253,-2.7852,-2.6803,-2.5924,-2.528,-2.4662,-2.3667,-2.2485,-2.138,-2.1229,-2.0966,-2.0451,-2.0492,-2.027,-1.9647,-1.9699,-1.9406,-1.8758,-1.8463,-1.8094,-1.7639,-1.6998,-1.665,-1.6631,-1.5756,-1.5595,-1.6234,-1.5821,-1.567,-1.5841,-1.5545,-1.5249,-1.5074,-1.4798,-1.4447,-1.4007,-1.3358,-1.2828,-1.2444,-1.2104,-1.1821,-1.1591,-1.1105,-1.0759,-1.0635,-1.0313,-1.0023,-0.991,-0.981,-0.9641,-0.9381,-0.9424,-0.9418,-0.9369,-0.9729,-0.9439,-0.823,-0.8348,-0.8446,-0.8084,-0.7729,-0.7482,-0.7219,-0.7058,-0.6918,-0.6701,-0.6566,-0.6372,-0.6054,-0.546,-0.4974,-0.4765,-0.4211,-0.3628,-0.3038,-0.2881,-0.2593,-0.1971,-0.1839,-0.157,-0.0944,-0.0516,-0.0246,0.0089,0.047,0.0805,0.0962,0.1563,0.2344,-4.0897,-4.0583,-3.9159,-3.8314,-3.7938,-3.7213,-3.6461,-3.5722,-3.5184,-3.4453,-3.3682,-3.3652,-3.3591,-3.3499,-3.3499,-3.3499,-3.3484,-3.3124,-3.275,-3.2407,-3.1961,-3.1397,-3.082,-3.0896,-3.0324,-2.9175,-2.9275,-2.8568,-2.7172,-2.671,-2.5922,-2.4766,-2.3565,-2.2366,-2.1293,-2.1204,-2.1033,-2.0699,-2.0699,-2.0594,-2.027,-2.0294,-2.009,-1.9722,-1.9501,-1.9042,-1.8375,-1.8185,-1.7865,-1.7252,-1.6792,-1.6634,-1.6748,-1.6332,-1.6128,-1.6247,-1.6082,-1.5827,-1.5406,-1.4954,-1.4488,-1.4013,-1.3679,-1.3305,-1.2848,-1.2473,-1.2125,-1.1841,-1.1544,-1.1291,-1.1039,-1.0798,-1.058,-1.0329,-1.0228,-1.02,-1.0178,-1.013,-1.0094,-1.0143,-1.0308,-0.9988,-0.8813,-0.8919,-0.8844,-0.8304,-0.7928,-0.7639,-0.744,-0.7246,-0.7058,-0.6923,-0.6788,-0.6647,-0.6453,-0.6035,-0.5545,-0.5089,-0.4681,-0.4126,-0.3504,-0.3295,-0.2932,-0.2395,-0.2239,-0.2127,-0.1679,-0.132,-0.1007,-0.0739,-0.0268,0.0089,0.0358,0.1071,0.2053,-4.1666,-4.1331,-4.0204,-3.9395,-3.8715,-3.7693,-3.6939,-3.643,-3.629,-3.5521,-3.4378,-3.4272,-3.4134,-3.3995,-3.3964,-3.3948,-3.3933,-3.3784,-3.3365,-3.2736,-3.2452,-3.2005,-3.1366,-3.122,-3.0807,-3.0249,-3.0059,-2.9159,-2.7853,-2.7454,-2.6353,-2.4582,-2.3336,-2.2262,-2.1295,-2.1149,-2.0972,-2.0699,-2.0699,-2.0699,-2.0699,-2.0699,-2.0662,-2.0524,-2.0322,-1.9838,-1.9146,-1.9187,-1.8821,-1.7955,-1.7682,-1.7418,-1.7179,-1.6666,-1.6402,-1.6402,-1.6402,-1.619,-1.5718,-1.5121,-1.4653,-1.4304,-1.4136,-1.3809,-1.3205,-1.29,-1.2447,-1.1958,-1.1783,-1.1593,-1.1322,-1.1217,-1.1055,-1.0726,-1.0668,-1.0754,-1.0796,-1.0725,-1.0675,-1.0865,-1.0858,-1.0473,-0.9695,-0.9473,-0.9213,-0.8463,-0.8047,-0.7887,-0.7681,-0.7381,-0.7192,-0.7058,-0.6923,-0.681,-0.6756,-0.6479,-0.6036,-0.5457,-0.5152,-0.4658,-0.4035,-0.3731,-0.3426,-0.2948,-0.2682,-0.2549,-0.2482,-0.2059,-0.1657,-0.1389,-0.0985,-0.0559,-0.0134,0.058,0.1606,-4.2148,-4.1614,-4.1403,-4.052,-3.9154,-3.8562,-3.785,-3.709,-3.6662,-3.6243,-3.573,-3.5617,-3.5461,-3.549,-3.5314,-3.525,-3.5205,-3.4698,-3.4069,-3.338,-3.2766,-3.2138,-3.1557,-3.138,-3.1263,-3.1071,-3.0452,-2.9912,-2.9405,-2.8356,-2.6761,-2.4704,-2.3524,-2.2483,-2.1524,-2.1025,-2.0737,-2.0699,-2.0699,-2.0699,-2.0699,-2.0699,-2.0687,-2.0687,-2.0359,-2.0105,-1.9851,-1.9214,-1.8898,-1.8912,-1.7781,-1.7251,-1.7501,-1.6864,-1.6402,-1.6402,-1.6402,-1.6353,-1.628,-1.5738,-1.5389,-1.5331,-1.4824,-1.4301,-1.3719,-1.3585,-1.3137,-1.2314,-1.1874,-1.1677,-1.1573,-1.1564,-1.1489,-1.1399,-1.1406,-1.148,-1.1458,-1.1487,-1.1346,-1.0912,-1.1237,-1.1045,-1.0003,-0.9918,-0.9729,-0.8718,-0.8501,-0.8242,-0.7783,-0.7488,-0.7354,-0.7192,-0.7058,-0.7058,-0.7009,-0.6686,-0.6374,-0.6185,-0.5683,-0.509,-0.4589,-0.4285,-0.4074,-0.3612,-0.3255,-0.2946,-0.2635,-0.2279,-0.2012,-0.1858,-0.1569,-0.1277,-0.0649,-0.0157,0.0536,-4.2441,-4.2164,-4.1743,-4.0861,-3.9672,-3.9134,-3.8393,-3.7514,-3.7002,-3.6492,-3.6005,-3.5784,-3.572,-3.5703,-3.5653,-3.5621,-3.5591,-3.5254,-3.4711,-3.4083,-3.3799,-3.3335,-3.2691,-3.2213,-3.1916,-3.1664,-3.1013,-3.0353,-2.9551,-2.8207,-2.649,-2.4733,-2.3892,-2.2858,-2.159,-2.1276,-2.1027,-2.0712,-2.0699,-2.0699,-2.0699,-2.0699,-2.0699,-2.0674,-2.0561,-2.0322,-2.0003,-1.9668,-1.9303,-1.8866,-1.8263,-1.7859,-1.7694,-1.7106,-1.6751,-1.674,-1.6516,-1.6402,-1.6402,-1.6159,-1.5858,-1.5536,-1.5287,-1.4874,-1.4274,-1.3854,-1.3334,-1.2814,-1.2274,-1.2019,-1.2212,-1.1888,-1.1591,-1.1591,-1.1591,-1.1591,-1.1591,-1.1591,-1.1494,-1.1361,-1.1472,-1.1244,-1.0322,-0.9874,-0.9532,-0.8976,-0.8784,-0.8468,-0.8249,-0.783,-0.7515,-0.7434,-0.7273,-0.7112,-0.7101,-0.6967,-0.6707,-0.6417,-0.6041,-0.5548,-0.4982,-0.4637,-0.4381,-0.4118,-0.3766,-0.3391,-0.3084,-0.2815,-0.2568,-0.2328,-0.2036,-0.1722,-0.1231,-0.0784,-0.0201,-4.2602,-4.2522,-4.2067,-4.1252,-4.027,-3.9772,-3.9072,-3.8185,-3.7344,-3.677,-3.6376,-3.597,-3.5872,-3.5929,-3.5761,-3.5671,-3.5671,-3.5587,-3.513,-3.4563,-3.4503,-3.4113,-3.3484,-3.3021,-3.2557,-3.2108,-3.1664,-3.0822,-2.9624,-2.814,-2.6623,-2.5368,-2.4354,-2.3326,-2.2247,-2.1786,-2.1315,-2.0949,-2.0791,-2.0699,-2.0699,-2.0699,-2.0699,-2.0699,-2.0687,-2.0423,-2.0016,-1.9965,-1.9591,-1.8813,-1.8667,-1.8387,-1.7875,-1.7318,-1.6955,-1.6825,-1.6563,-1.6402,-1.6402,-1.6402,-1.62,-1.5807,-1.5738,-1.5488,-1.4905,-1.435,-1.3994,-1.3761,-1.2926,-1.251,-1.2395,-1.1973,-1.1667,-1.1644,-1.1618,-1.1591,-1.1591,-1.1591,-1.1591,-1.1591,-1.1577,-1.1288,-1.0494,-0.9795,-0.9278,-0.9166,-0.8923,-0.8705,-0.8672,-0.8123,-0.7729,-0.7717,-0.7375,-0.7133,-0.7106,-0.7069,-0.6897,-0.6592,-0.6241,-0.5894,-0.5302,-0.5001,-0.4666,-0.4425,-0.4188,-0.388,-0.3505,-0.3258,-0.2948,-0.2704,-0.2415,-0.2101,-0.1813,-0.132,-0.1007,-4.2602,-4.2602,-4.257,-4.1993,-4.1022,-4.069,-4.0119,-3.9172,-3.7837,-3.7272,-3.7135,-3.6389,-3.6241,-3.6529,-3.5917,-3.5634,-3.5686,-3.5554,-3.516,-3.4608,-3.4563,-3.4143,-3.3529,-3.3455,-3.311,-3.2586,-3.2347,-3.1442,-2.99,-2.8613,-2.7627,-2.689,-2.497,-2.3891,-2.35,-2.2286,-2.1525,-2.1459,-2.1001,-2.0725,-2.0725,-2.0712,-2.0699,-2.0674,-2.0587,-2.0385,-2.0067,-1.9862,-1.9604,-1.9182,-1.8813,-1.8506,-1.8197,-1.7457,-1.6825,-1.6506,-1.6402,-1.6402,-1.6402,-1.6402,-1.6353,-1.6332,-1.628,-1.609,-1.5546,-1.5301,-1.5161,-1.5152,-1.3874,-1.2874,-1.2127,-1.1868,-1.1688,-1.1675,-1.1622,-1.1609,-1.1591,-1.1591,-1.1591,-1.1584,-1.1562,-1.1215,-1.0494,-0.9814,-0.9413,-0.9218,-0.9054,-0.8896,-0.8653,-0.8342,-0.8129,-0.7857,-0.7509,-0.7106,-0.7106,-0.7106,-0.6982,-0.6695,-0.6411,-0.6184,-0.5813,-0.5433,-0.5042,-0.4709,-0.4425,-0.4144,-0.388,-0.3527,-0.3129,-0.284,-0.2593,-0.2348,-0.2237,-0.1858,-0.1567,-4.2602,-4.2651,-4.3104,-4.2814,-4.2059,-4.171,-4.0721,-3.9298,-3.7961,-3.6992,-3.643,-3.6308,-3.6228,-3.6094,-3.6528,-3.6592,-3.6303,-3.5749,-3.537,-3.513,-3.513,-3.4996,-3.4771,-3.4337,-3.3961,-3.3584,-3.315,-3.2122,-3.0529,-2.9215,-2.8089,-2.7109,-2.5716,-2.4702,-2.3964,-2.3085,-2.2412,-2.206,-2.1498,-2.1223,-2.1158,-2.0883,-2.0699,-2.0699,-2.0662,-2.0537,-2.0322,-2.0067,-1.9681,-1.9078,-1.8774,-1.8398,-1.7913,-1.7335,-1.6825,-1.6459,-1.6402,-1.6402,-1.6402,-1.6402,-1.6402,-1.6402,-1.6402,-1.6322,-1.6069,-1.5728,-1.5423,-1.5177,-1.4538,-1.3607,-1.2752,-1.2142,-1.1744,-1.1723,-1.1676,-1.1662,-1.1626,-1.1591,-1.1591,-1.1562,-1.1423,-1.1063,-1.0617,-1.0041,-0.9623,-0.9358,-0.9211,-0.9028,-0.8778,-0.8573,-0.8342,-0.8103,-0.7702,-0.7354,-0.7354,-0.7192,-0.7025,-0.6747,-0.6486,-0.6155,-0.5808,-0.5519,-0.5164,-0.4823,-0.4578,-0.432,-0.4012,-0.3707,-0.3331,-0.3106,-0.2837,-0.266,-0.2593,-0.2237,-0.2061,-4.2602,-4.2683,-4.312,-4.2928,-4.2302,-4.2126,-4.1261,-3.9799,-3.8659,-3.7667,-3.7021,-3.6854,-3.6678,-3.6658,-3.7173,-3.7364,-3.7154,-3.6304,-3.5833,-3.5804,-3.5594,-3.5624,-3.5699,-3.513,-3.4586,-3.4006,-3.3171,-3.2192,-3.1098,-2.9525,-2.8408,-2.7722,-2.6367,-2.5339,-2.458,-2.3856,-2.3158,-2.2452,-2.1799,-2.1446,-2.1224,-2.0883,-2.0699,-2.0699,-2.0699,-2.0599,-2.041,-2.0144,-1.9733,-1.9198,-1.8907,-1.8479,-1.7749,-1.7251,-1.6825,-1.6459,-1.6402,-1.6402,-1.6402,-1.6402,-1.6402,-1.6402,-1.6402,-1.6402,-1.6353,-1.6038,-1.5723,-1.549,-1.5029,-1.4377,-1.3775,-1.2987,-1.2273,-1.1878,-1.1736,-1.1723,-1.1623,-1.1618,-1.1615,-1.1547,-1.1313,-1.1026,-1.0748,-1.0283,-0.991,-0.9631,-0.9446,-0.9185,-0.9014,-0.862,-0.8415,-0.8315,-0.8162,-0.7863,-0.7676,-0.7429,-0.7007,-0.6696,-0.6538,-0.62,-0.5879,-0.5593,-0.53,-0.4958,-0.467,-0.4429,-0.4148,-0.3865,-0.3619,-0.3394,-0.317,-0.297,-0.2815,-0.264,-0.244,-4.2602,-4.2619,-4.2619,-4.2334,-4.1834,-4.2028,-4.1736,-4.0794,-3.98,-3.9118,-3.8675,-3.7937,-3.7629,-3.8018,-3.7734,-3.7808,-3.7888,-3.703,-3.6537,-3.6447,-3.5923,-3.5968,-3.6417,-3.5818,-3.4951,-3.3991,-3.2505,-3.1873,-3.1754,-2.986,-2.8813,-2.85,-2.6947,-2.5911,-2.556,-2.455,-2.3563,-2.2622,-2.1943,-2.1342,-2.0804,-2.0764,-2.0699,-2.0699,-2.0699,-2.0574,-2.0258,-2.0093,-1.981,-1.9447,-1.9223,-1.8706,-1.7749,-1.7224,-1.6835,-1.6488,-1.6402,-1.6402,-1.6402,-1.6402,-1.6402,-1.6402,-1.6402,-1.6402,-1.6392,-1.6343,-1.6244,-1.601,-1.5622,-1.519,-1.4914,-1.4231,-1.3249,-1.2148,-1.1947,-1.1865,-1.1701,-1.1638,-1.1591,-1.1555,-1.1335,-1.1136,-1.0946,-1.0594,-1.0179,-0.9984,-0.9715,-0.9404,-0.9218,-0.8672,-0.8302,-0.8415,-0.8374,-0.8076,-0.7863,-0.7614,-0.7078,-0.6637,-0.6533,-0.631,-0.5984,-0.5689,-0.5515,-0.521,-0.4937,-0.4696,-0.4316,-0.4034,-0.3862,-0.366,-0.3458,-0.3258,-0.3129,-0.2951,-0.2707,-4.2602,-4.2667,-4.3136,-4.2816,-4.2044,-4.2359,-4.1759,-4.0366,-3.9518,-3.891,-3.8488,-3.8196,-3.7958,-3.7958,-3.8407,-3.8392,-3.7749,-3.7704,-3.7569,-3.7165,-3.6881,-3.6881,-3.6956,-3.6462,-3.5639,-3.4548,-3.3333,-3.2782,-3.2547,-3.1251,-3.0283,-2.9489,-2.8261,-2.6955,-2.5779,-2.5035,-2.4325,-2.3563,-2.2609,-2.2034,-2.1786,-2.1093,-2.0712,-2.0699,-2.0699,-2.0624,-2.0524,-2.0105,-1.9811,-1.9656,-1.8975,-1.817,-1.739,-1.7084,-1.6797,-1.6449,-1.6402,-1.6402,-1.6402,-1.6402,-1.6402,-1.6402,-1.6402,-1.6402,-1.6402,-1.6402,-1.6374,-1.6306,-1.6133,-1.5874,-1.5308,-1.4944,-1.4112,-1.2797,-1.2467,-1.2164,-1.1826,-1.1646,-1.1586,-1.1584,-1.1496,-1.1357,-1.1151,-1.0828,-1.0572,-1.0207,-0.9962,-0.9724,-0.9228,-0.9041,-0.8692,-0.8487,-0.8295,-0.8076,-0.783,-0.7605,-0.7259,-0.6872,-0.6717,-0.6474,-0.6128,-0.583,-0.5676,-0.5422,-0.5174,-0.4871,-0.4491,-0.4272,-0.4118,-0.3924,-0.3726,-0.3571,-0.3464,-0.3217,-0.2929,-4.2602,-4.2651,-4.3088,-4.2832,-4.2173,-4.2376,-4.1728,-4.0509,-3.9893,-3.9322,-3.8868,-3.8833,-3.8612,-3.8377,-3.9029,-3.8895,-3.8242,-3.8616,-3.8556,-3.8093,-3.7554,-3.7539,-3.7515,-3.658,-3.5718,-3.482,-3.368,-3.3078,-3.302,-3.1843,-3.0729,-2.9673,-2.8831,-2.7656,-2.6235,-2.5563,-2.4936,-2.4083,-2.3171,-2.2505,-2.1994,-2.1355,-2.0896,-2.0738,-2.0699,-2.0699,-2.0662,-2.0207,-1.9914,-1.9669,-1.8857,-1.7925,-1.7112,-1.7011,-1.6825,-1.6477,-1.6402,-1.6402,-1.6402,-1.6402,-1.6402,-1.6402,-1.6402,-1.6402,-1.6402,-1.6402,-1.6402,-1.6402,-1.6353,-1.6231,-1.5805,-1.5499,-1.4833,-1.3719,-1.3195,-1.2685,-1.2105,-1.1813,-1.1725,-1.1716,-1.1677,-1.1543,-1.1349,-1.1129,-1.0968,-1.0528,-1.025,-1.0008,-0.9542,-0.9441,-0.9016,-0.8474,-0.791,-0.775,-0.7696,-0.754,-0.7372,-0.7164,-0.6989,-0.6651,-0.6303,-0.604,-0.5837,-0.547,-0.5203,-0.4954,-0.4618,-0.453,-0.4399,-0.4206,-0.3968,-0.3751,-0.3553,-0.3328,-0.3081,-4.2571,-4.2539,-4.2571,-4.2382,-4.2077,-4.2061,-4.167,-4.1107,-4.0786,-4.0328,-3.994,-3.9632,-3.9499,-3.9364,-3.9358,-3.9284,-3.9358,-3.929,-3.9305,-3.8925,-3.8252,-3.7908,-3.7953,-3.6529,-3.5545,-3.4883,-3.3691,-3.3024,-3.2959,-3.1816,-3.0405,-2.9619,-2.8991,-2.7917,-2.6837,-2.6138,-2.5206,-2.4295,-2.3537,-2.2662,-2.1734,-2.1485,-2.1237,-2.0738,-2.0699,-2.0674,-2.0624,-2.0283,-1.9965,-1.9643,-1.8789,-1.7913,-1.7196,-1.7011,-1.6825,-1.642,-1.6402,-1.6402,-1.6402,-1.6402,-1.6402,-1.6402,-1.6402,-1.6402,-1.6402,-1.6402,-1.6402,-1.6402,-1.6402,-1.6402,-1.6265,-1.6063,-1.5462,-1.4713,-1.382,-1.3101,-1.2463,-1.2099,-1.1966,-1.1896,-1.1841,-1.1763,-1.1602,-1.1343,-1.1188,-1.0916,-1.0507,-1.0167,-0.9931,-0.9664,-0.9325,-0.8718,-0.801,-0.775,-0.7803,-0.7711,-0.7528,-0.7222,-0.7085,-0.6892,-0.6471,-0.6202,-0.5985,-0.5613,-0.5306,-0.5062,-0.4884,-0.4814,-0.4639,-0.4381,-0.4144,-0.3888,-0.3651,-0.3433,-0.3257,-4.2077,-4.1883,-4.2142,-4.2045,-4.1753,-4.172,-4.1489,-4.107,-4.0643,-4.0296,-3.9996,-3.9803,-3.9589,-3.9409,-3.9388,-3.9388,-3.9388,-3.9388,-3.9388,-3.9343,-3.9074,-3.8469,-3.7904,-3.6903,-3.6028,-3.5353,-3.4341,-3.3924,-3.3917,-3.2779,-3.1799,-3.0979,-2.9885,-2.8775,-2.7406,-2.6321,-2.5484,-2.47,-2.3707,-2.2895,-2.2243,-2.1734,-2.1224,-2.0764,-2.0712,-2.0649,-2.0537,-2.0042,-1.9526,-1.9069,-1.859,-1.7913,-1.7084,-1.6983,-1.6825,-1.6477,-1.6402,-1.6402,-1.6402,-1.6402,-1.6402,-1.6402,-1.6402,-1.6402,-1.6402,-1.6402,-1.6402,-1.6402,-1.6402,-1.6402,-1.6335,-1.6181,-1.5688,-1.4955,-1.3979,-1.3084,-1.2493,-1.2303,-1.2281,-1.1971,-1.1982,-1.1919,-1.181,-1.1658,-1.1471,-1.1144,-1.0726,-1.0255,-1.0089,-0.9717,-0.9354,-0.9021,-0.8494,-0.815,-0.7937,-0.7851,-0.7631,-0.7283,-0.7164,-0.7149,-0.6701,-0.628,-0.6074,-0.583,-0.5608,-0.535,-0.5241,-0.5149,-0.4888,-0.46,-0.4298,-0.4016,-0.3817,-0.3613,-0.3419,-4.1916,-4.1621,-4.1818,-4.1785,-4.1588,-4.1472,-4.1272,-4.1037,-4.0608,-4.0277,-4.0101,-3.9925,-3.9747,-3.9517,-3.946,-3.9388,-3.9373,-3.9228,-3.9156,-3.9068,-3.8745,-3.8282,-3.7703,-3.7075,-3.6339,-3.566,-3.4679,-3.4094,-3.3773,-3.3043,-3.2044,-3.0922,-3.0161,-2.9098,-2.7884,-2.6485,-2.568,-2.5171,-2.4204,-2.3287,-2.2753,-2.2178,-2.1603,-2.1106,-2.0857,-2.0637,-2.0436,-1.9926,-1.9265,-1.867,-1.8321,-1.7843,-1.6909,-1.6927,-1.6825,-1.642,-1.6402,-1.6402,-1.6402,-1.6402,-1.6402,-1.6402,-1.6402,-1.6402,-1.6402,-1.6402,-1.6402,-1.6402,-1.6402,-1.6402,-1.6345,-1.6134,-1.5633,-1.4895,-1.397,-1.3184,-1.2658,-1.257,-1.2468,-1.2298,-1.2199,-1.2157,-1.202,-1.1965,-1.1781,-1.1533,-1.1138,-1.0674,-1.0288,-0.9807,-0.9387,-0.912,-0.8877,-0.8553,-0.8129,-0.7937,-0.7723,-0.7375,-0.7144,-0.7179,-0.687,-0.6409,-0.62,-0.6017,-0.583,-0.5636,-0.5442,-0.529,-0.5111,-0.4806,-0.4451,-0.4178,-0.395,-0.3553,-0.3404,-4.1818,-4.1489,-4.1522,-4.1555,-4.1489,-4.1223,-4.1138,-4.1037,-4.0662,-4.0436,-4.0277,-4.0066,-3.9854,-3.9681,-3.9373,-3.9352,-3.9388,-3.8958,-3.876,-3.8538,-3.8136,-3.7702,-3.7704,-3.7106,-3.6484,-3.5841,-3.4798,-3.413,-3.3583,-3.2705,-3.1571,-3.0652,-2.9855,-2.9074,-2.8203,-2.6752,-2.5871,-2.5545,-2.4579,-2.3704,-2.3132,-2.2584,-2.1995,-2.142,-2.0833,-2.0575,-2.0322,-1.9862,-1.916,-1.8255,-1.8213,-1.7623,-1.6676,-1.6853,-1.6751,-1.6477,-1.6402,-1.6402,-1.6402,-1.6402,-1.6402,-1.6402,-1.6402,-1.6402,-1.6402,-1.6402,-1.6402,-1.6402,-1.6402,-1.6345,-1.6202,-1.5914,-1.543,-1.4815,-1.4088,-1.3704,-1.333,-1.2896,-1.2565,-1.2617,-1.253,-1.2432,-1.2333,-1.2243,-1.2112,-1.1836,-1.1451,-1.107,-1.0441,-0.9751,-0.9484,-0.93,-0.9088,-0.8896,-0.8448,-0.8023,-0.7783,-0.7488,-0.7214,-0.71,-0.6932,-0.658,-0.6334,-0.6119,-0.5897,-0.5643,-0.5376,-0.5246,-0.5169,-0.4828,-0.436,-0.4222,-0.4073,-0.3504,-0.3196,-4.1088,-4.0749,-4.1088,-4.1205,-4.1189,-4.1138,-4.1104,-4.1037,-4.0662,-4.0436,-4.0277,-4.0117,-3.9874,-3.9661,-3.9213,-3.909,-3.9228,-3.8701,-3.8315,-3.824,-3.7839,-3.7644,-3.7571,-3.7124,-3.6876,-3.6376,-3.5508,-3.4896,-3.4335,-3.2905,-3.1965,-3.1468,-2.9987,-2.9222,-2.8791,-2.6935,-2.578,-2.5584,-2.467,-2.3864,-2.3276,-2.2689,-2.2087,-2.1446,-2.0733,-2.0347,-2.0156,-1.9733,-1.9198,-1.867,-1.8093,-1.7484,-1.6965,-1.6666,-1.6516,-1.6459,-1.6402,-1.6402,-1.6402,-1.6402,-1.6402,-1.6402,-1.6402,-1.6402,-1.6402,-1.6402,-1.6402,-1.6402,-1.6374,-1.6269,-1.5943,-1.5546,-1.5216,-1.4893,-1.4854,-1.4588,-1.3939,-1.3291,-1.294,-1.2844,-1.2841,-1.2769,-1.2566,-1.2529,-1.239,-1.2135,-1.1783,-1.1412,-1.0717,-0.9943,-0.9695,-0.9623,-0.9174,-0.8949,-0.8685,-0.8203,-0.7809,-0.7542,-0.7273,-0.7101,-0.6934,-0.6816,-0.6554,-0.6275,-0.5958,-0.5687,-0.5466,-0.5237,-0.5142,-0.4714,-0.4324,-0.4157,-0.3905,-0.3387,-0.3083,-4.0867,-4.0524,-4.073,-4.0833,-4.0833,-4.0817,-4.0817,-4.0799,-4.0593,-4.047,-4.0331,-4.0101,-3.9839,-3.9523,-3.9053,-3.887,-3.8701,-3.8254,-3.7915,-3.7839,-3.7534,-3.7419,-3.7495,-3.7226,-3.6964,-3.6782,-3.5525,-3.491,-3.4185,-3.2931,-3.1726,-3.1486,-3.0053,-2.9362,-2.8948,-2.7,-2.5897,-2.5571,-2.4713,-2.3942,-2.3589,-2.2807,-2.1917,-2.1199,-2.0501,-2.0144,-2.0156,-1.9474,-1.9172,-1.8815,-1.8023,-1.7279,-1.7011,-1.6609,-1.642,-1.6402,-1.6402,-1.6402,-1.6402,-1.6402,-1.6402,-1.6402,-1.6402,-1.6402,-1.6402,-1.6402,-1.6402,-1.6402,-1.6345,-1.623,-1.5769,-1.5585,-1.5284,-1.4981,-1.5147,-1.5001,-1.424,-1.358,-1.3196,-1.3114,-1.3046,-1.2937,-1.283,-1.2789,-1.2713,-1.2497,-1.2336,-1.1971,-1.168,-1.0946,-1.0348,-0.9999,-0.9371,-0.8982,-0.8791,-0.8388,-0.7883,-0.7595,-0.7273,-0.7166,-0.7052,-0.6929,-0.6795,-0.6498,-0.6176,-0.5906,-0.5674,-0.5413,-0.5136,-0.4838,-0.4521,-0.4166,-0.3825,-0.3497,-0.3219,-4.0799,-4.0489,-4.0489,-4.0489,-4.0489,-4.0489,-4.0524,-4.0489,-4.0489,-4.047,-4.0351,-4.0051,-3.9646,-3.9271,-3.8745,-3.8375,-3.8014,-3.7839,-3.7649,-3.7457,-3.7226,-3.7226,-3.7303,-3.7148,-3.6964,-3.6813,-3.5555,-3.4647,-3.3789,-3.2552,-3.1705,-3.1003,-2.9886,-2.9375,-2.8778,-2.7092,-2.5871,-2.5863,-2.4779,-2.4187,-2.391,-2.3,-2.1812,-2.0771,-2.0207,-1.999,-1.9849,-1.9291,-1.8842,-1.9107,-1.7804,-1.714,-1.6899,-1.6637,-1.6402,-1.6402,-1.6402,-1.6402,-1.6402,-1.6402,-1.6402,-1.6402,-1.6402,-1.6402,-1.6402,-1.6402,-1.6402,-1.6374,-1.6316,-1.6124,-1.5701,-1.5459,-1.5186,-1.4883,-1.5001,-1.4804,-1.4359,-1.3821,-1.3463,-1.3356,-1.3267,-1.3164,-1.3097,-1.3019,-1.2958,-1.2867,-1.2736,-1.2549,-1.2251,-1.1895,-1.123,-1.0427,-0.9778,-0.9213,-0.8975,-0.8705,-0.8203,-0.7901,-0.7526,-0.73,-0.7214,-0.7052,-0.6944,-0.6731,-0.6431,-0.6143,-0.5796,-0.5421,-0.5179,-0.4977,-0.4595,-0.4114,-0.3825,-0.3628,-0.3413,-4.0558,-4.0489,-4.0489,-4.0489,-4.0489,-4.0489,-4.0489,-4.0489,-4.0505,-4.0316,-4.0066,-3.9681,-3.9307,-3.8819,-3.8089,-3.761,-3.7404,-3.7419,-3.738,-3.7187,-3.7017,-3.7109,-3.7109,-3.7056,-3.6978,-3.6693,-3.5717,-3.4742,-3.3865,-3.285,-3.1803,-3.1198,-3.0017,-2.9336,-2.8673,-2.7131,-2.6125,-2.6151,-2.5014,-2.4367,-2.419,-2.3043,-2.1678,-2.0515,-1.9977,-1.972,-1.95,-1.8883,-1.8414,-1.8387,-1.7529,-1.7084,-1.6899,-1.662,-1.6431,-1.6402,-1.6402,-1.6402,-1.6402,-1.6402,-1.6402,-1.6402,-1.6402,-1.6402,-1.6402,-1.6402,-1.6374,-1.6345,-1.622,-1.597,-1.5507,-1.5186,-1.4883,-1.4617,-1.4261,-1.4082,-1.4172,-1.3902,-1.3511,-1.3442,-1.3404,-1.3369,-1.3274,-1.3202,-1.3141,-1.305,-1.2958,-1.2897,-1.2769,-1.2448,-1.2016,-1.1125,-1.0214,-0.9669,-0.9185,-0.8942,-0.86,-0.8406,-0.8053,-0.7595,-0.7429,-0.7219,-0.7046,-0.6848,-0.6581,-0.6283,-0.5908,-0.5519,-0.5152,-0.4918,-0.448,-0.4025,-0.3918,-0.3791,-0.3611,-4.0489,-4.0489,-4.0489,-4.0401,-4.0296,-4.0436,-4.0401,-4.0296,-4.0385,-4.0296,-3.9945,-3.9559,-3.9038,-3.8464,-3.7877,-3.738,-3.7134,-3.7134,-3.7173,-3.7017,-3.6978,-3.6978,-3.6978,-3.6978,-3.6836,-3.6473,-3.5625,-3.4749,-3.384,-3.233,-3.1691,-3.1051,-2.9909,-2.9323,-2.8891,-2.7353,-2.6569,-2.6353,-2.5367,-2.4631,-2.4645,-2.3065,-2.1621,-2.0781,-1.9987,-1.9565,-1.9239,-1.8536,-1.8116,-1.7936,-1.719,-1.6899,-1.6825,-1.6658,-1.6413,-1.6413,-1.6402,-1.6402,-1.6402,-1.6402,-1.6402,-1.6402,-1.6402,-1.6402,-1.6402,-1.6374,-1.6345,-1.6249,-1.6181,-1.5941,-1.5614,-1.504,-1.4706,-1.4499,-1.3962,-1.3752,-1.3833,-1.3662,-1.3541,-1.348,-1.3446,-1.3408,-1.3351,-1.3294,-1.3294,-1.3263,-1.318,-1.315,-1.3158,-1.2929,-1.2584,-1.1749,-1.0821,-1.0245,-0.9746,-0.9393,-0.9125,-0.8918,-0.8537,-0.8071,-0.7643,-0.7429,-0.7192,-0.6977,-0.6712,-0.6499,-0.6207,-0.5898,-0.5385,-0.4926,-0.4592,-0.4326,-0.4137,-0.3961,-0.3814,-4.0489,-4.0489,-4.0489,-4.0296,-4.0066,-4.0261,-4.0191,-3.998,-4.0141,-4.0001,-3.9661,-3.9286,-3.8723,-3.8089,-3.7649,-3.7303,-3.6978,-3.7017,-3.7017,-3.7017,-3.6978,-3.6978,-3.6978,-3.6954,-3.6875,-3.6503,-3.5442,-3.4568,-3.3596,-3.2154,-3.1297,-3.0736,-2.9886,-2.931,-2.893,-2.7517,-2.6981,-2.6523,-2.5777,-2.5149,-2.4346,-2.3038,-2.1765,-2.112,-2.0202,-1.959,-1.9365,-1.8364,-1.7902,-1.7578,-1.7034,-1.6573,-1.6751,-1.6647,-1.6537,-1.6498,-1.6436,-1.6402,-1.6402,-1.6402,-1.6402,-1.6402,-1.6402,-1.6402,-1.6402,-1.6374,-1.6306,-1.6153,-1.6114,-1.6009,-1.5672,-1.5157,-1.4765,-1.444,-1.4022,-1.3601,-1.3571,-1.3511,-1.3511,-1.348,-1.348,-1.3459,-1.3407,-1.3407,-1.3407,-1.3398,-1.3316,-1.3307,-1.3316,-1.3294,-1.2925,-1.2191,-1.1459,-1.091,-1.0411,-1.0002,-0.9732,-0.9479,-0.9025,-0.8487,-0.8003,-0.7584,-0.7374,-0.717,-0.7036,-0.6813,-0.654,-0.621,-0.5753,-0.5302,-0.4915,-0.4581,-0.4353,-0.4271,-0.4175,-4.0489,-4.0489,-4.0489,-4.0296,-4.0031,-4.0046,-3.9839,-3.9523,-3.9544,-3.9199,-3.8811,-3.8464,-3.8052,-3.7534,-3.7226,-3.7056,-3.7017,-3.6978,-3.6978,-3.6978,-3.6978,-3.6978,-3.6978,-3.6978,-3.6993,-3.6565,-3.5466,-3.4399,-3.3429,-3.2263,-3.1431,-3.0856,-2.9964,-2.931,-2.9127,-2.7674,-2.7,-2.7118,-2.6269,-2.5101,-2.3983,-2.2865,-2.199,-2.1265,-2.0528,-1.9885,-1.9505,-1.8489,-1.7756,-1.752,-1.6861,-1.6483,-1.6522,-1.6796,-1.6893,-1.682,-1.6643,-1.6402,-1.6454,-1.6537,-1.6487,-1.6498,-1.6464,-1.6413,-1.6423,-1.6446,-1.6399,-1.6153,-1.6144,-1.599,-1.5711,-1.5332,-1.4942,-1.4567,-1.4151,-1.3761,-1.3601,-1.348,-1.348,-1.348,-1.348,-1.348,-1.3459,-1.348,-1.348,-1.348,-1.348,-1.348,-1.345,-1.3428,-1.3235,-1.2504,-1.2056,-1.1516,-1.1039,-1.0619,-1.029,-1.007,-0.9453,-0.8902,-0.85,-0.8036,-0.7563,-0.7396,-0.7273,-0.7106,-0.6828,-0.6482,-0.6085,-0.5715,-0.5335,-0.4921,-0.4545,-0.4493,-0.4497,-4.0489,-4.0455,-4.0296,-4.0137,-3.996,-3.9768,-3.9559,-3.9451,-3.94,-3.9111,-3.8649,-3.83,-3.7825,-3.7211,-3.7017,-3.6978,-3.6978,-3.6978,-3.6978,-3.6978,-3.6978,-3.6978,-3.6978,-3.6978,-3.6978,-3.6504,-3.5349,-3.4297,-3.3361,-3.2446,-3.1523,-3.0895,-2.9951,-2.931,-2.9222,-2.7876,-2.7411,-2.7111,-2.6393,-2.5278,-2.415,-2.3119,-2.2263,-2.1741,-2.0952,-2.0269,-1.9531,-1.8992,-1.8124,-1.7772,-1.7232,-1.715,-1.7151,-1.7296,-1.7409,-1.7389,-1.7244,-1.7046,-1.681,-1.6995,-1.6953,-1.6808,-1.6726,-1.6663,-1.6539,-1.6694,-1.6617,-1.6039,-1.6252,-1.6106,-1.5624,-1.5254,-1.4922,-1.4567,-1.4249,-1.3881,-1.364,-1.3541,-1.348,-1.348,-1.348,-1.348,-1.348,-1.348,-1.348,-1.348,-1.348,-1.348,-1.348,-1.348,-1.321,-1.2805,-1.244,-1.2091,-1.1643,-1.1238,-1.0863,-1.0529,-0.9806,-0.9322,-0.9024,-0.8573,-0.8093,-0.7678,-0.7526,-0.7327,-0.7106,-0.6801,-0.6464,-0.6096,-0.573,-0.538,-0.5049,-0.4731,-0.4657,-4.0455,-4.0366,-4.0101,-3.9889,-3.9696,-3.9379,-3.9184,-3.9111,-3.9075,-3.8855,-3.8486,-3.8037,-3.7519,-3.7095,-3.7017,-3.6978,-3.6978,-3.6978,-3.6978,-3.6978,-3.6978,-3.6978,-3.6978,-3.6978,-3.688,-3.6754,-3.5228,-3.4159,-3.3392,-3.252,-3.151,-3.0973,-3.0072,-2.9601,-2.9209,-2.8399,-2.7699,-2.7306,-2.6388,-2.5452,-2.4584,-2.3517,-2.2782,-2.2149,-2.143,-2.0576,-1.9829,-1.9271,-1.87,-1.8092,-1.7709,-1.7575,-1.7616,-1.775,-1.7843,-1.7895,-1.7936,-1.7864,-1.7605,-1.7513,-1.7482,-1.7296,-1.7099,-1.6995,-1.6933,-1.7202,-1.7122,-1.6244,-1.6375,-1.6128,-1.5606,-1.5216,-1.501,-1.4715,-1.4369,-1.3971,-1.364,-1.3571,-1.3511,-1.348,-1.348,-1.348,-1.348,-1.348,-1.348,-1.348,-1.348,-1.348,-1.348,-1.348,-1.3356,-1.3047,-1.295,-1.2627,-1.2156,-1.1773,-1.145,-1.1004,-1.0322,-0.9827,-0.9562,-0.911,-0.8563,-0.8217,-0.7886,-0.763,-0.7483,-0.7154,-0.6858,-0.6578,-0.6307,-0.5946,-0.5598,-0.5204,-0.4886,-4.0331,-4.0031,-4.0011,-3.9574,-3.8929,-3.8855,-3.8649,-3.8449,-3.8352,-3.8127,-3.7763,-3.7341,-3.7187,-3.7017,-3.6978,-3.6978,-3.6978,-3.6978,-3.6978,-3.6978,-3.6978,-3.6978,-3.6978,-3.6922,-3.6712,-3.6147,-3.5022,-3.4063,-3.3198,-3.2258,-3.1507,-3.096,-3.0268,-3.0087,-2.9631,-2.8769,-2.7931,-2.7367,-2.6431,-2.5633,-2.4912,-2.4048,-2.3238,-2.2537,-2.1894,-2.1217,-2.0522,-1.9709,-1.9008,-1.8383,-1.8092,-1.7905,-1.7998,-1.8216,-1.833,-1.8392,-1.8642,-1.8548,-1.8299,-1.8019,-1.774,-1.7595,-1.7502,-1.7409,-1.7409,-1.7843,-1.7585,-1.6749,-1.6739,-1.6307,-1.5782,-1.5323,-1.5108,-1.4902,-1.4517,-1.4052,-1.3752,-1.364,-1.3571,-1.3511,-1.348,-1.348,-1.348,-1.348,-1.348,-1.348,-1.348,-1.348,-1.348,-1.348,-1.348,-1.3373,-1.3437,-1.3144,-1.258,-1.2272,-1.2088,-1.1616,-1.0924,-1.0516,-1.0221,-0.9692,-0.9114,-0.8783,-0.8471,-0.8165,-0.7852,-0.761,-0.7394,-0.7149,-0.6843,-0.6345,-0.5895,-0.5492,-0.5272,-3.9595,-3.9286,-3.9286,-3.9235,-3.9126,-3.8649,-3.8486,-3.8523,-3.8315,-3.7991,-3.7572,-3.7303,-3.7109,-3.7017,-3.6978,-3.6978,-3.6978,-3.6978,-3.6978,-3.6978,-3.6978,-3.6978,-3.6978,-3.6894,-3.6683,-3.5955,-3.4992,-3.3971,-3.3108,-3.1995,-3.1387,-3.0856,-3.0438,-3.0166,-2.9722,-2.895,-2.8144,-2.7584,-2.666,-2.5753,-2.5033,-2.416,-2.3237,-2.2228,-2.1808,-2.1008,-2.0268,-1.9857,-1.935,-1.894,-1.8621,-1.8516,-1.8464,-1.8714,-1.8776,-1.8787,-1.9025,-1.8963,-1.887,-1.8589,-1.8444,-1.8154,-1.8009,-1.7905,-1.7854,-1.8102,-1.7904,-1.7441,-1.7053,-1.6638,-1.6108,-1.5478,-1.5059,-1.4941,-1.4627,-1.4172,-1.3953,-1.3872,-1.361,-1.3541,-1.3511,-1.348,-1.348,-1.348,-1.348,-1.348,-1.348,-1.348,-1.348,-1.348,-1.348,-1.3554,-1.3588,-1.3397,-1.2852,-1.2786,-1.2757,-1.2135,-1.1511,-1.1152,-1.0769,-1.0264,-0.9748,-0.9394,-0.9047,-0.8731,-0.8416,-0.8154,-0.7846,-0.7522,-0.7093,-0.6574,-0.6187,-0.5758,-0.5478,-3.9147,-3.8819,-3.8782,-3.8892,-3.8965,-3.8427,-3.8352,-3.8538,-3.8254,-3.7915,-3.7495,-3.7303,-3.7148,-3.7031,-3.6978,-3.6978,-3.6978,-3.6978,-3.6978,-3.6978,-3.6978,-3.6978,-3.6978,-3.6894,-3.6669,-3.5927,-3.4923,-3.3943,-3.3064,-3.1847,-3.1271,-3.0947,-3.0583,-3.0427,-2.998,-2.8967,-2.8164,-2.7765,-2.6892,-2.593,-2.5234,-2.4372,-2.3369,-2.2312,-2.1725,-2.0924,-2.0259,-1.9846,-1.9584,-1.9245,-1.9025,-1.9067,-1.9077,-1.9098,-1.9098,-1.9098,-1.9098,-1.9098,-1.9098,-1.9056,-1.8953,-1.8662,-1.8589,-1.8402,-1.8309,-1.8392,-1.8317,-1.781,-1.7469,-1.702,-1.6346,-1.5495,-1.496,-1.4813,-1.4686,-1.4312,-1.4282,-1.4201,-1.3842,-1.358,-1.3541,-1.348,-1.348,-1.348,-1.348,-1.348,-1.348,-1.348,-1.348,-1.348,-1.348,-1.3571,-1.3648,-1.34,-1.3099,-1.2979,-1.281,-1.2352,-1.1829,-1.1624,-1.1233,-1.0725,-1.0521,-1.0426,-0.9999,-0.9395,-0.8961,-0.8589,-0.8217,-0.7818,-0.7263,-0.6639,-0.6262,-0.5824,-0.5448,-3.9111,-3.8819,-3.8782,-3.856,-3.8315,-3.824,-3.824,-3.824,-3.7991,-3.7687,-3.7341,-3.7148,-3.7031,-3.6978,-3.6978,-3.6978,-3.6978,-3.6978,-3.6978,-3.6978,-3.6978,-3.6978,-3.6978,-3.6908,-3.6669,-3.6015,-3.5033,-3.3984,-3.3101,-3.1968,-3.1428,-3.1029,-3.0756,-3.0693,-3.0543,-2.9142,-2.8265,-2.7822,-2.6971,-2.6177,-2.5498,-2.4735,-2.3806,-2.2523,-2.1806,-2.0963,-1.9998,-1.9736,-1.9462,-1.9208,-1.9098,-1.9098,-1.9098,-1.9098,-1.9098,-1.9098,-1.9098,-1.9098,-1.9098,-1.9098,-1.9046,-1.8994,-1.8932,-1.8901,-1.8984,-1.9005,-1.8814,-1.8241,-1.7786,-1.7038,-1.6223,-1.5423,-1.5033,-1.482,-1.4701,-1.4469,-1.444,-1.4321,-1.3911,-1.367,-1.3571,-1.348,-1.348,-1.348,-1.348,-1.348,-1.348,-1.348,-1.348,-1.348,-1.348,-1.3535,-1.3621,-1.3381,-1.3133,-1.3085,-1.2885,-1.2459,-1.2182,-1.2005,-1.166,-1.1154,-1.1072,-1.1243,-1.0578,-0.9606,-0.9263,-0.9027,-0.8535,-0.7973,-0.725,-0.6663,-0.6283,-0.5944,-0.5563,-3.8538,-3.8389,-3.8427,-3.8315,-3.8202,-3.8202,-3.8202,-3.8127,-3.7839,-3.7534,-3.7303,-3.7056,-3.6978,-3.6978,-3.6978,-3.6978,-3.6978,-3.6978,-3.6978,-3.6978,-3.6978,-3.6978,-3.6978,-3.6922,-3.6708,-3.5917,-3.4964,-3.4052,-3.3064,-3.2086,-3.1275,-3.0824,-3.0609,-3.0546,-3.0237,-2.9294,-2.8308,-2.8028,-2.7142,-2.621,-2.5615,-2.5141,-2.4131,-2.2376,-2.1851,-2.0927,-1.9646,-1.9503,-1.9349,-1.9152,-1.9098,-1.9098,-1.9098,-1.9098,-1.9098,-1.9108,-1.9108,-1.9098,-1.9098,-1.9098,-1.9098,-1.9098,-1.9098,-1.9098,-1.9098,-1.9098,-1.8961,-1.8697,-1.8146,-1.7629,-1.7454,-1.6015,-1.5392,-1.526,-1.5055,-1.4543,-1.4321,-1.4151,-1.392,-1.3821,-1.3722,-1.3541,-1.348,-1.348,-1.348,-1.348,-1.348,-1.348,-1.348,-1.348,-1.3489,-1.3539,-1.3546,-1.3314,-1.3166,-1.3149,-1.2977,-1.259,-1.2476,-1.2453,-1.2034,-1.1496,-1.1315,-1.1322,-1.0562,-0.9806,-0.9515,-0.92,-0.868,-0.8103,-0.7519,-0.6868,-0.6358,-0.6051,-0.5703,-3.8202,-3.8202,-3.8202,-3.8202,-3.8202,-3.8202,-3.8127,-3.7976,-3.7687,-3.7457,-3.7187,-3.7017,-3.6978,-3.6978,-3.6978,-3.6978,-3.6978,-3.6978,-3.6978,-3.6978,-3.6978,-3.6978,-3.6978,-3.6964,-3.6835,-3.6112,-3.5253,-3.4337,-3.3783,-3.2311,-3.138,-3.0763,-3.0305,-3.0305,-2.9972,-2.9134,-2.8326,-2.7984,-2.7195,-2.6361,-2.5916,-2.5369,-2.4439,-2.2997,-2.2002,-2.1152,-1.9876,-1.9326,-1.9264,-1.9181,-1.9108,-1.9098,-1.9098,-1.9098,-1.9098,-1.9108,-1.9274,-1.9233,-1.916,-1.9336,-1.9305,-1.9108,-1.9108,-1.9098,-1.9065,-1.9042,-1.9042,-1.8864,-1.8488,-1.8194,-1.7755,-1.6302,-1.5854,-1.5752,-1.5237,-1.472,-1.4153,-1.3981,-1.3985,-1.3886,-1.3731,-1.3571,-1.348,-1.348,-1.348,-1.348,-1.348,-1.348,-1.348,-1.348,-1.348,-1.3505,-1.3534,-1.3378,-1.3264,-1.3205,-1.2993,-1.2713,-1.2638,-1.2578,-1.2243,-1.1694,-1.1532,-1.1301,-1.0656,-1.0109,-0.9742,-0.9329,-0.9024,-0.862,-0.8161,-0.742,-0.6598,-0.6117,-0.5773,-3.8202,-3.8202,-3.8202,-3.8202,-3.8202,-3.8202,-3.7991,-3.761,-3.761,-3.738,-3.7031,-3.6978,-3.6978,-3.6978,-3.6978,-3.6978,-3.6978,-3.6978,-3.6978,-3.6978,-3.6978,-3.6978,-3.6978,-3.6964,-3.6894,-3.6649,-3.5914,-3.4894,-3.4653,-3.2816,-3.1565,-3.0919,-3.0279,-3.0177,-2.972,-2.8986,-2.8331,-2.7976,-2.7347,-2.6625,-2.6264,-2.5802,-2.4849,-2.3648,-2.2731,-2.1617,-2.0514,-1.9799,-1.9513,-1.9326,-1.9129,-1.9108,-1.9098,-1.9098,-1.9098,-1.9243,-1.9564,-1.9367,-1.9336,-1.9554,-1.9409,-1.915,-1.9098,-1.9098,-1.9065,-1.8998,-1.8942,-1.8816,-1.8492,-1.8132,-1.7631,-1.6947,-1.6325,-1.5914,-1.5385,-1.4768,-1.4088,-1.3909,-1.3935,-1.3839,-1.3627,-1.3511,-1.348,-1.348,-1.348,-1.348,-1.348,-1.348,-1.348,-1.348,-1.348,-1.348,-1.3454,-1.3445,-1.3349,-1.3225,-1.2993,-1.2674,-1.2529,-1.2414,-1.2119,-1.1836,-1.1514,-1.1157,-1.081,-1.0364,-0.99,-0.9679,-0.9545,-0.9135,-0.8699,-0.795,-0.7104,-0.6248,-0.5818,-3.8202,-3.8202,-3.8202,-3.8202,-3.8202,-3.8202,-3.7976,-3.761,-3.7572,-3.738,-3.6978,-3.6978,-3.6978,-3.6978,-3.6978,-3.6978,-3.6978,-3.6978,-3.6978,-3.6978,-3.6978,-3.6978,-3.6978,-3.6978,-3.6978,-3.6565,-3.5912,-3.5152,-3.4455,-3.2909,-3.1785,-3.1229,-3.0304,-3.0075,-2.958,-2.8799,-2.8409,-2.7968,-2.7329,-2.6816,-2.6562,-2.6205,-2.5213,-2.4245,-2.3468,-2.2292,-2.1196,-2.0142,-1.9775,-1.9606,-1.9264,-1.9119,-1.9098,-1.9119,-1.917,-1.9523,-1.9513,-1.9326,-1.9513,-1.9419,-1.9264,-1.917,-1.9098,-1.9098,-1.9065,-1.8998,-1.8865,-1.8673,-1.8632,-1.8367,-1.7982,-1.7425,-1.6881,-1.6426,-1.5845,-1.5131,-1.4507,-1.4227,-1.4278,-1.417,-1.3946,-1.3571,-1.3562,-1.348,-1.348,-1.348,-1.348,-1.348,-1.348,-1.348,-1.348,-1.348,-1.342,-1.3398,-1.3246,-1.3083,-1.2883,-1.2683,-1.2529,-1.236,-1.2116,-1.1811,-1.1403,-1.1026,-1.0613,-1.0294,-0.9977,-0.9826,-0.9759,-0.9583,-0.9158,-0.8414,-0.7636,-0.6877,-0.6245,-3.8202,-3.8202,-3.8202,-3.8202,-3.8217,-3.8104,-3.7877,-3.7625,-3.761,-3.7419,-3.7148,-3.7017,-3.6978,-3.6978,-3.6978,-3.6978,-3.6978,-3.6978,-3.6978,-3.6978,-3.6978,-3.6978,-3.6978,-3.6978,-3.6978,-3.6537,-3.5981,-3.5303,-3.4512,-3.2909,-3.1523,-3.0791,-3.0073,-2.9984,-2.963,-2.9026,-2.8386,-2.7908,-2.7381,-2.6784,-2.6486,-2.6383,-2.5605,-2.4705,-2.4014,-2.3021,-2.1773,-2.0677,-2.0045,-1.9782,-1.9347,-1.9119,-1.9098,-1.9119,-1.9316,-1.9616,-1.9616,-1.9575,-1.9679,-1.9564,-1.9326,-1.915,-1.9098,-1.9098,-1.9065,-1.8975,-1.8808,-1.8643,-1.8731,-1.8677,-1.8285,-1.7884,-1.7451,-1.7054,-1.6342,-1.5608,-1.5175,-1.4765,-1.4659,-1.4609,-1.4276,-1.3807,-1.3622,-1.3571,-1.348,-1.348,-1.348,-1.348,-1.348,-1.348,-1.348,-1.348,-1.3398,-1.3307,-1.3164,-1.3072,-1.295,-1.2797,-1.2613,-1.2437,-1.216,-1.1802,-1.1461,-1.0927,-1.0419,-1.0153,-0.9946,-0.9961,-0.9912,-0.9727,-0.9558,-0.9041,-0.8405,-0.7744,-0.7199,-3.8173,-3.8115,-3.8188,-3.8217,-3.8179,-3.7967,-3.7777,-3.7625,-3.7572,-3.7457,-3.7264,-3.707,-3.6978,-3.6978,-3.6978,-3.6978,-3.6978,-3.6978,-3.6978,-3.6978,-3.6978,-3.6978,-3.6978,-3.6978,-3.6978,-3.6705,-3.6108,-3.5318,-3.4741,-3.3157,-3.138,-3.0228,-3.0072,-2.9995,-2.973,-2.9139,-2.8524,-2.8009,-2.727,-2.6574,-2.6216,-2.6107,-2.5978,-2.4933,-2.428,-2.3616,-2.241,-2.1311,-2.0269,-1.9844,-1.9482,-1.9233,-1.9316,-1.9139,-1.9388,-1.9585,-1.9658,-1.9668,-1.9679,-1.9606,-1.9399,-1.9222,-1.9075,-1.9042,-1.8975,-1.8975,-1.8841,-1.8607,-1.865,-1.8516,-1.8133,-1.7944,-1.7615,-1.7243,-1.6677,-1.6043,-1.554,-1.5171,-1.4956,-1.4815,-1.4403,-1.4016,-1.4059,-1.4042,-1.399,-1.3768,-1.3725,-1.375,-1.3708,-1.3708,-1.3574,-1.3574,-1.3595,-1.3512,-1.3338,-1.3246,-1.3103,-1.292,-1.2728,-1.2498,-1.2219,-1.1859,-1.1512,-1.0973,-1.0503,-1.0174,-1.0016,-1.0013,-1.0009,-0.9938,-0.9774,-0.9622,-0.9133,-0.8495,-0.7954,-3.7926,-3.7578,-3.8014,-3.8104,-3.7967,-3.7929,-3.7792,-3.7572,-3.7419,-3.7264,-3.7109,-3.7031,-3.6978,-3.6978,-3.6978,-3.6978,-3.6978,-3.6978,-3.6978,-3.6978,-3.6978,-3.6978,-3.6978,-3.6978,-3.6978,-3.6705,-3.6096,-3.5009,-3.387,-3.2639,-3.1634,-3.0747,-3.0478,-3.0223,-2.9754,-2.9202,-2.8574,-2.8072,-2.7356,-2.6554,-2.6039,-2.6141,-2.606,-2.5335,-2.4743,-2.4205,-2.3064,-2.1889,-2.0966,-2.0323,-1.9855,-1.981,-2.0069,-1.9471,-1.9575,-1.9965,-1.9668,-1.9585,-1.9627,-1.9544,-1.9264,-1.9124,-1.9008,-1.8908,-1.8908,-1.8975,-1.8908,-1.866,-1.8532,-1.8383,-1.8125,-1.7988,-1.7764,-1.7398,-1.6991,-1.6421,-1.5875,-1.5575,-1.5249,-1.4906,-1.4521,-1.4435,-1.447,-1.4461,-1.4435,-1.4418,-1.4427,-1.4442,-1.429,-1.4221,-1.3905,-1.3879,-1.3922,-1.3848,-1.3629,-1.348,-1.333,-1.3066,-1.282,-1.2544,-1.2274,-1.1707,-1.1203,-1.0982,-1.0636,-1.028,-1.0019,-0.9983,-0.9979,-1.0042,-1.0073,-0.9909,-0.9708,-0.9164,-0.8568,-3.7607,-3.7404,-3.7955,-3.8066,-3.7891,-3.7815,-3.7663,-3.7457,-3.7264,-3.7109,-3.7017,-3.6978,-3.6978,-3.6978,-3.6978,-3.6978,-3.6978,-3.6978,-3.6978,-3.6978,-3.6978,-3.6978,-3.6978,-3.6978,-3.6978,-3.6716,-3.5582,-3.438,-3.2874,-3.1944,-3.1144,-3.0593,-3.0388,-3.0262,-2.9679,-2.9051,-2.8461,-2.8072,-2.7381,-2.6666,-2.5992,-2.6037,-2.5968,-2.5382,-2.4933,-2.4407,-2.3564,-2.2377,-2.1532,-2.0718,-2.0124,-1.9886,-1.9831,-1.944,-1.9513,-1.972,-1.9606,-1.9305,-1.9502,-1.9419,-1.9119,-1.9042,-1.9008,-1.8975,-1.8841,-1.8895,-1.9012,-1.8869,-1.9363,-1.9329,-1.851,-1.8181,-1.7861,-1.7497,-1.7108,-1.6637,-1.6167,-1.5805,-1.56,-1.5394,-1.5018,-1.4692,-1.4701,-1.4649,-1.4615,-1.4581,-1.4667,-1.4794,-1.4734,-1.4785,-1.4418,-1.4221,-1.4324,-1.4161,-1.3891,-1.3771,-1.365,-1.3328,-1.2977,-1.2591,-1.2267,-1.1481,-1.0909,-1.0776,-1.0606,-1.03,-1.0076,-1.0089,-1.0112,-1.0185,-1.0239,-1.0247,-0.9991,-0.9748,-0.9235,-3.723,-3.7389,-3.7854,-3.8046,-3.7906,-3.7701,-3.7495,-3.7303,-3.7095,-3.6978,-3.6978,-3.6978,-3.6978,-3.6978,-3.6978,-3.6978,-3.6978,-3.6978,-3.6978,-3.6978,-3.6978,-3.6978,-3.6978,-3.6978,-3.6777,-3.6119,-3.5055,-3.3556,-3.2012,-3.1377,-3.0773,-3.002,-2.9881,-2.9893,-2.9503,-2.8888,-2.826,-2.7921,-2.732,-2.6564,-2.6156,-2.5933,-2.5711,-2.5347,-2.4933,-2.4407,-2.3643,-2.2852,-2.1987,-2.1201,-2.0461,-2.0296,-2.0052,-1.9772,-1.9689,-1.9772,-1.9471,-1.9378,-1.9461,-1.9238,-1.9127,-1.9075,-1.9075,-1.8985,-1.8838,-1.8985,-1.9099,-1.9267,-1.9798,-1.9651,-1.8812,-1.8223,-1.789,-1.7661,-1.7273,-1.7003,-1.6629,-1.6218,-1.6054,-1.5908,-1.5583,-1.5197,-1.5146,-1.5078,-1.4992,-1.4923,-1.4889,-1.4898,-1.5,-1.5103,-1.5035,-1.4881,-1.4872,-1.4632,-1.4196,-1.4104,-1.4013,-1.3749,-1.341,-1.2836,-1.232,-1.1828,-1.1298,-1.0718,-1.0515,-1.0351,-1.0316,-1.0327,-1.0358,-1.0358,-1.0424,-1.0413,-1.0218,-0.9997,-0.9808,-3.6823,-3.7317,-3.7433,-3.7618,-3.7796,-3.7663,-3.751,-3.7303,-3.7056,-3.6978,-3.695,-3.6964,-3.6978,-3.6978,-3.6978,-3.6978,-3.6978,-3.6978,-3.6978,-3.6978,-3.6978,-3.6978,-3.6869,-3.6665,-3.62,-3.5343,-3.429,-3.2986,-3.1666,-3.1199,-3.0659,-2.9868,-3.0465,-3.03,-2.9691,-2.9063,-2.8473,-2.8021,-2.7482,-2.6822,-2.648,-2.6176,-2.5816,-2.5523,-2.5264,-2.4671,-2.3967,-2.3183,-2.2407,-2.1592,-2.0859,-2.0778,-2.0555,-2.0197,-1.9938,-1.9855,-1.9533,-1.9347,-1.9303,-1.9204,-1.9132,-1.9101,-1.9055,-1.8917,-1.9032,-1.9528,-1.9494,-1.9249,-1.9495,-1.9269,-1.8609,-1.8107,-1.7772,-1.7798,-1.7548,-1.7616,-1.7464,-1.7058,-1.6747,-1.6576,-1.6336,-1.6225,-1.6276,-1.6182,-1.6054,-1.5985,-1.5961,-1.5944,-1.578,-1.5728,-1.56,-1.5583,-1.5497,-1.4846,-1.4324,-1.4456,-1.4389,-1.413,-1.387,-1.342,-1.2966,-1.2502,-1.1901,-1.1061,-1.0744,-1.062,-1.0592,-1.0527,-1.0472,-1.0472,-1.0575,-1.0587,-1.0407,-1.0325,-1.0176]},{"header":{"parameterUnit":"m.s-1","parameterCategory":1,"la1":31.0,"la2":29.5877,"lo1":-88.7671,"lo2":-86.6584,"dy":0.0162,"dx":0.0185,"nx":115,"ny":88,"refTime":"2024-05-02T06:00:00:Z","depth":0,"parameterNumber":3,"parameterNumberName":"V-component_of_WINDS"},"data":[0.0,0.0,0.0,0.0,0.0,0.0,0.0,0.0,0.0,0.0,0.0,0.0,0.0,0.0,0.0,0.0,0.0,0.0,0.0,0.0,0.0,0.0,0.0,0.0,0.0,0.0,0.0,0.0,0.0,0.0,0.0,0.0,0.0,0.0,0.0,0.0,0.0,0.0,0.0,0.0,0.0,0.0,0.0,0.0,0.0,0.0,0.0,0.0,0.0,0.0,0.0,0.0,0.0,0.0,0.0,0.0,0.0,0.0,0.0,0.0,0.0,0.0,0.0,0.0,0.0,0.0,0.0,0.0,0.0,0.0,0.0,0.0,0.0,0.0,0.0,0.0,0.0,0.0,0.0,0.0,0.0,0.0,0.0,0.0,0.0,0.0,0.0,0.0,0.0,0.0,0.0,0.0,0.0,0.0,0.0,0.0,0.0,0.0,0.0,0.0,0.0,0.0,0.0,0.0,0.0,0.0,0.0,0.0,0.0,0.0,0.0,0.0,0.0,0.0,0.0,0.0,0.0,0.0,0.0,0.0,0.0,0.0,0.0,0.0,0.0,0.0,0.0,0.0,0.0,0.0,0.0,0.0,0.0,0.0,0.0,0.0,0.0,0.0,0.0,0.0,0.0,0.0,0.0,0.0,0.0,0.0,0.0,0.0,0.0,0.0,0.0,0.0,0.0,0.0,0.0,0.0,0.0,0.0,0.0,0.0,0.0,0.0,0.0,0.0,0.0,0.0,0.0,0.0,0.0,0.0,0.0,0.0,0.0,0.0,0.0,0.0,0.0,0.0,0.0,0.0,0.0,0.0,0.0,0.0,0.0,0.0,0.0,0.0,0.0,0.0,0.0,0.0,0.0,0.0,0.0,0.0,0.0,0.0,0.0,0.0,0.0,0.0,0.0,0.0,0.0,0.0,0.0,0.0,0.0,0.0,0.0,0.0,0.0,0.0,0.0,0.0,0.0,0.0,0.0,0.0,0.0,0.0,0.0,0.0,0.0,0.0,0.0,0.0,0.0,0.0,0.0,0.0,0.0,0.0,0.0,0.0,0.0,0.0,0.0,0.0,0.0,0.0,0.0,0.0,0.0,0.0,0.0,0.0,0.0,0.0,0.0,0.0,0.0,0.0,0.0,0.0,0.0,0.0,0.0,0.0,0.0,0.0,0.0,0.0,0.0,0.0,0.0,0.0,0.0,0.0,0.0,0.0,0.0,0.0,0.0,0.0,0.0,0.0,0.0,0.0,0.0,0.0,0.0,0.0,0.0,0.0,0.0,0.0,0.0,0.0,0.0,0.0,0.0,0.0,0.0,0.0,0.0,0.0,0.0,0.0,0.0,0.0,0.0,0.0,0.0,0.0,0.0,0.0,0.0,0.0,0.0,0.0,0.0,0.0,0.0,0.0,0.0,0.0,0.0,0.0,0.0,0.0,0.0,0.0,0.0,0.0,0.0,0.0,0.0,0.0,0.0,0.0,0.0,0.0,0.0,0.0,0.0,0.0,0.0,0.0,0.0,0.0,0.0,0.0,0.0,0.0,0.0,0.0,0.0,0.0,0.0,0.0,0.0,0.0,0.0,0.0,0.0,0.0,0.0,0.0,0.0,0.0,0.0,0.0,0.0,0.0,0.0,0.0,0.0,0.0,0.0,0.0,0.0,0.0,0.0,0.0,0.0,0.0,0.0,0.0,0.0,0.0,0.0,0.0,0.0,0.0,0.0,0.0,0.0,0.0,0.0,0.0,0.0,0.0,0.0,0.0,0.0,0.0,0.0,0.0,0.0,0.0,0.0,0.0,0.0,0.0,0.0,0.0,0.0,0.0,0.0,0.0,0.0,0.0,0.0,0.0,0.0,0.0,0.0,0.0,0.0,0.0,0.0,0.0,0.0,0.0,0.0,0.0,0.0,0.0,0.0,0.0,0.0,0.0,0.0,0.0,0.0,0.0,0.0,0.0,0.0,0.0,0.0,0.0,0.0,0.0,0.0,0.0,0.0,0.0,0.0,0.0,0.0,0.0,0.0,0.0,0.0,0.0,0.0,0.0,0.0,0.0,0.0,0.0,0.0,0.0,0.0,0.0,0.0,0.0,0.0,0.0,0.0,0.0,0.0,0.0,0.0,0.0,0.0,0.0,0.0,0.0,0.0,0.0,0.0,0.0,0.0,0.0,0.0,0.0,0.0,0.0,0.0,0.0,0.0,0.0,0.0,0.0,0.0,0.0,0.0,0.0,0.0,0.0,0.0,0.0,0.0,0.0,0.0,0.0,0.0,0.0,0.0,0.0,0.0,0.0,0.0,0.0,0.0,0.0,0.0,0.0,0.0,0.0,0.0,0.0,0.0,0.0,0.0,0.0,0.0,0.0,0.0,0.0,0.0,0.0,0.0,0.0,0.0,0.0,0.0,0.0,0.0,0.0,0.0,0.0,0.0,0.0,0.0,0.0,0.0,0.0,0.0,0.0,0.0,0.0,0.0,0.0,0.0,0.0,0.0,0.0,0.0,0.0,0.0,0.0,0.0,0.0,0.0,0.0,0.0,0.0,0.0,0.0,0.0,0.0,0.0,0.0,0.0,0.0,0.0,0.0,0.0,0.0,0.0,0.0,0.0,0.0,0.0,0.0,0.0,0.0,0.0,0.0,0.0,0.0,0.0,0.0,0.0,0.0,0.0,0.0,0.0,0.0,0.0,0.0,0.0,0.0,0.0,0.0,0.0,0.0,0.0,0.0,0.0,0.0,0.0,0.0,0.0,0.0,0.0,0.0,0.0,0.0,0.0,0.0,0.0,0.0,0.0,0.0,0.0,0.0,0.0,0.0,0.0,0.0,0.0,0.0,0.0,0.0,0.0,0.0,0.0,0.0,0.0,0.0,0.0,0.0,0.0,0.0,0.0,0.0,0.0,0.0,0.0,0.0,0.0,0.0,0.0,0.0,0.0,0.0,0.0,0.0,0.0,0.0,0.0,0.0,0.0,0.0,0.0,0.0,0.0,0.0,0.0,0.0,0.0,0.0,0.0,0.0,0.0,0.0,0.0,0.0,0.0,0.0,0.0,0.0,0.0,0.0,0.0,0.0,0.0,0.0,0.0,0.0,0.0,0.0,0.0,0.0,0.0,0.0,0.0,0.0,0.0,0.0,0.0,0.0,0.0,0.0,0.0,0.0,0.0,0.0,0.0,0.0,0.0,0.0,0.0,0.0,0.0,0.0,0.0,0.0,0.0,0.0,0.0,0.0,0.0,0.0,0.0,0.0,0.0,0.0,0.0,0.0,0.0,0.0,0.0,0.0,0.0,0.0,0.0,0.0,0.0,0.0,0.0,0.0,0.0,0.0,0.0,0.0,0.0,0.0,0.0,0.0,0.0,0.0,0.0,0.0,0.0,0.0,0.0,0.0,0.0,0.0,0.0,0.0,0.0,0.0,0.0,0.0,0.0,0.0,0.0,0.0,0.0,0.0,0.0,0.0,0.0,0.0,0.0,0.0,0.0,0.0,0.0,0.0,0.0,0.0,0.0,0.0,0.0,0.0,0.0,0.0,0.0,0.0,0.0,0.0,0.0,0.0,0.0,0.0,0.0,0.0,0.0,0.0,0.0,0.0,0.0,0.0,0.0,0.0,0.0,0.0,0.0,0.0,0.0,0.0,0.0,0.0,0.0,0.0,0.0,0.0,0.0,0.0,0.0,0.0,0.0,0.0,0.0,0.0,0.0,0.0,0.0,0.0,0.0,0.0,0.0,0.0,0.0,0.0,0.0,0.0,0.0,0.0,0.0,0.0,0.0,0.0,0.0,0.0,0.0,0.0,0.0,0.0,0.0,0.0,0.0,0.0,0.0,0.0,0.0,0.0,0.0,0.0,0.0,0.0,0.0,0.0,0.0,0.0,0.0,0.0,0.0,0.0,0.0,0.0,0.0,0.0,0.0,0.0,0.0,0.0,0.0,0.0,0.0,0.0,0.0,0.0,0.0,0.0,0.0,0.0,0.0,0.0,0.0,0.0,0.0,0.0,0.0,0.0,0.0,0.0,0.0,0.0,0.0,0.0,0.0,0.0,0.0,0.0,0.0,0.0,0.0,0.0,0.0,0.0,0.0,0.0,0.0,0.0,0.0,0.0,0.0,0.0,0.0,0.0,0.0,0.0,0.0,0.0,0.0,0.0,0.0,0.0,0.0,0.0,0.0,0.0,0.0,0.0,0.0,0.0,0.0,0.0,0.0,0.0,0.0,0.0,0.0,0.0,0.0,0.0,0.0,0.0,0.0,0.0,0.0,0.0,0.0,0.0,0.0,0.0,1.0702,0.0,0.0,0.0,0.0,0.0,0.0,0.0,0.0,0.0,0.0,0.0,0.0,0.0,0.0,0.0,0.0,0.0,0.0,0.0,0.0,0.0,0.0,0.0,0.0,0.0,0.0,0.0,0.0,0.0,0.0,0.0,0.0,0.0,0.0,0.0,0.0,0.0,0.0,0.0,0.0,0.0,0.0,0.0,0.0,0.0,0.0,0.0,0.0,0.0,0.0,0.0,0.0,0.0,0.0,0.0,0.0,0.0,0.0,0.0,0.0,0.0,0.0,0.0,0.0,0.0,0.0,0.0,0.0,0.0,0.0,0.0,0.0,0.0,0.0,0.0,0.0,0.0,0.0,0.0,0.0,0.0,0.0,0.0,0.0,0.0,0.0,0.0,0.0,0.0,0.0,0.0,0.0,0.0,0.0,0.0,0.0,0.0,0.0,0.0,0.0,0.0,0.0,0.0,0.0,0.0,0.0,0.0,0.0,0.0,0.0,0.968,1.0425,1.0496,1.091,1.1744,0.0,0.0,0.0,0.0,0.0,0.0,0.0,0.0,0.0,0.0,0.0,0.0,0.0,0.0,0.0,0.0,0.0,0.0,0.0,0.0,0.0,0.0,0.0,0.0,0.0,0.0,0.0,0.0,0.0,0.0,0.0,0.0,0.0,0.0,0.0,0.0,0.0,0.0,0.0,0.0,0.0,0.0,0.0,0.0,0.0,0.0,0.0,0.0,0.0,0.0,0.0,0.0,0.0,0.0,0.0,0.0,0.0,0.0,0.0,0.0,0.0,0.0,0.0,0.0,0.0,0.0,0.0,0.0,0.0,0.0,0.0,0.0,0.0,0.0,0.0,0.0,0.0,0.0,0.0,0.0,0.0,0.0,0.0,0.0,0.0,0.0,0.0,0.0,0.0,0.0,0.0,0.0,0.0,0.0,0.0,0.0,0.0,0.0,0.0,0.0,0.0,0.0,0.0,0.0,0.0,0.0,0.0,0.0,0.0,0.0,0.0,0.0,1.1374,1.1834,1.2759,0.0,0.0,0.0,0.0,0.0,0.0,0.0,0.0,0.0,0.0,0.0,0.0,0.0,0.0,0.0,0.0,0.0,0.0,0.0,0.0,0.0,0.0,0.0,0.0,0.0,0.0,0.0,0.0,0.0,0.0,0.0,0.0,0.0,0.0,0.0,0.0,0.0,0.0,0.0,0.0,0.0,0.0,0.0,0.0,0.0,0.0,0.0,0.0,0.0,0.0,0.0,0.0,0.0,0.0,0.0,0.0,0.0,0.0,0.0,0.0,0.0,0.0,0.0,0.0,0.0,0.0,0.0,0.0,0.0,0.0,0.0,0.0,0.0,0.0,0.0,0.0,0.0,0.0,0.0,0.0,0.0,0.0,0.0,0.0,0.0,0.0,0.0,0.0,0.0,0.0,0.0,0.0,0.0,0.0,0.0,0.0,0.0,0.0,0.0,0.0,0.0,0.0,0.0,0.0,0.0,0.0,0.0,0.0,0.0,0.0,1.1436,1.2162,1.2253,0.0,1.3604,0.0,0.0,0.0,0.0,0.0,0.0,0.0,0.0,0.0,0.0,0.0,0.0,0.0,0.0,0.0,0.0,0.0,0.0,0.0,0.0,0.0,0.0,0.0,0.0,0.0,0.0,0.0,0.0,0.0,0.0,0.0,0.0,0.0,0.0,0.0,0.0,0.0,0.0,0.0,0.0,0.0,0.0,0.0,0.0,0.0,0.0,0.0,0.0,0.0,0.0,0.0,0.0,0.0,0.0,0.0,0.0,0.0,0.0,0.0,0.0,0.0,0.0,0.0,0.0,0.0,0.0,0.0,0.0,0.0,0.0,0.0,0.0,0.0,0.0,0.0,0.0,0.0,0.0,0.0,0.0,0.0,0.0,0.0,0.0,0.0,0.0,0.0,0.0,0.0,0.0,0.0,0.0,0.0,0.0,0.0,0.0,0.0,0.0,0.0,0.0,0.0,0.0,0.0,0.0,0.0,0.0,0.0,0.0,0.0,0.0,1.2282,1.305,1.3143,1.338,0.0,0.0,0.0,0.0,0.0,0.0,0.0,0.0,0.0,0.0,0.0,0.0,0.0,0.0,0.0,0.0,0.0,0.0,0.0,0.0,0.0,0.0,0.0,0.0,0.0,0.0,0.0,0.0,0.0,0.0,0.0,0.0,0.0,0.0,0.0,0.0,0.0,0.0,0.0,0.0,0.0,0.0,0.0,0.0,0.0,0.0,0.0,0.0,0.0,0.0,0.0,0.0,0.0,0.0,0.0,0.0,0.0,0.0,0.0,0.0,0.0,0.0,0.0,0.0,0.0,0.0,0.0,0.0,0.0,0.0,0.0,0.0,0.0,0.0,0.0,0.0,0.0,0.0,0.0,0.0,0.0,0.0,0.0,0.0,0.0,0.0,0.0,0.0,0.0,0.0,0.0,0.0,0.0,0.0,0.0,0.0,0.0,0.0,0.0,0.0,0.0,0.0,0.0,0.0,0.0,0.0,0.0,0.0,0.0,0.0,1.261,1.3028,1.3591,1.3686,1.3796,1.3915,0.0,0.0,0.0,0.0,0.0,0.0,0.0,0.0,0.0,0.0,0.0,0.0,0.0,0.0,0.0,0.0,0.0,0.0,0.0,0.0,0.0,0.0,0.0,0.0,0.0,0.0,0.0,0.0,0.0,0.0,0.0,0.0,0.0,0.0,0.0,0.0,0.0,0.0,0.0,0.0,0.0,0.0,0.0,0.0,0.0,0.0,0.0,0.0,0.0,0.0,0.0,0.0,0.0,0.0,0.0,0.0,0.0,0.0,0.0,0.0,0.0,0.0,0.0,0.0,0.0,0.0,0.0,0.0,0.0,0.0,0.0,0.0,0.0,0.0,0.0,0.0,0.0,0.0,0.0,0.0,0.0,0.0,0.0,0.0,0.0,0.0,0.0,0.0,0.0,0.0,0.0,0.0,0.0,0.0,0.0,0.0,0.0,0.0,0.0,0.0,0.0,0.0,0.0,0.0,0.0,0.0,0.0,0.0,1.2417,1.3148,1.3598,1.3698,1.3771,1.3861,0.0,0.0,0.0,0.0,0.0,0.0,0.0,0.0,0.0,0.0,0.0,0.0,0.0,0.0,0.0,0.0,0.0,0.0,0.0,0.0,0.0,0.0,0.0,0.0,0.0,0.0,0.0,0.0,0.0,0.0,0.0,0.0,0.0,0.0,0.0,0.0,0.0,0.0,0.0,0.0,0.0,0.0,0.0,0.0,0.0,0.0,0.0,0.0,0.0,0.0,0.0,0.0,0.0,0.0,0.0,0.0,0.0,0.0,0.0,0.0,0.0,0.0,0.0,0.0,0.0,0.0,0.0,0.0,0.0,0.0,0.0,0.0,0.0,0.0,0.0,0.0,0.0,0.0,0.0,0.0,0.0,0.0,0.0,0.0,0.0,0.0,0.0,0.0,0.0,0.0,0.0,0.0,0.0,0.0,0.0,0.0,0.0,0.0,0.0,0.0,0.0,0.0,0.0,0.0,0.0,0.0,0.0,0.0,0.0,1.315,1.3493,1.3686,1.3761,1.3801,1.3861,0.0,0.0,0.0,0.0,0.0,0.0,0.0,0.0,0.0,0.0,0.0,0.0,0.0,0.0,0.0,0.0,0.0,0.0,0.0,0.0,0.0,0.0,0.0,0.0,0.0,0.0,0.0,0.0,0.0,0.0,0.0,0.0,0.0,0.0,0.0,0.0,0.0,0.0,0.0,0.0,0.0,0.0,0.0,0.0,0.0,0.0,0.0,0.0,0.0,0.0,0.0,0.0,0.0,0.0,0.0,0.0,0.0,0.0,0.0,0.0,0.0,0.0,0.0,0.0,0.0,0.0,0.0,0.0,0.0,0.0,0.0,0.0,0.0,0.0,0.0,0.0,0.0,0.0,0.0,0.0,0.0,0.0,0.0,0.0,0.0,0.0,0.0,0.0,0.0,0.0,0.0,0.0,0.0,0.0,0.0,0.0,0.0,0.0,0.0,0.0,0.0,0.0,0.0,0.0,0.0,0.0,0.0,0.0,0.0,1.3619,0.0,1.3756,1.3834,1.3821,1.3897,0.0,0.0,0.0,0.0,0.0,0.0,0.0,0.0,0.0,0.0,0.0,0.0,0.0,0.0,0.0,0.0,0.0,0.0,0.0,0.0,0.0,0.0,0.0,0.0,0.0,0.0,0.0,0.0,0.0,0.0,0.0,0.0,0.0,0.0,0.0,0.0,0.0,0.0,0.0,0.0,0.0,0.0,0.0,0.0,0.0,0.0,0.0,0.0,0.0,0.0,0.0,0.0,0.0,0.0,0.0,0.0,0.0,0.0,0.0,0.0,0.0,0.0,0.0,0.0,0.0,0.0,0.0,0.0,0.0,0.0,0.0,0.0,0.0,0.0,0.0,0.0,0.0,0.0,0.0,0.0,0.0,0.0,0.0,0.0,0.0,0.0,0.0,0.0,0.0,0.0,0.0,0.0,0.0,0.0,0.0,0.0,0.0,0.0,0.0,0.0,0.0,0.0,0.0,0.0,0.0,0.0,0.0,0.0,1.371,1.3723,1.3771,1.3834,1.3906,1.3905,1.3927,0.0,0.0,0.0,0.0,0.0,0.0,0.0,0.0,0.0,0.0,0.0,0.0,0.0,0.0,0.0,0.0,0.0,0.0,0.0,0.0,0.0,0.0,0.0,0.0,0.0,0.0,0.0,0.0,0.0,0.0,0.0,0.0,0.0,0.0,0.0,0.0,0.0,0.0,0.0,0.0,0.0,0.0,0.0,0.0,0.0,0.0,0.0,0.0,0.0,0.0,0.0,0.0,0.0,0.0,0.0,0.0,0.0,0.0,0.0,0.0,0.0,0.0,0.0,0.0,0.0,0.0,0.0,0.0,0.0,0.0,0.0,0.0,0.0,0.0,0.0,0.0,0.0,0.0,0.0,0.0,0.0,0.0,0.0,0.0,0.0,0.0,0.0,0.0,0.0,0.0,0.0,0.0,0.0,0.0,0.0,0.0,0.0,0.0,0.0,0.0,0.0,0.0,0.0,0.0,0.0,0.0,0.0,0.0,0.0,1.4448,1.3976,1.3997,1.4543,1.4136,1.3945,0.0,0.0,0.0,0.0,0.0,0.0,0.0,0.0,0.0,0.0,0.0,0.0,0.0,0.0,0.0,0.0,0.0,0.0,0.0,0.0,0.0,0.0,0.0,0.0,0.0,0.0,0.0,0.0,0.0,0.0,0.0,0.0,0.0,0.0,0.0,0.0,0.0,0.0,0.0,0.0,0.0,0.0,0.0,0.0,0.0,0.0,0.0,0.0,0.0,0.0,0.0,0.0,0.0,0.0,0.0,0.0,0.0,0.0,0.0,0.0,0.0,0.0,0.0,0.0,0.0,0.0,0.0,0.0,0.0,0.0,0.0,0.0,0.0,0.0,0.0,0.0,0.0,0.0,0.0,0.0,0.0,0.0,0.0,0.0,0.0,0.0,0.0,0.0,0.0,0.0,0.0,0.0,0.0,0.0,0.0,0.0,0.0,0.0,0.0,0.0,0.0,0.0,0.0,0.0,0.0,0.0,0.0,0.0,0.0,1.631,1.5159,1.4784,1.5372,1.4691,1.4354,1.446,0.0,0.0,0.0,0.0,0.0,0.0,0.0,0.0,0.0,0.0,0.0,0.0,0.0,0.0,0.0,0.0,0.0,0.0,0.0,0.0,0.0,0.0,0.0,0.0,0.0,0.0,0.0,0.0,0.0,0.0,0.0,0.0,0.0,0.0,0.0,0.0,0.0,0.0,0.0,0.0,0.0,0.0,0.0,0.0,0.0,0.0,0.0,0.0,0.0,0.0,0.0,0.0,0.0,0.0,0.0,0.0,0.0,0.0,0.0,0.0,0.0,0.0,0.0,0.0,0.0,0.0,0.0,0.0,0.0,0.0,0.0,0.0,0.0,0.0,0.0,0.0,0.0,0.0,0.0,0.0,0.0,0.0,0.0,0.0,0.0,0.0,0.0,0.0,0.0,0.0,0.0,0.0,0.0,0.0,0.0,0.0,0.0,0.0,0.0,0.0,0.0,0.0,0.0,0.0,0.0,0.0,0.0,0.0,1.9149,1.7226,1.6287,1.6378,1.556,1.5139,0.0,0.0,0.0,0.0,0.0,0.0,0.0,0.0,0.0,0.0,0.0,0.0,0.0,0.0,0.0,0.0,0.0,0.0,0.0,0.0,0.0,0.0,0.0,0.0,0.0,0.0,0.0,0.0,0.0,0.0,0.0,0.0,0.0,0.0,0.0,0.0,0.0,0.0,0.0,0.0,0.0,0.0,0.0,0.0,0.0,0.0,0.0,0.0,0.0,0.0,0.0,0.0,0.0,0.0,0.0,0.0,0.0,0.0,0.0,0.0,0.0,0.0,0.0,0.0,0.0,0.0,0.0,0.0,0.0,0.0,0.0,0.0,0.0,0.0,0.0,0.0,0.0,0.0,0.0,0.0,0.0,0.0,0.0,0.0,0.0,0.0,0.0,0.0,0.0,0.0,0.0,0.0,0.0,0.0,0.0,0.0,0.0,0.0,0.0,0.0,0.0,0.0,0.0,0.0,0.0,0.0,0.0,0.0,0.0,1.9903,1.9978,1.9527,1.8637,1.695,1.5803,0.0,0.0,0.0,0.0,0.0,0.0,0.0,0.0,0.0,0.0,0.0,0.0,0.0,0.0,0.0,0.0,0.0,0.0,0.0,0.0,0.0,0.0,0.0,0.0,0.0,0.0,0.0,0.0,0.0,0.0,0.0,0.0,0.0,0.0,0.0,0.0,0.0,0.0,0.0,0.0,0.0,0.0,0.0,0.0,0.0,0.0,0.0,0.0,0.0,0.0,0.0,0.0,0.0,0.0,0.0,0.0,0.0,0.0,0.0,0.0,0.0,0.0,0.0,0.0,0.0,0.0,0.0,0.0,0.0,0.0,0.0,0.0,0.0,0.0,0.0,0.0,0.0,0.0,0.0,0.0,0.0,0.0,0.0,0.0,0.0,0.0,0.0,0.0,0.0,0.0,0.0,0.0,0.0,0.0,0.0,0.0,0.0,0.0,0.0,0.0,0.0,0.0,0.0,0.0,0.0,0.0,0.0,0.0,1.9307,2.1084,2.1639,2.173,2.1393,1.8987,1.7089,0.0,0.0,0.0,0.0,0.0,0.0,0.0,0.0,0.0,0.0,0.0,0.0,0.0,0.0,0.0,0.0,0.0,0.0,0.0,0.0,0.0,0.0,0.0,0.0,0.0,0.0,0.0,0.0,0.0,0.0,0.0,0.0,0.0,0.0,0.0,0.0,0.0,0.0,0.0,0.0,0.0,0.0,0.0,0.0,0.0,0.0,0.0,0.0,0.0,0.0,0.0,0.0,0.0,0.0,0.0,0.0,0.0,0.0,0.0,0.0,0.0,0.0,0.0,0.0,0.0,0.0,0.0,0.0,0.0,0.0,0.0,0.0,0.0,0.0,0.0,0.0,0.0,0.0,0.0,0.0,0.0,0.0,0.0,0.0,0.0,0.0,0.0,0.0,0.0,0.0,0.0,0.0,0.0,0.0,0.0,0.0,0.0,0.0,0.0,0.0,0.0,0.0,0.0,0.0,0.0,0.0,0.0,0.0,2.0026,2.2141,2.2508,2.3068,2.378,2.1045,1.8624,0.0,0.0,0.0,0.0,0.0,0.0,0.0,0.0,0.0,0.0,0.0,0.0,0.0,0.0,0.0,0.0,0.0,0.0,0.0,0.0,0.0,0.0,0.0,0.0,0.0,0.0,0.0,0.0,0.0,0.0,0.0,0.0,0.0,0.0,0.0,0.0,0.0,0.0,0.0,0.0,0.0,0.0,0.0,0.0,0.0,0.0,0.0,0.0,0.0,0.0,0.0,0.0,0.0,0.0,0.0,0.0,0.0,0.0,0.0,0.0,0.0,0.0,0.0,0.0,0.0,0.0,0.0,0.0,0.0,0.0,0.0,0.0,0.0,0.0,0.0,0.0,0.0,0.0,0.0,0.0,0.0,0.0,0.0,0.0,0.0,0.0,0.0,0.0,0.0,0.0,0.0,0.0,0.0,0.0,0.0,0.0,0.0,0.0,0.0,0.0,0.0,0.0,0.0,0.0,0.0,0.0,0.0,0.0,1.9747,2.1393,2.2646,2.3244,2.311,2.0874,1.8977,0.0,0.0,0.0,0.0,0.0,0.0,0.0,0.0,0.0,0.0,0.0,0.0,0.0,0.0,0.0,0.0,0.0,0.0,0.0,0.0,0.0,0.0,0.0,0.0,0.0,0.0,0.0,0.0,0.0,0.0,0.0,0.0,0.0,0.0,0.0,0.0,0.0,0.0,0.0,0.0,0.0,0.0,0.0,0.0,0.0,0.0,0.0,0.0,0.9801,0.0,0.0,0.0,0.0,0.0,0.0,0.0,0.0,0.0,0.0,0.0,0.0,0.0,0.0,0.0,0.0,0.0,0.0,0.0,0.0,0.0,0.0,0.0,0.0,0.0,0.0,0.0,0.0,0.0,0.0,0.0,0.0,0.0,0.0,0.0,0.0,0.0,0.0,0.0,0.0,0.0,0.0,0.0,0.0,0.0,0.0,0.0,0.0,0.0,0.0,0.0,0.0,0.0,0.0,0.0,0.0,0.0,0.0,0.0,1.965,2.117,2.1993,2.2518,2.2656,2.0354,1.8656,0.0,0.0,0.0,0.0,0.0,0.0,0.0,0.0,0.0,0.0,0.0,0.0,0.0,0.0,0.0,0.0,0.0,0.0,0.0,0.0,0.0,0.0,0.0,0.0,0.0,0.0,0.0,0.0,0.0,0.0,0.0,0.0,0.0,0.0,0.0,0.0,0.0,0.0,0.0,0.0,0.0,0.0,0.0,0.0,0.0,0.0,0.0,0.0,0.0,0.0,0.0,0.0,0.0,0.0,0.0,0.0,0.0,0.0,0.0,0.0,0.0,0.0,0.0,0.0,0.0,0.0,0.0,0.0,0.0,0.0,0.0,0.0,0.0,0.0,0.0,0.0,0.0,0.0,0.0,0.0,0.0,0.0,0.0,0.0,0.0,0.0,0.0,0.0,0.0,0.0,0.0,0.0,0.0,0.0,0.0,0.0,0.0,0.0,0.0,0.0,0.0,0.0,0.0,0.0,0.0,0.0,0.0,1.7579,1.9312,2.0767,2.0953,2.1445,2.2246,1.9709,1.8156,1.7814,0.0,0.0,0.0,0.0,0.0,0.0,0.0,0.0,0.0,0.0,0.0,0.0,0.0,0.0,0.0,0.0,0.0,0.0,0.0,0.0,0.0,0.0,0.0,0.0,0.0,0.0,0.0,0.0,0.0,0.0,0.0,0.0,0.0,0.0,0.0,0.0,0.0,0.0,1.0129,1.0044,0.0,0.0,0.0,0.0,0.0,0.0,0.0,0.0,1.2246,0.0,0.0,0.0,0.0,0.0,0.0,0.0,0.0,0.0,0.0,0.0,0.0,0.0,0.0,0.0,0.0,0.0,0.0,0.0,0.0,0.0,0.0,0.0,0.0,0.0,0.0,0.0,0.0,0.0,0.0,0.0,0.0,0.0,0.0,0.0,0.0,0.0,0.0,0.0,0.0,0.0,0.0,0.0,0.0,0.0,0.0,0.0,0.0,0.0,0.0,0.0,0.0,0.0,0.0,0.0,0.0,1.5615,1.657,1.7771,1.9232,1.9891,2.0489,2.101,1.9297,1.8145,1.7769,0.0,0.0,0.0,0.0,0.0,0.0,0.0,0.0,0.0,0.0,0.0,0.0,0.0,0.0,0.0,0.0,0.0,0.0,0.0,0.0,0.0,0.0,0.0,0.0,0.0,0.0,0.0,0.0,0.0,0.0,0.0,0.0,0.0,0.0,0.0,0.0,0.0,0.0,0.0,1.005,1.032,0.0,0.0,0.0,0.0,0.0,0.0,0.0,0.0,1.217,0.0,0.0,0.0,0.0,0.0,0.0,0.0,0.0,0.0,0.0,0.0,0.0,0.0,0.0,0.0,0.0,0.0,0.0,0.0,0.0,0.0,0.0,0.0,0.0,0.0,0.0,0.0,0.0,0.0,0.0,0.0,0.0,0.0,0.0,0.0,0.0,0.0,0.0,0.0,0.0,0.0,0.0,0.0,0.0,0.0,0.0,0.0,0.0,0.0,0.0,0.0,0.0,0.0,0.0,0.0,1.4965,1.6079,1.7186,1.829,1.9063,1.9369,1.9211,1.7814,1.6805,0.0,0.0,0.0,0.0,0.0,0.0,0.0,0.0,0.0,0.0,0.0,0.0,0.0,0.0,0.0,0.0,0.0,0.0,0.0,0.0,0.0,0.0,0.0,0.0,0.0,0.0,0.0,0.0,0.0,0.0,0.0,0.0,0.0,0.0,0.0,0.0,0.0,0.0,0.0,0.0,1.0746,1.1031,1.1872,0.0,0.0,0.0,0.0,0.0,0.0,1.366,1.3617,0.0,0.0,0.0,0.0,0.0,0.0,0.0,0.0,0.0,0.0,0.0,0.0,0.0,0.0,0.0,0.0,0.0,0.0,0.0,0.0,0.0,0.0,0.0,0.0,0.0,0.0,0.0,0.0,0.0,0.0,0.0,0.0,0.0,0.0,0.0,0.0,0.0,0.0,0.0,0.0,0.0,0.0,0.0,0.0,0.0,0.0,0.0,0.0,0.0,0.0,0.0,0.0,0.0,0.0,0.0,1.4413,1.5691,1.6755,1.7552,1.8138,1.8206,1.764,1.6365,1.5392,0.0,0.0,0.0,0.0,0.0,0.0,0.0,0.0,0.0,0.0,0.0,0.0,0.0,0.0,0.0,0.0,0.0,0.0,0.0,0.0,0.0,0.0,0.0,0.0,0.0,0.0,0.0,0.0,0.0,0.0,0.0,0.0,0.0,0.0,0.0,0.0,0.0,0.0,0.0,0.0,0.0,1.1959,1.2777,1.3366,0.0,0.0,0.0,0.0,1.4978,1.5193,0.0,0.0,0.0,0.0,0.0,0.0,0.0,0.0,0.0,0.0,0.0,0.0,0.0,0.0,0.0,0.0,0.0,0.0,0.0,0.0,0.0,0.0,0.0,0.0,0.0,0.0,0.0,0.0,0.0,0.0,0.0,0.0,0.0,0.0,0.0,0.0,0.0,0.0,0.0,0.0,0.0,0.0,0.0,0.0,0.0,0.0,0.0,0.0,0.0,0.0,0.0,0.0,0.0,0.0,0.0,0.0,1.4307,1.5177,1.6008,1.6711,1.6859,1.6986,1.7067,1.563,1.4882,0.0,0.0,0.0,0.0,0.0,0.0,0.0,0.0,0.0,0.0,0.0,0.0,0.0,0.0,0.0,0.0,0.0,0.0,0.0,0.0,0.0,0.0,0.0,0.0,0.0,0.0,0.0,0.0,0.0,0.0,0.0,0.0,0.0,0.0,0.0,0.0,0.0,0.0,0.0,0.0,0.0,1.2876,1.372,1.3605,1.3802,0.0,0.0,1.6227,1.5156,1.6219,0.0,0.0,0.0,0.0,0.0,0.0,0.0,0.0,0.0,0.0,0.0,0.0,0.0,0.0,0.0,0.0,0.0,0.0,0.0,0.0,0.0,0.0,0.0,0.0,0.0,0.0,0.0,0.0,0.0,0.0,0.0,0.0,0.0,0.0,0.0,0.0,0.0,0.0,0.0,0.0,0.0,0.0,0.0,0.0,0.0,0.0,0.0,0.0,0.0,0.0,0.0,0.0,0.0,0.0,0.0,1.327,1.3523,1.4367,1.496,1.5238,1.5752,1.5879,1.5577,1.4982,1.4512,0.0,0.0,0.0,0.0,0.0,0.0,0.0,0.0,0.0,0.0,0.0,0.0,0.0,0.0,0.0,0.0,0.0,0.0,0.0,0.0,0.0,0.0,0.0,0.0,0.0,0.0,0.0,0.0,0.0,0.0,0.0,0.0,0.0,0.0,0.0,0.0,0.0,0.0,0.0,0.0,0.0,0.0,1.3956,1.4238,0.0,0.0,0.0,1.6603,1.5909,0.0,0.0,0.0,0.0,0.0,0.0,0.0,0.0,0.0,0.0,0.0,0.0,0.0,0.0,0.0,0.0,0.0,0.0,0.0,0.0,0.0,0.0,0.0,0.0,0.0,0.0,0.0,0.0,0.0,0.0,0.0,0.0,0.0,0.0,0.0,0.0,0.0,0.0,0.0,0.0,0.0,0.0,0.0,0.0,0.0,0.0,0.0,0.0,0.0,0.0,0.0,0.0,0.0,0.0,0.0,0.0,0.0,1.2942,1.3842,1.4281,1.4246,1.4869,1.5006,1.452,1.4543,0.0,0.0,0.0,0.0,0.0,0.0,0.0,0.0,0.0,0.0,0.0,0.0,0.0,0.0,0.0,0.0,0.0,0.0,0.0,0.0,0.0,0.0,0.0,0.0,0.0,0.0,0.0,0.9156,0.0,0.0,0.0,0.0,0.0,0.0,0.0,0.0,0.0,0.0,0.0,0.0,0.0,0.0,1.4665,1.4665,1.4978,1.5372,0.0,0.0,1.6471,1.6448,1.7142,1.7604,0.0,0.0,0.0,0.0,0.0,0.0,0.0,0.0,0.0,0.0,0.0,0.0,0.0,0.0,0.0,0.0,0.0,0.0,0.0,0.0,0.0,0.0,0.0,0.0,0.0,0.0,0.0,0.0,0.0,0.0,0.0,0.0,0.0,0.0,0.0,0.0,0.0,0.0,0.0,0.0,0.0,0.0,0.0,0.0,0.0,0.0,0.0,0.0,0.0,0.0,0.0,0.0,0.0,0.0,0.0,1.303,1.3851,1.4276,1.4288,1.4402,1.4491,1.4504,1.4507,1.4169,0.0,0.0,0.0,0.0,0.0,0.0,0.0,0.0,0.0,0.0,0.0,0.0,0.0,0.0,0.0,0.0,0.0,0.0,0.0,0.0,0.0,0.0,0.0,0.0,0.0,0.0,0.0,0.0,0.0,0.0,0.0,0.0,0.0,0.0,0.0,0.0,0.0,0.0,0.0,0.0,0.0,1.6503,1.6428,1.5782,1.584,0.0,0.0,1.5596,1.6369,1.7173,1.7409,1.6624,0.0,0.0,0.0,0.0,0.0,0.0,0.0,0.0,0.0,0.0,0.0,0.0,0.0,0.0,0.0,0.0,0.0,0.0,0.0,0.0,0.0,0.0,0.0,0.0,0.0,0.0,0.0,0.0,0.0,0.0,0.0,0.0,0.0,0.0,0.0,0.0,0.0,0.0,0.0,0.0,0.0,0.0,0.0,0.0,0.0,0.0,0.0,0.0,0.0,0.0,0.0,0.0,0.0,1.2738,1.2703,1.3181,1.3397,1.335,1.3942,1.4124,1.3759,1.4691,1.4617,0.0,0.0,0.0,0.0,0.0,0.0,0.0,0.0,0.0,0.0,0.0,0.0,0.0,0.0,0.0,0.0,0.0,0.0,0.0,0.0,0.0,0.0,0.0,0.0,0.0,0.0,0.0,0.0,0.6682,0.6481,0.8294,0.0,0.0,0.0,0.0,0.0,0.0,0.0,0.0,0.0,0.0,1.669,1.666,1.6808,0.0,0.0,1.6861,1.6689,1.6524,1.7202,1.7622,1.7261,1.7021,0.0,0.0,0.0,0.0,0.0,0.0,0.0,0.0,0.0,0.0,0.0,0.0,0.0,0.0,0.0,0.0,0.0,0.0,0.0,0.0,0.0,0.0,0.0,0.0,0.0,0.0,0.0,0.0,0.0,0.0,0.0,0.0,0.0,0.0,0.0,0.0,0.0,0.0,0.0,0.0,0.0,0.0,0.0,0.0,0.0,0.0,0.0,0.0,0.0,0.0,0.0,0.0,1.2868,1.2835,1.3077,1.304,1.2703,1.3896,1.4224,1.3593,1.5042,1.5276,0.0,0.0,0.0,0.0,0.0,0.0,0.0,0.0,0.0,0.0,0.0,0.0,0.0,0.0,0.0,0.0,0.0,0.0,0.0,0.0,0.0,0.0,0.0,0.0,0.0,0.0,0.0,0.0,0.6411,0.6521,0.8741,0.0,0.0,0.0,0.0,0.0,0.0,0.0,0.0,0.0,0.0,1.6691,1.6687,1.7833,1.8311,1.7158,1.7001,1.6913,1.6568,1.6841,1.7124,1.7318,0.0,0.0,0.0,0.0,0.0,0.0,0.0,0.0,0.0,0.0,0.0,0.0,0.0,0.0,0.0,0.0,0.0,0.0,0.0,0.0,0.0,0.0,0.0,0.0,0.0,0.0,0.0,0.0,0.0,0.0,1.7433,0.0,0.0,0.0,0.0,0.0,0.0,0.0,0.0,0.0,0.0,0.0,0.0,0.0,0.0,0.0,0.0,0.0,0.0,0.0,0.0,0.0,0.0,1.3569,1.3595,1.3729,1.3485,1.2809,1.439,1.4888,1.4186,1.565,1.6107,1.5342,0.0,0.0,0.0,0.0,0.0,0.0,0.0,0.0,0.0,0.0,0.0,0.0,0.0,0.0,0.0,0.0,0.0,0.0,0.0,0.0,0.0,0.0,0.0,0.0,0.0,0.0,0.7738,0.7109,0.7665,0.0,0.0,0.0,0.0,0.0,0.0,0.0,0.0,0.0,0.0,1.615,1.668,1.6641,1.8826,1.9773,1.8078,1.6495,1.5724,1.6471,1.5896,1.5601,0.0,0.0,0.0,0.0,0.0,0.0,0.0,0.0,0.0,0.0,0.0,0.0,0.0,0.0,0.0,0.0,0.0,0.0,0.0,0.0,0.0,0.0,0.0,0.0,0.0,0.0,0.0,1.8395,1.8625,0.0,0.0,0.0,0.0,0.0,0.0,0.0,0.0,0.0,0.0,0.0,1.849,1.8908,0.0,0.0,0.0,0.0,0.0,0.0,0.0,0.0,0.0,0.0,0.0,0.0,1.3907,1.3977,1.3655,1.3664,1.3961,1.4718,1.5039,1.4901,1.6381,1.6609,1.5415,0.0,0.0,0.0,0.0,0.0,0.0,0.0,0.0,0.0,0.0,0.0,0.0,0.0,0.0,0.0,0.0,0.0,0.0,0.0,0.0,0.0,0.0,0.0,0.0,0.0,0.936,0.0,0.0,0.0,0.0,0.0,0.0,0.0,0.0,0.0,0.0,0.0,1.5351,1.5394,1.6152,1.669,1.6673,1.7928,1.8437,0.0,0.0,0.0,0.0,0.0,0.0,0.0,0.0,0.0,0.0,0.0,0.0,0.0,0.0,1.8789,1.8056,1.7881,1.7982,1.8441,0.0,0.0,0.0,0.0,0.0,0.0,0.0,0.0,0.0,0.0,0.0,0.0,0.0,0.0,1.9287,0.0,1.96,0.0,0.0,0.0,0.0,0.0,0.0,0.0,0.0,1.9385,1.9483,1.9527,1.9937,1.9941,0.0,1.9334,1.882,0.0,0.0,0.0,0.0,0.0,0.0,0.0,0.0,1.4382,1.4442,1.4158,1.4136,1.4437,1.5199,1.5558,1.5496,1.6784,1.6714,1.5041,1.3894,1.3328,0.0,0.0,0.0,0.0,0.0,0.0,0.0,0.0,0.0,0.0,0.0,0.0,0.0,0.0,0.0,0.0,0.0,0.0,0.0,0.0,0.0,0.0,0.0,0.9143,0.0,0.0,0.0,0.0,0.0,0.0,0.0,0.0,0.0,1.5216,1.5299,1.5316,1.5342,1.5852,1.6315,1.6628,0.0,0.0,0.0,0.0,0.0,0.0,0.0,1.6239,1.6223,1.6687,1.7236,1.7722,1.8667,1.9354,1.9277,0.0,0.0,1.8914,1.8846,1.8976,1.9418,1.9231,1.8971,1.8893,1.862,1.8366,0.0,0.0,0.0,0.0,0.0,0.0,0.0,0.0,2.0467,2.0225,0.0,2.1084,0.0,0.0,0.0,0.0,0.0,1.9383,0.0,0.0,2.1117,2.1108,2.1205,2.1234,2.1234,2.119,2.0754,2.0144,1.9428,1.841,0.0,0.0,0.0,0.0,0.0,0.0,1.5076,1.5121,1.5226,1.4964,1.4314,1.5807,1.6368,1.5891,1.69,1.6508,1.4463,1.4927,1.4662,1.3352,1.337,0.0,0.0,0.0,0.0,0.0,0.0,0.0,0.0,0.0,0.0,0.0,0.0,0.0,0.0,0.0,0.0,0.0,0.0,0.0,0.0,0.914,0.0,0.0,0.0,0.0,0.0,0.0,0.0,0.0,0.0,0.0,1.5441,1.5381,1.5334,1.5409,0.0,0.0,0.0,0.0,1.606,1.7663,1.8003,1.8052,1.7963,1.7949,1.7947,1.7878,0.0,0.0,1.7907,1.7917,1.796,1.7831,1.796,1.8226,1.9554,1.9698,1.9698,1.9688,1.9076,1.8485,1.8322,1.7923,1.7314,2.1121,0.0,0.0,0.0,0.0,1.9775,2.0245,2.1152,2.0996,2.0911,2.0933,2.1377,0.0,0.0,0.0,0.0,0.0,0.0,2.0874,2.1287,2.1574,2.1735,2.1807,2.22,2.2185,2.1771,2.163,2.1207,2.0546,2.0333,1.9192,1.7238,0.0,0.0,0.0,0.0,1.6428,1.6894,1.6107,1.5884,1.6371,1.5933,1.5959,1.6432,1.6942,1.6921,1.6287,1.5659,1.5151,1.4763,1.3405,0.0,0.0,0.0,0.0,0.0,0.0,0.0,0.0,0.0,0.0,0.0,0.0,0.0,0.0,0.0,0.0,0.0,0.0,0.0,1.308,1.0823,1.0199,0.0,0.0,0.0,0.0,0.0,0.0,0.0,0.0,0.0,1.6926,1.6471,1.6394,0.0,0.0,1.7164,1.7428,1.7285,1.7365,1.783,1.8941,0.0,1.8092,1.7928,1.7924,1.791,1.8409,1.902,1.9622,1.9696,1.964,1.9548,1.9549,1.9676,1.9883,1.9499,1.9301,1.9597,1.9549,1.9387,1.9282,1.9069,1.8886,2.2981,2.1275,2.0688,2.0936,2.1684,2.1498,2.2003,2.2951,2.2951,2.2686,2.2253,2.2705,2.223,2.1076,2.1169,0.0,0.0,0.0,2.2019,2.2636,2.297,2.3136,2.3151,2.3244,2.3122,2.2744,2.2527,2.1924,2.0988,2.1397,2.0552,1.8519,0.0,0.0,1.7584,1.7135,1.7199,1.7656,1.6922,1.6834,1.7471,1.66,1.6296,1.6602,1.685,1.7156,1.7505,1.6846,1.6513,1.6609,1.4644,1.3567,0.0,0.0,0.0,0.0,0.0,0.0,0.0,0.0,0.0,0.0,0.0,1.7474,1.7526,0.0,0.0,0.0,1.3829,1.322,1.2737,1.1708,0.0,0.0,0.0,0.0,0.0,0.0,0.0,1.7828,1.7728,1.7697,1.8026,1.7976,1.7856,1.7783,1.7757,1.7895,1.8258,0.0,1.811,1.878,1.9751,2.0042,1.904,1.8903,1.8933,1.8934,1.9375,1.9895,2.0382,2.0461,2.041,2.036,2.0328,2.0313,2.0203,1.9748,1.9476,1.9806,1.9871,1.9875,1.9824,1.9776,1.9719,2.4969,2.45,2.2658,2.2796,2.4191,2.3661,2.423,2.5481,2.5495,2.4899,2.3955,2.4614,2.3965,2.231,2.1713,0.0,2.255,2.2592,2.3393,2.4761,2.4785,2.4839,2.4863,2.423,2.3911,2.39,2.3342,2.2447,2.1256,2.19,2.1578,2.0277,1.9811,1.8932,1.7697,1.7596,1.7617,1.7764,1.7701,1.7723,1.7798,1.7516,1.7113,1.6571,1.6781,1.729,1.8114,1.8268,1.8372,1.8426,1.6575,1.4959,1.384,0.0,0.0,0.0,0.0,0.0,0.0,0.0,0.0,0.0,0.0,0.0,0.0,0.0,0.0,0.0,1.3327,0.0,1.1956,1.2585,0.0,0.0,0.0,1.6236,1.5376,1.6651,1.8165,1.9644,0.0,0.0,1.8902,1.9694,1.9683,1.8256,1.8067,1.8404,1.9271,1.8756,1.8706,2.0371,2.0646,2.0672,2.0626,2.0545,2.0521,2.0497,2.0607,2.0541,2.0508,2.0502,2.0466,2.042,2.0415,2.0363,2.0321,2.0263,2.0257,2.0036,2.0011,2.0019,1.9993,1.9909,1.9822,2.7445,2.6921,2.6251,2.521,2.4021,2.3835,2.414,2.475,2.4763,2.473,2.4736,2.5122,2.4896,2.4229,2.3884,2.3698,2.3631,2.4311,2.4576,2.4515,2.4712,2.4824,2.4785,2.4357,2.4052,2.3867,2.3412,2.2916,2.2468,2.2643,2.2323,2.1583,2.1436,2.0755,1.9577,1.9082,1.8956,1.9132,1.8624,1.8153,1.7731,1.7365,1.7072,1.6905,1.7371,1.7751,1.7966,1.8811,1.9045,1.8476,1.7069,1.6386,1.673,1.5592,0.0,0.0,0.0,0.0,0.0,0.0,0.0,0.0,0.0,1.991,2.022,0.0,1.9959,0.0,1.6291,1.524,1.8439,1.778,0.0,0.0,1.9295,1.9122,1.7099,1.8267,1.9391,1.9751,2.0195,2.0571,2.0834,2.1425,2.1719,2.1322,2.1375,2.1531,2.1801,2.1316,2.122,2.2037,2.2554,2.2744,2.2218,2.1754,2.1385,2.1411,2.0915,2.051,2.0503,2.0507,2.0497,2.0465,2.0424,2.04,2.0388,2.0334,2.0283,2.0241,2.018,2.0111,2.004,1.9979,1.9931,2.8425,2.7886,2.7908,2.7105,2.5767,2.5573,2.5615,2.5845,2.5845,2.5778,2.5698,2.5399,2.5081,2.4728,2.4416,2.423,2.4177,2.4888,2.5204,2.5195,2.5703,2.5706,2.5257,2.5232,2.4772,2.396,2.3936,2.3369,2.245,2.3025,2.2814,2.1765,2.2192,2.1917,2.0997,2.0114,1.9595,1.9465,1.9449,1.9048,1.8227,1.8268,1.8032,1.7517,1.7847,1.8265,1.877,1.9431,1.9675,1.9412,1.8104,1.73,1.718,1.6755,1.6878,0.0,0.0,0.0,0.0,0.0,0.0,0.0,0.0,0.0,0.0,0.0,2.15,2.1443,1.8351,1.7645,2.0726,2.0164,1.9832,2.0333,2.113,2.1092,1.9705,2.0364,2.1191,2.191,2.1879,2.1811,2.1869,2.2479,2.2915,2.2943,2.331,2.3352,2.2748,2.2575,2.2667,2.2762,2.327,2.3465,2.2897,2.2178,2.1698,2.1634,2.1029,2.0516,2.0516,2.0498,2.0508,2.0503,2.0465,2.0453,2.0439,2.0415,2.0371,2.0349,2.0328,2.0258,2.0109,2.0088,2.0054,2.8518,2.8157,2.8445,2.8375,2.8134,2.7798,2.7603,2.7527,2.7482,2.717,2.6641,2.5708,2.5145,2.4843,2.4515,2.4377,2.4514,2.511,2.5635,2.6169,2.697,2.6815,2.5896,2.6296,2.567,2.4177,2.4576,2.3815,2.2093,2.3174,2.3001,2.1657,2.2363,2.2457,2.1831,2.0784,2.0035,1.9566,2.0233,2.0087,1.9019,1.9504,1.9263,1.8248,1.8299,1.8843,1.9813,2.0063,2.0325,2.063,1.941,1.8236,1.7302,1.8023,1.8305,0.0,1.9903,0.0,0.0,0.0,0.0,0.0,0.0,0.0,0.0,2.3236,2.3087,2.2443,2.048,1.984,2.1353,2.1405,2.1384,2.1528,2.2149,2.26,2.2605,2.2583,2.3127,2.4531,2.3446,2.2576,2.268,2.3224,2.3674,2.3762,2.424,2.4207,2.3177,2.3324,2.3526,2.3052,2.3433,2.3765,2.3304,2.2592,2.204,2.1852,2.1227,2.0633,2.0502,2.0477,2.0505,2.0501,2.0508,2.05,2.0514,2.0503,2.0482,2.043,2.041,2.0341,2.0231,2.0182,2.0177,2.8497,2.8923,2.8405,2.8308,2.85,2.8412,2.8138,2.773,2.7267,2.7191,2.7268,2.6621,2.6289,2.6199,2.614,2.5858,2.5484,2.6436,2.6685,2.6368,2.6884,2.6819,2.624,2.6403,2.5949,2.4946,2.4778,2.4378,2.3709,2.3185,2.2783,2.2474,2.2144,2.1676,2.1063,0.0,0.0,0.0,2.1048,2.0804,2.0123,1.9731,1.9242,1.8635,1.8973,0.0,1.9673,2.0558,2.1098,2.122,2.0568,0.0,0.0,0.0,0.0,0.0,0.0,0.0,0.0,0.0,0.0,0.0,2.4744,2.4973,2.4849,2.5757,2.6155,2.5638,2.4699,2.4275,2.4661,2.4119,2.3762,2.3779,2.395,2.4118,2.4234,2.4084,2.4201,2.4609,2.4262,2.4051,2.4151,2.4388,2.4463,2.446,2.4618,2.4599,2.4309,2.4425,2.4581,2.4525,2.4585,2.4802,2.4822,2.4097,2.325,2.2748,2.1985,2.1238,2.0624,2.0455,2.0509,2.051,2.0505,2.0507,2.0501,2.0503,2.05,2.0471,2.0441,2.0365,2.0299,2.0227,2.0205,2.8254,0.0,2.8124,2.8234,0.0,2.8418,2.8251,2.8154,2.7452,2.7105,2.696,2.637,2.6268,2.6537,2.6242,2.596,2.5685,2.6524,2.6635,2.6184,2.6924,2.6871,2.6142,2.6854,2.634,2.4847,2.5296,2.4969,2.4072,2.3935,2.3504,2.2746,2.2595,2.2122,2.1314,2.1698,2.167,2.1205,2.1559,2.146,2.0902,2.0877,2.065,2.0165,2.0466,0.0,0.0,0.0,0.0,0.0,0.0,0.0,0.0,0.0,0.0,2.3666,2.3616,2.3585,2.369,2.4206,2.4524,2.4597,2.5511,2.5959,2.5626,2.6283,2.662,2.6414,2.6117,2.5807,2.5472,2.5087,2.4709,2.4457,2.4428,2.4497,2.4604,2.4486,2.4365,2.4265,2.4293,2.4418,2.4578,2.4602,2.4626,2.4673,2.4681,2.47,2.4707,2.4787,2.4854,2.4902,2.5025,2.5107,2.511,2.4548,2.3972,2.3411,2.2442,2.1578,2.1125,2.0701,2.0462,2.049,2.0511,2.0503,2.0546,2.0525,2.0512,2.0496,2.0464,2.0417,2.0355,2.0282,2.025,2.7933,2.7897,2.7702,2.7983,2.8518,2.8122,2.8151,2.8423,0.0,0.0,0.0,2.6251,2.6302,2.6738,2.6251,2.6038,2.6063,2.6508,2.6535,2.624,2.7033,2.6896,2.6012,2.7225,2.6745,2.4893,2.5747,2.5495,2.4242,2.4584,2.4187,2.3094,2.3077,2.2678,2.1977,2.2217,2.21,2.1551,2.2031,2.2036,2.1463,2.1953,2.2013,2.1545,2.1714,2.1709,2.1504,2.229,2.2645,2.2469,2.3122,2.365,2.405,2.4215,2.438,2.4561,2.4557,2.463,2.4785,2.4891,2.5011,2.516,2.5886,2.6333,2.6285,2.6477,2.6615,2.6703,2.6634,2.6348,2.574,2.556,2.5291,2.4801,2.4764,2.4801,2.4797,2.4689,2.4541,2.4241,2.4406,2.4478,2.4479,2.4637,2.4634,2.4639,2.4645,2.4692,2.47,2.4753,2.479,2.4867,2.4949,2.5031,2.4952,2.4457,2.4,2.3691,2.25,2.1601,2.1368,2.0858,2.048,2.0506,2.0501,2.0536,2.0591,2.0544,2.0507,2.0512,2.0498,2.048,2.0447,2.0372,2.0301,2.7798,2.7957,2.7243,2.7214,2.7672,2.778,2.7932,2.8067,2.8002,2.7946,2.7871,2.7795,2.7795,2.7871,2.7795,2.7758,2.772,2.7533,2.7424,2.7357,2.7169,2.6732,2.6128,2.6979,2.6881,2.6003,2.5889,2.569,2.5269,2.4121,2.3523,2.3609,2.2755,2.2289,2.2334,2.237,2.2483,2.2664,2.2759,2.2512,2.1916,2.1974,2.1791,2.1295,2.1475,2.1659,2.1831,2.2505,2.2812,2.2681,2.3415,2.4013,2.4411,2.4774,2.5261,2.5913,2.543,2.513,2.5212,2.5375,2.5599,2.5798,2.5524,2.6013,2.7705,2.8004,2.8103,2.8157,2.7659,2.7313,2.7172,2.6606,2.6195,2.6071,2.615,2.6046,2.5601,2.546,2.5442,2.5481,2.5345,2.4996,2.4597,2.4949,2.506,2.4604,2.4513,2.4569,2.4668,2.4715,2.4734,2.4794,2.483,2.4861,2.4859,2.4376,2.3782,2.2908,2.2182,2.1394,2.0795,2.0502,2.0383,2.0472,2.0504,2.0526,2.0584,2.056,2.0526,2.0508,2.0502,2.0492,2.0485,2.0429,2.0373,2.7977,2.8088,2.7229,2.7141,2.7564,2.7725,2.804,2.8414,2.8491,2.8275,2.7951,2.7926,2.8,2.8109,2.8109,2.8109,2.8097,2.7918,2.7725,2.7435,2.7357,2.6994,2.6497,2.6917,2.6828,2.6327,2.6186,2.5949,2.556,2.4853,2.4438,2.4231,2.3057,2.2464,2.239,2.2394,2.2555,2.2888,2.2888,2.2772,2.2512,2.249,2.2411,2.2242,2.2384,2.2444,2.239,2.3119,2.3441,2.3315,2.415,2.4778,2.5125,2.5513,2.5873,2.619,2.5925,2.5577,2.5263,2.5011,2.4968,2.5215,2.4998,2.5288,2.6416,2.7134,2.7803,2.8412,2.8218,2.7857,2.7496,2.715,2.6774,2.639,2.6388,2.6399,2.6428,2.6133,2.6126,2.6337,2.6084,2.5601,2.4975,2.5186,2.515,2.4552,2.4491,2.4603,2.4623,2.466,2.4715,2.4753,2.4791,2.4808,2.484,2.4663,2.4137,2.3438,2.2626,2.186,2.1078,2.0657,2.0376,2.0426,2.0444,2.0456,2.0478,2.0485,2.0503,2.0514,2.0506,2.0508,2.0505,2.0441,2.0385,2.8236,2.8207,2.7502,2.7266,2.7488,2.7701,2.8089,2.8526,2.8673,2.8509,2.8151,2.8126,2.8263,2.8399,2.8436,2.8486,2.8473,2.8348,2.7996,2.753,2.7533,2.7215,2.673,2.6841,2.678,2.647,2.6361,2.614,2.5804,2.5545,2.5118,2.4529,2.3592,2.3003,2.2737,2.258,2.2638,2.2888,2.2888,2.2888,2.2888,2.2888,2.2947,2.3045,2.3223,2.3177,2.302,2.3694,2.4035,2.3936,2.4789,2.5403,2.5589,2.5972,2.6185,2.6185,2.6185,2.5973,2.5461,2.4796,2.4508,2.4713,2.4608,2.4658,2.5031,2.5803,2.6845,2.7918,2.8098,2.7987,2.776,2.7676,2.7447,2.6885,2.6824,2.7041,2.7319,2.7053,2.6842,2.7061,2.6874,2.6418,2.5588,2.5421,2.5226,2.458,2.4493,2.4545,2.4549,2.4621,2.4676,2.4715,2.4753,2.4764,2.4779,2.4611,2.4321,2.3876,2.2884,2.2032,2.138,2.0761,2.0338,2.0334,2.0371,2.0388,2.0396,2.0443,2.048,2.05,2.0504,2.05,2.0507,2.046,2.0406,2.8429,2.8069,2.7927,2.7524,2.7099,2.7633,2.7817,2.776,2.8259,2.87,2.8934,2.9165,2.9232,2.9321,2.9501,2.9578,2.9541,2.9051,2.8524,2.8009,2.7555,2.7027,2.6656,2.6683,2.6701,2.6655,2.6355,2.6232,2.6245,2.5309,2.4683,2.4489,2.4201,2.3953,2.3696,2.3146,2.288,2.2888,2.2888,2.2888,2.2888,2.2888,2.2925,2.2925,2.3164,2.3334,2.3397,2.4048,2.4297,2.4261,2.5102,2.5516,2.5346,2.5844,2.6185,2.6185,2.6185,2.617,2.6054,2.5494,2.5113,2.508,2.4611,2.4399,2.4686,2.4827,2.5507,2.6712,2.7146,2.7592,2.8375,2.8442,2.8346,2.8214,2.8232,2.8413,2.8359,2.8431,2.8172,2.7525,2.79,2.7598,2.5805,2.567,2.5512,2.4366,2.4257,2.4367,2.4497,2.4588,2.4629,2.4676,2.4715,2.4715,2.4648,2.411,2.3891,2.3597,2.2376,2.1616,2.1248,2.0714,2.0139,2.0227,2.0268,2.0315,2.0357,2.04,2.0428,2.0463,2.0506,2.0507,2.0517,2.0507,2.0481,2.8694,2.844,2.8156,2.7821,2.7586,2.7402,2.7702,2.8333,2.8137,2.8447,2.9091,2.9302,2.938,2.9431,2.9521,2.956,2.9535,2.9451,2.9126,2.8599,2.836,2.7971,2.7492,2.715,2.7139,2.7283,2.6841,2.6618,2.6433,2.5678,2.4974,2.4571,2.4633,2.4458,2.3925,2.363,2.3302,2.2902,2.2888,2.2888,2.2888,2.2888,2.2888,2.291,2.2986,2.3223,2.3473,2.3754,2.4051,2.4421,2.4851,2.5095,2.5211,2.5661,2.5917,2.5901,2.6114,2.6185,2.6185,2.5923,2.5627,2.5229,2.4946,2.4694,2.4415,2.4117,2.443,2.5562,2.6473,2.7316,2.8085,2.8435,2.86,2.86,2.86,2.86,2.86,2.86,2.8449,2.8208,2.8395,2.7918,2.6204,2.531,2.4751,2.4168,2.4135,2.4248,2.4302,2.4461,2.458,2.4604,2.4653,2.47,2.4662,2.4497,2.4083,2.3535,2.2645,2.1846,2.126,2.0598,2.0074,2.013,2.0199,2.0265,2.0334,2.0353,2.0366,2.0434,2.0446,2.0455,2.049,2.0512,2.0487,2.8803,2.8749,2.8375,2.8219,2.8197,2.7784,2.8063,2.8774,2.8461,2.8599,2.9129,2.9258,2.944,2.9617,2.9545,2.947,2.947,2.9663,2.9478,2.8938,2.8888,2.8624,2.8097,2.7708,2.7561,2.7605,2.7343,2.6971,2.6615,2.6126,2.5486,2.4929,2.5001,2.4796,2.4278,2.4037,2.3673,2.3215,2.2989,2.2888,2.2888,2.2888,2.2888,2.2888,2.2925,2.3135,2.3487,2.3531,2.3818,2.4462,2.4549,2.4735,2.5059,2.5495,2.5738,2.5846,2.6061,2.6185,2.6185,2.6185,2.5989,2.5544,2.5494,2.5213,2.4562,2.412,2.4239,2.4953,2.5855,2.66,2.7277,2.7869,2.8167,2.8198,2.8399,2.86,2.86,2.86,2.86,2.86,2.8563,2.8027,2.6472,2.5026,2.4012,2.4034,2.4105,2.4163,2.4154,2.4365,2.4513,2.4476,2.4602,2.4673,2.4681,2.4651,2.4355,2.3669,2.2794,2.1997,2.1364,2.0533,2.001,2.0065,2.0135,2.0197,2.0265,2.0287,2.0334,2.0368,2.0404,2.0419,2.0467,2.0485,2.0503,2.8803,2.8803,2.8781,2.8727,2.8791,2.9091,2.9015,2.8788,2.923,2.9383,2.9209,2.9206,2.9544,3.0179,2.9938,2.9636,2.9482,2.9702,2.9503,2.8976,2.8938,2.8649,2.8134,2.8072,2.7844,2.7586,2.7566,2.7212,2.6511,2.6449,2.616,2.5574,2.5354,2.5121,2.4981,2.4375,2.3905,2.3833,2.3273,2.2917,2.2917,2.2902,2.2888,2.291,2.3015,2.3194,2.3444,2.3566,2.3782,2.4223,2.4462,2.467,2.4875,2.54,2.5846,2.6097,2.6185,2.6185,2.6185,2.6185,2.617,2.6137,2.6054,2.5874,2.5246,2.503,2.5046,2.5279,2.5159,2.5335,2.5787,2.6657,2.7205,2.7338,2.8059,2.8466,2.86,2.86,2.86,2.8582,2.8527,2.7846,2.6472,2.4914,2.4127,2.4014,2.4056,2.4114,2.4182,2.4312,2.4384,2.4452,2.4561,2.4681,2.4681,2.4681,2.4351,2.364,2.2828,2.2019,2.123,2.0544,2.0221,2.0,2.0065,2.0144,2.0197,2.0262,2.0327,2.0369,2.0383,2.0412,2.0425,2.0463,2.0487,2.8803,2.8836,2.9142,2.9083,2.8839,2.9273,2.9248,2.8947,2.9261,2.9359,2.9435,2.9863,2.993,2.9754,3.0515,3.0501,2.9992,2.9864,2.9679,2.9478,2.9478,2.9365,2.9176,2.8812,2.8623,2.8494,2.825,2.7678,2.7009,2.7006,2.6948,2.664,2.6456,2.6317,2.6095,2.547,2.4946,2.45,2.3876,2.3519,2.3447,2.3142,2.2888,2.2888,2.2947,2.306,2.3223,2.3444,2.3769,2.4255,2.4467,2.4751,2.5056,2.546,2.5846,2.615,2.6185,2.6185,2.6185,2.6185,2.6185,2.6185,2.6185,2.612,2.5841,2.5478,2.523,2.5196,2.4804,2.4547,2.4563,2.5456,2.6456,2.7041,2.7423,2.7895,2.8417,2.86,2.86,2.8527,2.8183,2.7381,2.6444,2.5328,2.4507,2.4065,2.3996,2.4066,2.4116,2.421,2.4312,2.4393,2.4522,2.4629,2.4629,2.4676,2.4399,2.3626,2.2807,2.2007,2.1211,2.042,1.9968,1.9993,2.003,2.0108,2.0171,2.0249,2.0315,2.033,2.035,2.0374,2.0383,2.0425,2.0463,2.8803,2.8858,2.9153,2.9297,2.9277,2.9428,2.9568,2.9584,2.9731,2.9828,2.9979,3.0583,3.0641,3.0421,3.1054,3.1283,3.0832,3.0328,3.0068,3.0043,2.9867,2.9892,2.9955,2.9478,2.9214,2.9173,2.8645,2.8046,2.7574,2.7533,2.7434,2.7242,2.7483,2.7352,2.6883,2.6379,2.572,2.4936,2.421,2.3818,2.3572,2.3142,2.2888,2.2888,2.2888,2.2978,2.3171,2.3378,2.3726,2.4135,2.4364,2.469,2.5173,2.5516,2.5846,2.615,2.6185,2.6185,2.6185,2.6185,2.6185,2.6185,2.6185,2.6185,2.617,2.5791,2.5595,2.5463,2.5012,2.4468,2.4409,2.4947,2.5588,2.6139,2.6438,2.7041,2.7974,2.8399,2.8569,2.8491,2.7912,2.7206,2.6602,2.5694,2.4918,2.4293,2.4135,2.4006,2.4029,2.4173,2.4266,2.4321,2.4393,2.4471,2.453,2.4586,2.4039,2.3254,2.2893,2.2076,2.1111,2.0339,1.9953,1.998,2.0029,2.0084,2.0164,2.024,2.0265,2.0284,2.0301,2.0331,2.0353,2.0396,2.0421,2.8803,2.8814,2.8814,2.9368,2.9909,2.9771,3.0045,3.0601,3.0747,3.07,3.0694,3.1203,3.1574,3.1901,3.1662,3.1725,3.1721,3.1072,3.0658,3.0583,3.0143,3.0181,3.0557,3.0055,2.972,2.9548,2.8695,2.8261,2.8218,2.809,2.7886,2.7703,2.8334,2.8153,2.7172,2.6909,2.617,2.5125,2.437,2.3702,2.3004,2.296,2.2888,2.2888,2.2888,2.3,2.3253,2.3422,2.3661,2.3961,2.4166,2.4544,2.5173,2.5535,2.5862,2.6132,2.6185,2.6185,2.6185,2.6185,2.6185,2.6185,2.6185,2.6185,2.6169,2.6154,2.6123,2.6061,2.568,2.528,2.5194,2.5026,2.4787,2.4432,2.5332,2.6187,2.7072,2.801,2.86,2.8509,2.7966,2.7477,2.7091,2.6222,2.5273,2.4867,2.4428,2.4026,2.4014,2.4154,2.4284,2.4266,2.4321,2.4401,2.4471,2.4427,2.361,2.2865,2.2691,2.2187,2.1041,2.017,2.0056,2.0057,1.9985,2.0043,2.0088,2.0167,2.022,2.0238,2.0254,2.0287,2.0327,2.0354,2.0387,2.8803,2.8847,2.9164,2.9427,2.9782,3.0215,3.0479,3.0487,3.1014,3.1089,3.0959,3.1626,3.1851,3.1851,3.2227,3.2215,3.1675,3.1637,3.1524,3.1185,3.0947,3.0947,3.1009,3.0595,3.0238,3.0098,2.9881,2.9647,2.9499,2.9462,2.9372,2.9233,2.9265,2.8969,2.8194,2.7683,2.6956,2.617,2.511,2.4471,2.4196,2.3374,2.2902,2.2888,2.2888,2.2955,2.3045,2.3385,2.361,2.3739,2.4287,2.4895,2.5422,2.5629,2.5864,2.6133,2.6185,2.6185,2.6185,2.6185,2.6185,2.6185,2.6185,2.6185,2.6185,2.6185,2.6203,2.6222,2.6008,2.5778,2.5414,2.5244,2.5071,2.4847,2.5211,2.5791,2.6718,2.7859,2.8496,2.8582,2.8364,2.802,2.7514,2.6717,2.6168,2.5262,2.4813,2.4529,2.4198,2.4102,2.4209,2.4303,2.4348,2.4401,2.4461,2.4491,2.4025,2.3386,2.3045,2.2485,2.1284,2.0414,2.0295,2.0061,2.0006,2.0001,2.005,2.0098,2.013,2.0188,2.0226,2.0254,2.0292,2.0313,2.0357,2.8803,2.8836,2.9132,2.9369,2.953,3.0157,3.0456,3.0526,3.1168,3.1418,3.1545,3.2082,3.2256,3.2202,3.2822,3.2709,3.2089,3.2403,3.2353,3.1964,3.1512,3.1499,3.1619,3.1242,3.0777,3.047,3.0459,3.051,3.0457,3.0483,3.0396,3.0262,3.0315,2.9918,2.9073,2.839,2.7694,2.6806,2.5734,2.4994,2.4481,2.3717,2.3157,2.2931,2.2888,2.2888,2.2947,2.3297,2.3523,2.3702,2.4354,2.5072,2.561,2.5701,2.5846,2.6115,2.6185,2.6185,2.6185,2.6185,2.6185,2.6185,2.6185,2.6185,2.6185,2.6185,2.6185,2.6185,2.617,2.6039,2.5728,2.5732,2.5626,2.5332,2.5213,2.5582,2.6486,2.7746,2.8482,2.8549,2.8543,2.8303,2.8002,2.7459,2.7061,2.6059,2.5371,2.5005,2.4538,2.42,2.4195,2.4266,2.4435,2.4486,2.4503,2.447,2.4399,2.3992,2.3596,2.282,2.1802,2.1065,2.0696,2.015,1.9938,1.9961,2.0001,2.0021,2.005,2.0112,2.018,2.0241,2.0277,2.0295,2.0314,2.885,2.8896,2.885,2.9196,2.9531,2.9657,3.0136,3.0836,3.1226,3.1721,3.2271,3.2525,3.2778,3.3031,3.3099,3.3036,3.3099,3.2968,3.298,3.2734,3.2168,3.1879,3.2129,3.2106,3.1656,3.093,3.094,3.0998,3.1209,3.1129,3.094,3.094,3.1157,3.087,2.974,2.9029,2.8055,2.6982,2.6141,2.5168,2.4138,2.3914,2.3534,2.2931,2.2888,2.291,2.2955,2.3231,2.348,2.3724,2.4431,2.5056,2.5554,2.5701,2.5846,2.6151,2.6185,2.6185,2.6185,2.6185,2.6185,2.6185,2.6185,2.6185,2.6185,2.6185,2.6185,2.6185,2.6185,2.6185,2.6156,2.6212,2.6118,2.5808,2.5322,2.5438,2.6276,2.758,2.8275,2.8368,2.8412,2.8487,2.8448,2.7899,2.7519,2.7019,2.6005,2.5404,2.4973,2.4532,2.4057,2.4117,2.4382,2.4486,2.4469,2.4458,2.4433,2.4382,2.4016,2.336,2.2384,2.1628,2.0959,2.0414,1.989,1.9934,1.9958,1.9955,1.9996,2.0074,2.0144,2.0235,2.0319,2.0377,2.0564,2.9531,2.9806,2.9439,2.9577,2.9988,3.0034,3.0352,3.0949,3.154,3.1981,3.2388,3.2593,3.2853,3.3068,3.3124,3.3124,3.3124,3.3124,3.3124,3.3086,3.286,3.2638,3.2877,3.3301,3.3159,3.2537,3.2305,3.2405,3.2327,3.2072,3.1868,3.1662,3.163,3.1197,3.0305,2.9232,2.8303,2.7432,2.6329,2.5483,2.4704,2.4138,2.3572,2.296,2.2902,2.2933,2.306,2.3466,2.3846,2.4188,2.4558,2.5056,2.5629,2.5719,2.5846,2.6115,2.6185,2.6185,2.6185,2.6185,2.6185,2.6185,2.6185,2.6185,2.6185,2.6185,2.6185,2.6185,2.6185,2.6185,2.6205,2.6277,2.637,2.6501,2.5747,2.5337,2.6045,2.7233,2.8076,2.7614,2.8056,2.8337,2.8425,2.8319,2.7952,2.7411,2.6632,2.5705,2.5288,2.4511,2.3899,2.4047,2.4238,2.4356,2.4426,2.4434,2.4483,2.4588,2.4379,2.4038,2.2989,2.1992,2.136,2.0759,2.0051,1.9879,1.9908,1.9911,1.9977,2.0025,2.0112,2.019,2.0467,2.0623,2.0993,2.976,3.017,2.9897,2.9943,3.0216,3.0408,3.0679,3.0994,3.1584,3.2038,3.2257,3.2475,3.2692,3.2939,3.3038,3.3124,3.3111,3.3283,3.3368,3.3441,3.3755,3.3572,3.3284,3.3751,3.3887,3.3326,3.3198,3.3213,3.3262,3.2971,3.2751,3.2585,3.2202,3.1616,3.09,2.9479,2.8521,2.7955,2.6881,2.5919,2.527,2.4631,2.3992,2.3389,2.3113,2.297,2.3149,2.3538,2.4057,2.4497,2.4759,2.513,2.5791,2.5756,2.5846,2.6151,2.6185,2.6185,2.6185,2.6185,2.6185,2.6185,2.6185,2.6185,2.6185,2.6185,2.6185,2.6185,2.6185,2.6185,2.6221,2.6329,2.6606,2.6871,2.6482,2.6228,2.6464,2.5987,2.6511,2.7063,2.7643,2.796,2.8316,2.8445,2.8268,2.7843,2.7224,2.6337,2.5545,2.4581,2.3907,2.4072,2.4142,2.4238,2.4384,2.4426,2.4495,2.4602,2.4609,2.4334,2.357,2.2443,2.171,2.1072,2.0333,1.982,1.9874,1.9915,1.9941,2.0017,2.0079,2.0197,2.0442,2.0812,2.1193,2.9897,3.0352,3.0306,3.0261,3.0352,3.0713,3.0859,3.0994,3.1484,3.1805,3.2038,3.23,3.2562,3.2711,3.3111,3.3167,3.3124,3.3569,3.3768,3.4021,3.4413,3.4397,3.3578,3.4151,3.4246,3.379,3.3384,3.354,3.373,3.3499,3.3342,3.3159,3.2724,3.222,3.1322,2.9711,2.8796,2.8433,2.7358,2.6384,2.5691,2.5027,2.4375,2.3789,2.324,2.3052,2.3223,2.3618,2.4141,2.4784,2.4839,2.5285,2.5989,2.5828,2.5917,2.6115,2.6185,2.6185,2.6185,2.6185,2.6185,2.6185,2.6185,2.6185,2.6185,2.6185,2.6185,2.6185,2.6185,2.6221,2.631,2.6485,2.6725,2.7004,2.728,2.7562,2.7181,2.4972,2.4396,2.7368,2.7258,2.7517,2.7946,2.8327,2.8362,2.8139,2.7559,2.6808,2.5842,2.4834,2.4309,2.415,2.4147,2.4114,2.4275,2.4419,2.4497,2.4588,2.465,2.4459,2.3979,2.3044,2.218,2.1429,2.0822,2.0264,1.9892,1.9926,1.9987,2.0012,2.0079,2.0188,2.0358,2.0801,2.1226,3.0892,3.1339,3.0892,3.0769,3.0758,3.0859,3.0904,3.0994,3.1484,3.1805,3.2038,3.2269,3.2506,3.2766,3.327,3.3386,3.3283,3.3865,3.4272,3.4356,3.4825,3.495,3.4655,3.5076,3.5224,3.4899,3.414,3.3846,3.3888,3.3631,3.3318,3.3306,3.2869,3.2454,3.1975,2.9914,2.8694,2.8476,2.7459,2.6504,2.585,2.5143,2.4476,2.3871,2.3434,2.3253,2.3341,2.3726,2.4135,2.4497,2.4902,2.5381,2.5754,2.5972,2.6114,2.615,2.6185,2.6185,2.6185,2.6185,2.6185,2.6185,2.6185,2.6185,2.6185,2.6185,2.6185,2.6185,2.6203,2.6291,2.6468,2.6657,2.6825,2.7006,2.7005,2.7149,2.7357,2.7026,2.6827,2.7003,2.7458,2.7857,2.8142,2.8223,2.8242,2.8246,2.7844,2.7216,2.6277,2.5241,2.4772,2.4507,2.4135,2.4095,2.4191,2.4338,2.4488,2.4572,2.4653,2.4662,2.4182,2.3769,2.295,2.2156,2.1393,2.086,2.0312,2.007,2.0155,2.0119,2.0127,2.0321,2.057,2.0939,2.1262,3.1217,3.1661,3.1395,3.1261,3.1261,3.125,3.125,3.1306,3.1572,3.1761,3.1937,3.2257,3.255,3.2871,3.3428,3.3641,3.3865,3.4369,3.4743,3.4825,3.5154,3.5277,3.5195,3.548,3.5696,3.552,3.4683,3.4306,3.426,3.3878,3.3652,3.3691,3.2941,3.2539,3.215,2.9987,2.8825,2.8462,2.7447,2.6591,2.6199,2.5274,2.4288,2.3647,2.3377,2.3378,2.3341,2.3888,2.4156,2.441,2.4977,2.5497,2.5701,2.6008,2.6151,2.6185,2.6185,2.6185,2.6185,2.6185,2.6185,2.6185,2.6185,2.6185,2.6185,2.6185,2.6185,2.6185,2.6221,2.6292,2.6571,2.6657,2.6809,2.6957,2.6841,2.6923,2.7355,2.7689,2.7744,2.7264,2.7275,2.7586,2.783,2.8063,2.814,2.8151,2.8201,2.7614,2.7187,2.6183,2.5373,2.4904,2.4332,2.4103,2.4153,2.4275,2.4444,2.4555,2.4653,2.4684,2.4493,2.4163,2.3795,2.2945,2.2082,2.1387,2.0904,2.065,2.0318,2.015,2.0183,2.0479,2.0764,2.1039,2.138,3.1306,3.1705,3.1705,3.1705,3.1705,3.1705,3.1661,3.1705,3.1705,3.1761,3.1881,3.2288,3.2754,3.3172,3.3755,3.4176,3.4605,3.4825,3.5031,3.5236,3.548,3.548,3.5399,3.5562,3.5696,3.5628,3.5016,3.4875,3.4761,3.4377,3.4074,3.4057,3.3119,3.2553,3.1961,3.0089,2.8796,2.8724,2.752,2.6922,2.6672,2.56,2.4278,2.3374,2.34,2.3509,2.3603,2.4036,2.439,2.4183,2.5134,2.5591,2.5775,2.599,2.6185,2.6185,2.6185,2.6185,2.6185,2.6185,2.6185,2.6185,2.6185,2.6185,2.6185,2.6185,2.6185,2.6203,2.6239,2.6312,2.6589,2.6708,2.6842,2.6989,2.6923,2.7054,2.7293,2.7569,2.7681,2.7689,2.7429,2.7521,2.777,2.8,2.8028,2.8071,2.8109,2.8021,2.7598,2.7115,2.6296,2.5172,2.4508,2.4079,2.4085,2.4163,2.4338,2.45,2.4617,2.4645,2.465,2.4493,2.4118,2.3569,2.2802,2.2152,2.1538,2.1152,2.077,2.0337,2.0207,2.045,2.0764,2.1116,2.1548,3.1617,3.1705,3.1705,3.1705,3.1705,3.1705,3.1705,3.1705,3.1717,3.1925,3.23,3.2711,3.3129,3.367,3.4522,3.5072,3.5263,3.5277,3.5318,3.5521,3.5669,3.5602,3.5602,3.5629,3.571,3.5667,3.5407,3.5276,3.5068,3.4768,3.4329,3.3824,3.2973,3.251,3.1845,3.0132,2.9015,2.9044,2.7781,2.7181,2.7103,2.5875,2.4449,2.3444,2.3598,2.3711,2.3867,2.4333,2.4715,2.4735,2.5326,2.5629,2.5775,2.6025,2.6168,2.6185,2.6185,2.6185,2.6185,2.6185,2.6185,2.6185,2.6185,2.6185,2.6185,2.6185,2.6203,2.6221,2.6276,2.6383,2.6657,2.6842,2.6989,2.7133,2.7322,2.7415,2.7369,2.7507,2.7701,2.7713,2.7558,2.7487,2.7751,2.7914,2.7943,2.7986,2.8028,2.8056,2.7857,2.7553,2.7147,2.5895,2.4583,2.4236,2.4006,2.4077,2.4201,2.4414,2.4512,2.4555,2.4586,2.4668,2.4373,2.3881,2.3531,2.3046,2.2438,2.1833,2.146,2.1195,2.0852,2.0467,2.0886,2.1365,2.1872,3.1705,3.1705,3.1705,3.1849,3.1981,3.1805,3.1849,3.1981,3.1837,3.1981,3.2419,3.2828,3.3416,3.4105,3.4784,3.5318,3.5548,3.5548,3.5507,3.5669,3.571,3.571,3.571,3.571,3.5884,3.592,3.5859,3.5515,3.5119,3.4746,3.4433,3.396,3.3071,3.2495,3.2017,3.0379,2.9508,2.9204,2.8173,2.7416,2.7613,2.6013,2.4708,2.4118,2.3819,2.3839,2.4078,2.4599,2.4934,2.5088,2.5605,2.5775,2.5846,2.6023,2.6202,2.6202,2.6185,2.6185,2.6185,2.6185,2.6185,2.6185,2.6185,2.6185,2.6185,2.6203,2.6221,2.6258,2.6277,2.64,2.664,2.6924,2.7085,2.7197,2.7476,2.7582,2.7519,2.7627,2.7686,2.7716,2.7646,2.7643,2.7757,2.7871,2.7871,2.7885,2.7946,2.7961,2.7978,2.7805,2.7534,2.6389,2.5111,2.4888,2.4584,2.447,2.4405,2.4502,2.4533,2.4567,2.452,2.4586,2.4575,2.4332,2.4001,2.3736,2.3369,2.2804,2.2429,2.1994,2.1487,2.1144,2.1281,2.1633,2.2194,3.1705,3.1705,3.1705,3.1981,3.23,3.2025,3.2113,3.2376,3.2145,3.232,3.2766,3.3185,3.381,3.4522,3.5031,3.5399,3.571,3.5669,3.5669,3.5669,3.571,3.571,3.571,3.5764,3.5844,3.6029,3.6066,3.5718,3.5325,3.4936,3.4607,3.4061,3.3119,3.2481,3.206,3.0494,2.99,2.9392,2.8565,2.7869,2.7278,2.627,2.5204,2.4728,2.4453,2.4573,2.4898,2.5333,2.5566,2.5696,2.5919,2.6078,2.5917,2.6193,2.6401,2.6402,2.6303,2.6185,2.6185,2.6185,2.6185,2.6185,2.6185,2.6185,2.6185,2.6203,2.6222,2.6294,2.6295,2.6382,2.6606,2.6858,2.7053,2.7228,2.7446,2.7657,2.7672,2.7701,2.7701,2.7716,2.7716,2.7748,2.7795,2.7795,2.7795,2.7777,2.7839,2.7821,2.7839,2.7871,2.7483,2.6597,2.5813,2.5626,2.5369,2.5071,2.4946,2.4855,2.4795,2.4737,2.4631,2.4518,2.45,2.45,2.4538,2.4257,2.3988,2.3692,2.3183,2.2629,2.2057,2.1669,2.1517,2.1972,2.2665,3.1705,3.1705,3.1705,3.1981,3.2344,3.2356,3.255,3.2871,3.2815,3.3258,3.3738,3.4105,3.4564,3.5154,3.548,3.5629,3.5669,3.571,3.571,3.571,3.571,3.571,3.571,3.571,3.5723,3.5854,3.5933,3.5855,3.5536,3.5286,3.4907,3.4269,3.3206,3.2481,3.2278,3.0668,2.9987,3.0118,2.9174,2.8123,2.7287,2.6653,2.609,2.5854,2.5923,2.615,2.624,2.6467,2.6636,2.6722,2.6403,2.625,2.6249,2.6814,2.71,2.6984,2.6634,2.6185,2.6268,2.6401,2.6385,2.6402,2.6285,2.6202,2.6219,2.6319,2.6372,2.6294,2.6345,2.6416,2.6606,2.6758,2.6956,2.7182,2.7402,2.76,2.7657,2.7716,2.7716,2.7716,2.7716,2.7716,2.7748,2.7716,2.7716,2.7716,2.7716,2.7716,2.773,2.7763,2.7747,2.6969,2.6379,2.6172,2.6165,2.5875,2.5629,2.5401,2.5116,2.4964,2.4774,2.4641,2.4545,2.4575,2.4653,2.4681,2.4415,2.4084,2.3744,2.3354,2.2882,2.2195,2.1497,2.2206,2.3002,3.1705,3.1749,3.1981,3.2213,3.2431,3.2636,3.2828,3.2957,3.2988,3.333,3.3894,3.4259,3.4812,3.5467,3.5669,3.571,3.571,3.571,3.571,3.571,3.571,3.571,3.571,3.571,3.571,3.5638,3.5582,3.5438,3.5386,3.5331,3.5087,3.4312,3.3191,3.2481,3.2454,3.0959,3.051,3.0176,2.9377,2.8384,2.7659,2.695,2.6473,2.6374,2.6459,2.6716,2.7068,2.7187,2.7447,2.7629,2.751,2.7446,2.7514,2.7746,2.7928,2.7895,2.7663,2.728,2.6967,2.7197,2.7131,2.6899,2.6766,2.6667,2.6468,2.6717,2.6788,2.6432,2.6783,2.6871,2.6725,2.6825,2.6989,2.7182,2.7373,2.7539,2.7659,2.7686,2.7716,2.7716,2.7716,2.7716,2.7716,2.7716,2.7716,2.7716,2.7716,2.7716,2.7716,2.7716,2.7694,2.7539,2.7063,2.6685,2.6777,2.6717,2.6471,2.6143,2.5462,2.5269,2.4962,2.481,2.4725,2.4632,2.4617,2.4637,2.4681,2.4524,2.4231,2.4004,2.3752,2.3072,2.2427,2.2257,2.3149,3.1749,3.1893,3.2257,3.2519,3.2723,3.3043,3.3245,3.333,3.3373,3.3628,3.405,3.4551,3.5141,3.5588,3.5669,3.571,3.571,3.571,3.571,3.571,3.571,3.571,3.571,3.571,3.5615,3.5493,3.5537,3.5218,3.5034,3.5103,3.5072,3.4399,3.3398,3.2875,3.244,3.154,3.083,3.0526,2.9696,2.8959,2.8343,2.7535,2.721,2.7049,2.7002,2.7121,2.7672,2.7779,2.8119,2.8468,2.834,2.8194,2.826,2.8475,2.8624,2.8707,2.8704,2.8588,2.8174,2.8094,2.8044,2.7746,2.7431,2.7197,2.7098,2.7528,2.7601,2.6902,2.7119,2.7108,2.6894,2.6825,2.694,2.7103,2.731,2.7494,2.7659,2.7672,2.7701,2.7716,2.7716,2.7716,2.7716,2.7716,2.7716,2.7716,2.7716,2.7716,2.7716,2.7716,2.7689,2.7664,2.7536,2.7234,2.7384,2.7402,2.7221,2.6898,2.6204,2.5768,2.5575,2.5201,2.4958,2.4828,2.473,2.5055,2.5364,2.5053,2.4731,2.4443,2.4171,2.3961,2.3543,2.3233,2.3621,3.1937,3.2344,3.24,3.284,3.3543,3.3628,3.3894,3.4092,3.423,3.4481,3.4908,3.5358,3.5521,3.5669,3.571,3.571,3.571,3.571,3.571,3.571,3.571,3.571,3.571,3.5655,3.5452,3.5136,3.5329,3.512,3.4679,3.4973,3.4839,3.4385,3.3616,3.3489,3.298,3.2021,3.1225,3.0865,3.0205,2.9683,2.9169,2.8596,2.8253,2.8018,2.8276,2.8739,2.924,2.8947,2.8923,2.9277,2.8953,2.8724,2.8873,2.9152,2.9334,2.9433,2.9761,2.9612,2.9284,2.8837,2.8459,2.8227,2.8009,2.786,2.786,2.8555,2.8417,2.7601,2.7653,2.7342,2.6994,2.6741,2.6908,2.7023,2.7231,2.743,2.7582,2.7659,2.7672,2.7701,2.7716,2.7716,2.7716,2.7716,2.7716,2.7716,2.7716,2.7716,2.7716,2.7716,2.7716,2.7725,2.778,2.7791,2.8008,2.7973,2.7883,2.7533,2.6952,2.6611,2.6369,2.5923,2.5386,2.5151,2.5134,2.5604,2.5988,2.5795,2.5472,2.4933,2.4573,2.4424,2.4436,2.4269,2.4937,3.2785,3.3185,3.3185,3.3215,3.3343,3.3894,3.405,3.4008,3.4272,3.466,3.5113,3.5399,3.5602,3.5669,3.571,3.571,3.571,3.571,3.571,3.571,3.571,3.571,3.571,3.5628,3.5425,3.5026,3.5221,3.5101,3.4359,3.4764,3.4631,3.4269,3.3804,3.3576,3.3082,3.2436,3.1741,3.1246,3.0601,2.9888,2.9374,2.8985,2.8632,2.8387,2.8614,2.9182,2.9629,2.9648,2.9796,2.9873,2.9728,2.9632,2.9549,2.9877,2.9976,2.9992,3.0373,3.0274,3.0125,2.9748,2.9516,2.9052,2.882,2.8655,2.8641,2.8969,2.8862,2.8391,2.8102,2.7827,2.7415,2.708,2.6958,2.7024,2.7151,2.7369,2.7459,2.7522,2.7674,2.7686,2.7701,2.7716,2.7716,2.7716,2.7716,2.7716,2.7716,2.7716,2.7716,2.7716,2.7716,2.7789,2.7859,2.793,2.812,2.83,2.8485,2.8076,2.7619,2.7344,2.6993,2.6479,2.5986,2.5721,2.5907,2.6674,2.7,2.6672,2.6173,2.5496,2.5152,2.4969,2.5048,2.519,2.6191,3.3288,3.367,3.3713,3.3586,3.3501,3.4147,3.423,3.4021,3.4369,3.4743,3.5195,3.5399,3.5562,3.5683,3.571,3.571,3.571,3.571,3.571,3.571,3.571,3.571,3.571,3.5628,3.5411,3.4998,3.5152,3.5073,3.4239,3.4528,3.4578,3.437,3.4041,3.3867,3.3664,3.2813,3.2115,3.1659,3.1073,3.0226,2.9741,2.9369,2.9053,2.8817,2.8896,2.9266,2.9754,2.9913,3.0086,3.0281,3.0373,3.0439,3.0456,3.0489,3.0489,3.0489,3.0489,3.0489,3.0489,3.0423,3.0257,2.9794,2.9748,2.945,2.9301,2.9433,2.9457,2.8921,2.8717,2.8395,2.7819,2.7318,2.7058,2.7071,2.7119,2.7274,2.7289,2.7353,2.7537,2.7689,2.7686,2.7716,2.7716,2.7716,2.7716,2.7716,2.7716,2.7716,2.7716,2.7716,2.7716,2.7824,2.7982,2.8015,2.8092,2.8234,2.8354,2.8322,2.7952,2.789,2.7543,2.7053,2.6881,2.6898,2.7288,2.7976,2.7995,2.7662,2.6877,2.5978,2.5753,2.5558,2.5834,2.6136,2.7234,3.333,3.367,3.3713,3.3966,3.4272,3.4356,3.4356,3.4356,3.466,3.499,3.5358,3.5562,3.5683,3.571,3.571,3.571,3.571,3.571,3.571,3.571,3.571,3.571,3.571,3.5642,3.5411,3.516,3.5263,3.5115,3.4203,3.4735,3.4752,3.4612,3.4384,3.4389,3.4522,3.3672,3.2803,3.2076,3.1649,3.099,3.0387,3.0006,2.9729,2.9419,2.9202,2.9526,2.993,3.0103,3.0258,3.0443,3.0489,3.0489,3.0489,3.0489,3.0489,3.0489,3.0489,3.0489,3.0489,3.0489,3.0406,3.0323,3.0224,3.0174,3.0307,3.034,3.0182,2.955,2.9096,2.8567,2.7958,2.747,2.733,2.7224,2.7288,2.7213,2.7228,2.7291,2.7524,2.7644,2.7672,2.7716,2.7716,2.7716,2.7716,2.7716,2.7716,2.7716,2.7716,2.7716,2.7716,2.7906,2.8082,2.8132,2.8163,2.8142,2.8191,2.8232,2.8268,2.8195,2.8149,2.787,2.784,2.8003,2.8198,2.8503,2.8616,2.863,2.7699,2.6808,2.6365,2.6237,2.6552,2.709,2.8127,3.4021,3.4189,3.4147,3.4272,3.4397,3.4397,3.4397,3.4481,3.4825,3.5154,3.5399,3.5629,3.571,3.571,3.571,3.571,3.571,3.571,3.571,3.571,3.571,3.571,3.571,3.5655,3.5371,3.5065,3.5194,3.5185,3.4239,3.4786,3.4811,3.4612,3.475,3.4831,3.4479,3.3773,3.2998,3.2672,3.199,3.1167,3.0595,3.0431,3.0269,2.9897,2.9801,2.9957,3.0325,3.0394,3.0446,3.0501,3.0489,3.0489,3.0489,3.0489,3.0489,3.0506,3.0506,3.0489,3.0489,3.0489,3.0489,3.0489,3.0489,3.0489,3.0489,3.0489,3.0344,3.014,2.9539,2.9123,2.8977,2.8235,2.7912,2.7673,2.7585,2.7351,2.7291,2.7402,2.7542,2.7569,2.7597,2.7686,2.7716,2.7716,2.7716,2.7716,2.7716,2.7716,2.7716,2.7716,2.7733,2.7991,2.8162,2.8229,2.8234,2.8198,2.8149,2.8196,2.8353,2.847,2.8437,2.8364,2.8542,2.856,2.8725,2.8889,2.9068,2.9067,2.839,2.7686,2.7344,2.7294,2.7677,2.8166,2.8836,3.4397,3.4397,3.4397,3.4397,3.4397,3.4397,3.4481,3.4647,3.499,3.5236,3.5521,3.5669,3.571,3.571,3.571,3.571,3.571,3.571,3.571,3.571,3.571,3.571,3.571,3.5696,3.5493,3.5256,3.5485,3.548,3.4983,3.503,3.4927,3.4848,3.5016,3.5016,3.4632,3.3962,3.3239,3.2838,3.2124,3.1346,3.0954,3.0774,3.0723,3.0726,3.0704,3.0705,3.0827,3.0853,3.0754,3.0621,3.0506,3.0489,3.0489,3.0489,3.0489,3.0506,3.077,3.0704,3.0588,3.087,3.082,3.0506,3.0506,3.0489,3.051,3.0547,3.0547,3.0336,2.9949,2.9762,2.9549,2.8813,2.8527,2.8271,2.8064,2.7831,2.7554,2.7664,2.7596,2.7624,2.7615,2.7672,2.7716,2.7716,2.7716,2.7716,2.7716,2.7716,2.7716,2.7716,2.7716,2.7921,2.8059,2.8047,2.8123,2.8237,2.8184,2.814,2.8303,2.85,2.8582,2.8495,2.8813,2.9156,2.9377,2.957,2.9652,2.9477,2.9061,2.8755,2.8462,2.8564,2.8865,2.925,2.9698,3.4397,3.4397,3.4397,3.4397,3.4397,3.4397,3.466,3.5072,3.5072,3.5318,3.5683,3.571,3.571,3.571,3.571,3.571,3.571,3.571,3.571,3.571,3.571,3.571,3.571,3.5696,3.5628,3.5936,3.615,3.6055,3.5963,3.5813,3.5443,3.5024,3.5141,3.5177,3.4797,3.4088,3.3466,3.2973,3.2303,3.166,3.13,3.1024,3.117,3.1311,3.1431,3.138,3.1438,3.1456,3.1151,3.0853,3.0539,3.0506,3.0489,3.0489,3.0489,3.0721,3.1234,3.0919,3.087,3.1217,3.0986,3.0572,3.0489,3.0489,3.051,3.0551,3.0609,3.048,3.0175,3.0028,2.9782,2.9502,2.9226,2.9007,2.8783,2.8445,2.8026,2.7897,2.7796,2.7757,2.7709,2.7701,2.7716,2.7716,2.7716,2.7716,2.7716,2.7716,2.7716,2.7716,2.7716,2.7716,2.7815,2.7798,2.7909,2.812,2.8184,2.8136,2.8223,2.838,2.8465,2.8753,2.9136,2.9546,3.0007,3.0205,3.0134,3.0124,3.0044,2.9762,2.9486,2.9413,2.9589,3.0041,3.0465,3.4397,3.4397,3.4397,3.4397,3.4397,3.4397,3.4647,3.5072,3.5113,3.5318,3.571,3.571,3.571,3.571,3.571,3.571,3.571,3.571,3.571,3.571,3.571,3.571,3.571,3.571,3.571,3.5854,3.6069,3.6322,3.6071,3.6072,3.5926,3.5453,3.5325,3.5291,3.4865,3.4094,3.3707,3.3184,3.2497,3.1958,3.1585,3.1299,3.1555,3.1668,3.1933,3.191,3.1948,3.177,3.1494,3.13,3.0754,3.0522,3.0489,3.0522,3.0605,3.1168,3.1151,3.0853,3.1151,3.1002,3.0754,3.0605,3.0489,3.0489,3.051,3.0551,3.0634,3.0546,3.0479,3.0343,3.03,3.0106,2.9989,2.9863,2.9644,2.9379,2.9017,2.8851,2.8716,2.8421,2.8358,2.7824,2.7806,2.7716,2.7716,2.7716,2.7716,2.7716,2.7716,2.7716,2.7716,2.7716,2.7745,2.7777,2.785,2.8057,2.8106,2.8154,2.8223,2.8425,2.8806,2.9143,2.9514,2.9886,3.0284,3.0435,3.0479,3.0466,3.0488,3.0626,3.0429,3.0339,3.0343,3.0704,3.1217,3.4397,3.4397,3.4397,3.4397,3.441,3.4535,3.4784,3.5086,3.5072,3.5277,3.5562,3.5669,3.571,3.571,3.571,3.571,3.571,3.571,3.571,3.571,3.571,3.571,3.571,3.571,3.571,3.5827,3.6138,3.6557,3.6368,3.623,3.6104,3.5421,3.5446,3.5419,3.5078,3.4439,3.3829,3.326,3.2632,3.2062,3.1776,3.1582,3.1691,3.1979,3.2306,3.2424,3.2432,3.2147,3.1924,3.1581,3.0886,3.0522,3.0489,3.0522,3.0837,3.1317,3.1317,3.125,3.1416,3.1234,3.0853,3.0572,3.0489,3.0489,3.051,3.0589,3.0692,3.0723,3.0716,3.0703,3.0734,3.0743,3.0766,3.0765,3.0574,3.0386,3.0189,3.0023,2.9726,2.9381,2.887,2.823,2.7929,2.7824,2.7716,2.7716,2.7716,2.7716,2.7716,2.7716,2.7716,2.7716,2.7777,2.7821,2.7911,2.7954,2.8011,2.8081,2.8164,2.8434,2.8999,2.921,2.9282,2.9819,3.0475,3.0565,3.0612,3.0772,3.0849,3.0969,3.1022,3.0892,3.0828,3.1061,3.1653,3.4371,3.4319,3.4384,3.441,3.4452,3.4714,3.4921,3.5086,3.5113,3.5236,3.544,3.5642,3.571,3.571,3.571,3.571,3.571,3.571,3.571,3.571,3.571,3.571,3.571,3.571,3.571,3.5991,3.6425,3.6813,3.6931,3.6744,3.6178,3.5314,3.5523,3.5589,3.5352,3.4726,3.4069,3.338,3.2572,3.1881,3.1873,3.1811,3.1866,3.2567,3.2887,3.3032,3.2991,3.2737,3.2359,3.1681,3.1101,3.0704,3.0837,3.0555,3.0952,3.1267,3.1383,3.1399,3.1416,3.13,3.0969,3.0688,3.0526,3.0547,3.0589,3.0589,3.0671,3.0814,3.081,3.0892,3.0937,3.1002,3.1055,3.1107,3.1038,3.115,3.1339,3.102,3.0495,3.0042,2.9287,2.8737,2.8825,2.8789,2.8684,2.8228,2.814,2.8193,2.8105,2.8105,2.7909,2.7909,2.8029,2.8091,2.7806,2.785,2.794,2.8025,2.8091,2.8237,2.8613,2.8807,2.8947,2.9448,2.9971,3.0517,3.0713,3.0816,3.092,3.1046,3.1118,3.1227,3.1333,3.1431,3.1753,3.4149,3.3835,3.4228,3.4535,3.4714,3.4756,3.4934,3.5113,3.5277,3.544,3.5602,3.5683,3.571,3.571,3.571,3.571,3.571,3.571,3.571,3.571,3.571,3.571,3.571,3.571,3.571,3.5991,3.6492,3.7053,3.7125,3.6892,3.6552,3.6,3.5922,3.578,3.5459,3.4801,3.4053,3.3455,3.2602,3.1999,3.1942,3.1783,3.1824,3.2355,3.2687,3.3087,3.3015,3.2683,3.2518,3.221,3.1697,3.1702,3.2116,3.1085,3.125,3.1951,3.1399,3.1267,3.1333,3.1201,3.0754,3.068,3.0568,3.063,3.063,3.0589,3.063,3.0827,3.0996,3.113,3.1235,3.1314,3.1397,3.1468,3.1623,3.2054,3.2459,3.1845,3.1265,3.0562,2.9772,2.9597,2.9667,2.965,2.9597,2.9562,2.9579,2.9529,2.9299,2.9158,2.8509,2.8456,2.8544,2.8471,2.8099,2.7868,2.8026,2.8021,2.8049,2.8174,2.8313,2.8616,2.8901,2.8985,2.9322,3.0068,3.0609,3.0724,3.0827,3.1136,3.1351,3.1547,3.1507,3.1568,3.1836,3.3862,3.3679,3.4175,3.4577,3.4797,3.488,3.5044,3.5236,3.544,3.5602,3.5669,3.571,3.571,3.571,3.571,3.571,3.571,3.571,3.571,3.571,3.571,3.571,3.571,3.571,3.571,3.5924,3.6367,3.6787,3.7075,3.6748,3.6304,3.5978,3.5896,3.5747,3.537,3.4622,3.3918,3.3455,3.2632,3.2134,3.1955,3.1868,3.1925,3.2342,3.2641,3.306,3.3188,3.2943,3.292,3.2677,3.2128,3.1747,3.1735,3.1035,3.1151,3.1482,3.13,3.082,3.1135,3.1002,3.0522,3.0547,3.0568,3.0589,3.0671,3.0684,3.1025,3.1249,3.1909,3.2089,3.2141,3.2216,3.2305,3.2393,3.2864,3.3368,3.3055,3.2406,3.1984,3.1563,3.0791,3.0124,3.0141,3.0036,2.9966,2.9895,3.0071,3.0248,3.0125,3.023,2.9562,2.9158,2.9369,2.9035,2.8559,2.8313,2.822,2.8179,2.8149,2.8281,2.8466,2.8686,2.8888,2.9208,2.954,3.002,3.0446,3.0935,3.1236,3.1582,3.1749,3.189,3.1808,3.176,3.2076,3.3522,3.3666,3.4084,3.4483,3.481,3.5003,3.5195,3.5399,3.5588,3.571,3.571,3.571,3.571,3.571,3.571,3.571,3.571,3.571,3.571,3.571,3.571,3.571,3.571,3.571,3.5749,3.5806,3.6063,3.638,3.6663,3.6335,3.603,3.5618,3.5532,3.5547,3.516,3.4427,3.3679,3.3275,3.2632,3.194,3.1872,3.1953,3.2107,3.237,3.2641,3.306,3.33,3.3328,3.3298,3.304,3.2585,3.2481,3.2012,3.1565,3.1432,3.1565,3.1085,3.0936,3.1068,3.0862,3.0609,3.0526,3.0526,3.0605,3.0742,3.1133,3.1475,3.183,3.2467,3.2625,3.2666,3.2707,3.2779,3.3302,3.39,3.4385,3.372,3.316,3.2915,3.2616,3.1949,3.1159,3.1054,3.0914,3.0738,3.0598,3.0527,3.0545,3.0669,3.0966,3.0826,3.051,3.0492,3.0001,2.9105,2.8998,2.889,2.8584,2.8594,2.8578,2.8762,2.9368,2.9722,2.9749,3.0111,3.0602,3.1169,3.1782,3.1998,3.1998,3.2202,3.2288,3.192,3.1949,3.2334,3.3156,3.36,3.3705,3.417,3.4786,3.5044,3.5208,3.5399,3.5629,3.571,3.5683,3.5696,3.571,3.571,3.571,3.571,3.571,3.571,3.571,3.571,3.571,3.571,3.5682,3.564,3.5807,3.5808,3.5742,3.5762,3.6187,3.6049,3.5818,3.5517,3.5907,3.5791,3.5385,3.4637,3.3933,3.3395,3.2751,3.2107,3.1628,3.1754,3.2023,3.2231,3.241,3.2888,3.314,3.2955,3.3064,3.309,3.298,3.317,3.2895,3.2243,3.183,3.1697,3.1184,3.0886,3.0891,3.0883,3.0767,3.0717,3.0792,3.0945,3.1287,3.1945,3.2126,3.2114,3.2445,3.2148,3.2151,3.2168,3.231,3.3561,3.4439,3.4667,3.446,3.4401,3.4337,3.3986,3.3494,3.3266,3.3371,3.3178,3.2915,3.2774,3.2634,3.2599,3.2353,3.2248,3.1984,3.1949,3.1774,3.044,2.9369,2.9804,2.975,2.9376,2.9327,2.9878,3.027,3.0464,3.0704,3.0809,3.0983,3.1397,3.2004,3.2518,3.2351,3.2351,3.2667,3.2704,3.2269,3.2255,3.2773]}]]